[[{"header":{"parameterUnit":"m.s-1","parameterCategory":1,"la1":31.0,"la2":29.5877,"lo1":-88.7671,"lo2":-86.6584,"dy":0.0162,"dx":0.0185,"nx":115,"ny":88,"refTime":"2023-04-09T00:00:00:Z","depth":0,"parameterNumber":2,"parameterNumberName":"U-component_of_WINDS"},"data":[0.0,0.0,0.0,0.0,0.0,0.0,0.0,0.0,0.0,0.0,0.0,0.0,0.0,0.0,0.0,0.0,0.0,0.0,0.0,0.0,0.0,0.0,0.0,0.0,0.0,0.0,0.0,0.0,0.0,0.0,0.0,0.0,0.0,0.0,0.0,0.0,0.0,0.0,0.0,0.0,0.0,0.0,0.0,0.0,0.0,0.0,0.0,0.0,0.0,0.0,0.0,0.0,0.0,0.0,0.0,0.0,0.0,0.0,0.0,0.0,0.0,0.0,0.0,0.0,0.0,0.0,0.0,0.0,0.0,0.0,0.0,0.0,0.0,0.0,0.0,0.0,0.0,0.0,0.0,0.0,0.0,0.0,0.0,0.0,0.0,0.0,0.0,0.0,0.0,0.0,0.0,0.0,0.0,0.0,0.0,0.0,0.0,0.0,0.0,0.0,0.0,0.0,0.0,0.0,0.0,0.0,0.0,0.0,0.0,0.0,0.0,0.0,0.0,0.0,0.0,0.0,0.0,0.0,0.0,0.0,0.0,0.0,0.0,0.0,0.0,0.0,0.0,0.0,0.0,0.0,0.0,0.0,0.0,0.0,0.0,0.0,0.0,0.0,0.0,0.0,0.0,0.0,0.0,0.0,0.0,0.0,0.0,0.0,0.0,0.0,0.0,0.0,0.0,0.0,0.0,0.0,0.0,0.0,0.0,0.0,0.0,0.0,0.0,0.0,0.0,0.0,0.0,0.0,0.0,0.0,0.0,0.0,0.0,0.0,0.0,0.0,0.0,0.0,0.0,0.0,0.0,0.0,0.0,0.0,0.0,0.0,0.0,0.0,0.0,0.0,0.0,0.0,0.0,0.0,0.0,0.0,0.0,0.0,0.0,0.0,0.0,0.0,0.0,0.0,0.0,0.0,0.0,0.0,0.0,0.0,0.0,0.0,0.0,0.0,0.0,0.0,0.0,0.0,0.0,0.0,0.0,0.0,0.0,0.0,0.0,0.0,0.0,0.0,0.0,0.0,0.0,0.0,0.0,0.0,0.0,0.0,0.0,0.0,0.0,0.0,0.0,0.0,0.0,0.0,0.0,0.0,0.0,0.0,0.0,0.0,0.0,0.0,0.0,0.0,0.0,0.0,0.0,0.0,0.0,0.0,0.0,0.0,0.0,0.0,0.0,0.0,0.0,0.0,0.0,0.0,0.0,0.0,0.0,0.0,0.0,0.0,0.0,0.0,0.0,0.0,0.0,0.0,0.0,0.0,0.0,0.0,0.0,0.0,0.0,0.0,0.0,0.0,0.0,0.0,0.0,0.0,0.0,0.0,0.0,0.0,0.0,0.0,0.0,0.0,0.0,0.0,0.0,0.0,0.0,0.0,0.0,0.0,0.0,0.0,0.0,0.0,0.0,0.0,0.0,0.0,0.0,0.0,0.0,0.0,0.0,0.0,0.0,0.0,0.0,0.0,0.0,0.0,0.0,0.0,0.0,0.0,0.0,0.0,0.0,0.0,0.0,0.0,0.0,0.0,0.0,0.0,0.0,0.0,0.0,0.0,0.0,0.0,0.0,0.0,0.0,0.0,0.0,0.0,0.0,0.0,0.0,0.0,0.0,0.0,0.0,0.0,0.0,0.0,0.0,0.0,0.0,0.0,0.0,0.0,0.0,0.0,0.0,0.0,0.0,0.0,0.0,0.0,0.0,0.0,0.0,0.0,0.0,0.0,0.0,0.0,0.0,0.0,0.0,0.0,0.0,0.0,0.0,0.0,0.0,0.0,0.0,0.0,0.0,0.0,0.0,0.0,0.0,0.0,0.0,0.0,0.0,0.0,0.0,0.0,0.0,0.0,0.0,0.0,0.0,0.0,0.0,0.0,0.0,0.0,0.0,0.0,0.0,0.0,0.0,0.0,0.0,0.0,0.0,0.0,0.0,0.0,0.0,0.0,0.0,0.0,0.0,0.0,0.0,0.0,0.0,0.0,0.0,0.0,0.0,0.0,0.0,0.0,0.0,0.0,0.0,0.0,0.0,0.0,0.0,0.0,0.0,0.0,0.0,0.0,0.0,0.0,0.0,0.0,0.0,0.0,0.0,0.0,0.0,0.0,0.0,0.0,0.0,0.0,0.0,0.0,0.0,0.0,0.0,0.0,0.0,0.0,0.0,0.0,0.0,0.0,0.0,0.0,0.0,0.0,0.0,0.0,0.0,0.0,0.0,0.0,0.0,0.0,0.0,0.0,0.0,0.0,0.0,0.0,0.0,0.0,0.0,0.0,0.0,0.0,0.0,0.0,0.0,0.0,0.0,0.0,0.0,0.0,0.0,0.0,0.0,0.0,0.0,0.0,0.0,0.0,0.0,0.0,0.0,0.0,0.0,0.0,0.0,0.0,0.0,0.0,0.0,0.0,0.0,0.0,0.0,0.0,0.0,0.0,0.0,0.0,0.0,0.0,0.0,0.0,0.0,0.0,0.0,0.0,0.0,0.0,0.0,0.0,0.0,0.0,0.0,0.0,0.0,0.0,0.0,0.0,0.0,0.0,0.0,0.0,0.0,0.0,0.0,0.0,0.0,0.0,0.0,0.0,0.0,0.0,0.0,0.0,0.0,0.0,0.0,0.0,0.0,0.0,0.0,0.0,0.0,0.0,0.0,0.0,0.0,0.0,0.0,0.0,0.0,0.0,0.0,0.0,0.0,0.0,0.0,0.0,0.0,0.0,0.0,0.0,0.0,0.0,0.0,0.0,0.0,0.0,0.0,0.0,0.0,0.0,0.0,0.0,0.0,0.0,0.0,0.0,0.0,0.0,0.0,0.0,0.0,0.0,0.0,0.0,0.0,0.0,0.0,0.0,0.0,0.0,0.0,0.0,0.0,0.0,0.0,0.0,0.0,0.0,0.0,0.0,0.0,0.0,0.0,0.0,0.0,0.0,0.0,0.0,0.0,0.0,0.0,0.0,0.0,0.0,0.0,0.0,0.0,0.0,0.0,0.0,0.0,0.0,0.0,0.0,0.0,0.0,0.0,0.0,0.0,0.0,0.0,0.0,0.0,0.0,0.0,0.0,0.0,0.0,0.0,0.0,0.0,0.0,0.0,0.0,0.0,0.0,0.0,0.0,0.0,0.0,0.0,0.0,0.0,0.0,0.0,0.0,0.0,0.0,0.0,0.0,0.0,0.0,0.0,0.0,0.0,0.0,0.0,0.0,0.0,0.0,0.0,0.0,0.0,0.0,0.0,0.0,0.0,0.0,0.0,0.0,0.0,0.0,0.0,0.0,0.0,0.0,0.0,0.0,0.0,0.0,0.0,0.0,0.0,0.0,0.0,0.0,0.0,0.0,0.0,0.0,0.0,0.0,0.0,0.0,0.0,0.0,0.0,0.0,0.0,0.0,0.0,0.0,0.0,0.0,0.0,0.0,0.0,0.0,0.0,0.0,0.0,0.0,0.0,0.0,0.0,0.0,0.0,0.0,0.0,0.0,0.0,0.0,0.0,0.0,0.0,0.0,0.0,0.0,0.0,0.0,0.0,0.0,0.0,0.0,0.0,0.0,0.0,0.0,0.0,0.0,0.0,0.0,0.0,0.0,0.0,0.0,0.0,0.0,0.0,0.0,0.0,0.0,0.0,0.0,0.0,0.0,0.0,0.0,0.0,0.0,0.0,0.0,0.0,0.0,0.0,0.0,0.0,0.0,0.0,0.0,0.0,0.0,0.0,0.0,0.0,0.0,0.0,0.0,0.0,0.0,0.0,0.0,0.0,0.0,0.0,0.0,0.0,0.0,0.0,0.0,0.0,0.0,0.0,0.0,0.0,0.0,0.0,0.0,0.0,0.0,0.0,0.0,0.0,0.0,0.0,0.0,0.0,0.0,0.0,0.0,0.0,0.0,0.0,0.0,0.0,0.0,0.0,0.0,0.0,0.0,0.0,0.0,0.0,0.0,0.0,0.0,0.0,0.0,0.0,0.0,0.0,0.0,0.0,0.0,0.0,0.0,0.0,0.0,0.0,0.0,0.0,0.0,0.0,0.0,0.0,0.0,0.0,0.0,0.0,0.0,0.0,0.0,0.0,0.0,0.0,0.0,0.0,0.0,0.0,0.0,0.0,0.0,0.0,0.0,0.0,0.0,0.0,0.0,0.0,0.0,0.0,0.0,0.0,0.0,0.0,0.0,0.0,0.0,0.0,0.0,0.0,0.0,0.0,0.0,0.0,0.0,0.0,0.0,0.0,0.0,0.0,0.0,0.0,0.0,0.0,0.0,0.0,0.0,0.0,0.0,0.0,0.0,1.7635,0.0,0.0,0.0,0.0,0.0,0.0,0.0,0.0,0.0,0.0,0.0,0.0,0.0,0.0,0.0,0.0,0.0,0.0,0.0,0.0,0.0,0.0,0.0,0.0,0.0,0.0,0.0,0.0,0.0,0.0,0.0,0.0,0.0,0.0,0.0,0.0,0.0,0.0,0.0,0.0,0.0,0.0,0.0,0.0,0.0,0.0,0.0,0.0,0.0,0.0,0.0,0.0,0.0,0.0,0.0,0.0,0.0,0.0,0.0,0.0,0.0,0.0,0.0,0.0,0.0,0.0,0.0,0.0,0.0,0.0,0.0,0.0,0.0,0.0,0.0,0.0,0.0,0.0,0.0,0.0,0.0,0.0,0.0,0.0,0.0,0.0,0.0,0.0,0.0,0.0,0.0,0.0,0.0,0.0,0.0,0.0,0.0,0.0,0.0,0.0,0.0,0.0,0.0,0.0,0.0,0.0,0.0,0.0,0.0,0.0,1.8156,1.7995,1.7996,1.7849,1.7635,0.0,0.0,0.0,0.0,0.0,0.0,0.0,0.0,0.0,0.0,0.0,0.0,0.0,0.0,0.0,0.0,0.0,0.0,0.0,0.0,0.0,0.0,0.0,0.0,0.0,0.0,0.0,0.0,0.0,0.0,0.0,0.0,0.0,0.0,0.0,0.0,0.0,0.0,0.0,0.0,0.0,0.0,0.0,0.0,0.0,0.0,0.0,0.0,0.0,0.0,0.0,0.0,0.0,0.0,0.0,0.0,0.0,0.0,0.0,0.0,0.0,0.0,0.0,0.0,0.0,0.0,0.0,0.0,0.0,0.0,0.0,0.0,0.0,0.0,0.0,0.0,0.0,0.0,0.0,0.0,0.0,0.0,0.0,0.0,0.0,0.0,0.0,0.0,0.0,0.0,0.0,0.0,0.0,0.0,0.0,0.0,0.0,0.0,0.0,0.0,0.0,0.0,0.0,0.0,0.0,0.0,0.0,0.0,0.0,0.0,0.0,0.0,1.8009,1.7876,1.7635,0.0,0.0,0.0,0.0,0.0,0.0,0.0,0.0,0.0,0.0,0.0,0.0,0.0,0.0,0.0,0.0,0.0,0.0,0.0,0.0,0.0,0.0,0.0,0.0,0.0,0.0,0.0,0.0,0.0,0.0,0.0,0.0,0.0,0.0,0.0,0.0,0.0,0.0,0.0,0.0,0.0,0.0,0.0,0.0,0.0,0.0,0.0,0.0,0.0,0.0,0.0,0.0,0.0,0.0,0.0,0.0,0.0,0.0,0.0,0.0,0.0,0.0,0.0,0.0,0.0,0.0,0.0,0.0,0.0,0.0,0.0,0.0,0.0,0.0,0.0,0.0,0.0,0.0,0.0,0.0,0.0,0.0,0.0,0.0,0.0,0.0,0.0,0.0,0.0,0.0,0.0,0.0,0.0,0.0,0.0,0.0,0.0,0.0,0.0,0.0,0.0,0.0,0.0,0.0,0.0,0.0,0.0,0.0,0.0,0.0,1.8022,1.8022,1.7995,0.0,1.7635,0.0,0.0,0.0,0.0,0.0,0.0,0.0,0.0,0.0,0.0,0.0,0.0,0.0,0.0,0.0,0.0,0.0,0.0,0.0,0.0,0.0,0.0,0.0,0.0,0.0,0.0,0.0,0.0,0.0,0.0,0.0,0.0,0.0,0.0,0.0,0.0,0.0,0.0,0.0,0.0,0.0,0.0,0.0,0.0,0.0,0.0,0.0,0.0,0.0,0.0,0.0,0.0,0.0,0.0,0.0,0.0,0.0,0.0,0.0,0.0,0.0,0.0,0.0,0.0,0.0,0.0,0.0,0.0,0.0,0.0,0.0,0.0,0.0,0.0,0.0,0.0,0.0,0.0,0.0,0.0,0.0,0.0,0.0,0.0,0.0,0.0,0.0,0.0,0.0,0.0,0.0,0.0,0.0,0.0,0.0,0.0,0.0,0.0,0.0,0.0,0.0,0.0,0.0,0.0,0.0,0.0,0.0,0.0,0.0,0.0,1.8103,1.8276,1.8116,1.7903,0.0,0.0,0.0,0.0,0.0,0.0,0.0,0.0,0.0,0.0,0.0,0.0,0.0,0.0,0.0,0.0,0.0,0.0,0.0,0.0,0.0,0.0,0.0,0.0,0.0,0.0,0.0,0.0,0.0,0.0,0.0,0.0,0.0,0.0,0.0,0.0,0.0,0.0,0.0,0.0,0.0,0.0,0.0,0.0,0.0,0.0,0.0,0.0,0.0,0.0,0.0,0.0,0.0,0.0,0.0,0.0,0.0,0.0,0.0,0.0,0.0,0.0,0.0,0.0,0.0,0.0,0.0,0.0,0.0,0.0,0.0,0.0,0.0,0.0,0.0,0.0,0.0,0.0,0.0,0.0,0.0,0.0,0.0,0.0,0.0,0.0,0.0,0.0,0.0,0.0,0.0,0.0,0.0,0.0,0.0,0.0,0.0,0.0,0.0,0.0,0.0,0.0,0.0,0.0,0.0,0.0,0.0,0.0,0.0,0.0,1.8049,1.8263,1.8464,1.8249,1.7983,1.7622,0.0,0.0,0.0,0.0,0.0,0.0,0.0,0.0,0.0,0.0,0.0,0.0,0.0,0.0,0.0,0.0,0.0,0.0,0.0,0.0,0.0,0.0,0.0,0.0,0.0,0.0,0.0,0.0,0.0,0.0,0.0,0.0,0.0,0.0,0.0,0.0,0.0,0.0,0.0,0.0,0.0,0.0,0.0,0.0,0.0,0.0,0.0,0.0,0.0,0.0,0.0,0.0,0.0,0.0,0.0,0.0,0.0,0.0,0.0,0.0,0.0,0.0,0.0,0.0,0.0,0.0,0.0,0.0,0.0,0.0,0.0,0.0,0.0,0.0,0.0,0.0,0.0,0.0,0.0,0.0,0.0,0.0,0.0,0.0,0.0,0.0,0.0,0.0,0.0,0.0,0.0,0.0,0.0,0.0,0.0,0.0,0.0,0.0,0.0,0.0,0.0,0.0,0.0,0.0,0.0,0.0,0.0,0.0,1.7635,1.8183,1.8477,1.849,1.8505,1.8196,0.0,0.0,0.0,0.0,0.0,0.0,0.0,0.0,0.0,0.0,0.0,0.0,0.0,0.0,0.0,0.0,0.0,0.0,0.0,0.0,0.0,0.0,0.0,0.0,0.0,0.0,0.0,0.0,0.0,0.0,0.0,0.0,0.0,0.0,0.0,0.0,0.0,0.0,0.0,0.0,0.0,0.0,0.0,0.0,0.0,0.0,0.0,0.0,0.0,0.0,0.0,0.0,0.0,0.0,0.0,0.0,0.0,0.0,0.0,0.0,0.0,0.0,0.0,0.0,0.0,0.0,0.0,0.0,0.0,0.0,0.0,0.0,0.0,0.0,0.0,0.0,0.0,0.0,0.0,0.0,0.0,0.0,0.0,0.0,0.0,0.0,0.0,0.0,0.0,0.0,0.0,0.0,0.0,0.0,0.0,0.0,0.0,0.0,0.0,0.0,0.0,0.0,0.0,0.0,0.0,0.0,0.0,0.0,0.0,1.8156,1.8557,1.8677,1.8504,1.8276,1.7982,0.0,0.0,0.0,0.0,0.0,0.0,0.0,0.0,0.0,0.0,0.0,0.0,0.0,0.0,0.0,0.0,0.0,0.0,0.0,0.0,0.0,0.0,0.0,0.0,0.0,0.0,0.0,0.0,0.0,0.0,0.0,0.0,0.0,0.0,0.0,0.0,0.0,0.0,0.0,0.0,0.0,0.0,0.0,0.0,0.0,0.0,0.0,0.0,0.0,0.0,0.0,0.0,0.0,0.0,0.0,0.0,0.0,0.0,0.0,0.0,0.0,0.0,0.0,0.0,0.0,0.0,0.0,0.0,0.0,0.0,0.0,0.0,0.0,0.0,0.0,0.0,0.0,0.0,0.0,0.0,0.0,0.0,0.0,0.0,0.0,0.0,0.0,0.0,0.0,0.0,0.0,0.0,0.0,0.0,0.0,0.0,0.0,0.0,0.0,0.0,0.0,0.0,0.0,0.0,0.0,0.0,0.0,0.0,0.0,1.833,0.0,1.8651,1.8357,1.8223,1.7969,0.0,0.0,0.0,0.0,0.0,0.0,0.0,0.0,0.0,0.0,0.0,0.0,0.0,0.0,0.0,0.0,0.0,0.0,0.0,0.0,0.0,0.0,0.0,0.0,0.0,0.0,0.0,0.0,0.0,0.0,0.0,0.0,0.0,0.0,0.0,0.0,0.0,0.0,0.0,0.0,0.0,0.0,0.0,0.0,0.0,0.0,0.0,0.0,0.0,0.0,0.0,0.0,0.0,0.0,0.0,0.0,0.0,0.0,0.0,0.0,0.0,0.0,0.0,0.0,0.0,0.0,0.0,0.0,0.0,0.0,0.0,0.0,0.0,0.0,0.0,0.0,0.0,0.0,0.0,0.0,0.0,0.0,0.0,0.0,0.0,0.0,0.0,0.0,0.0,0.0,0.0,0.0,0.0,0.0,0.0,0.0,0.0,0.0,0.0,0.0,0.0,0.0,0.0,0.0,0.0,0.0,0.0,0.0,1.7742,1.8036,1.8343,1.8384,1.8022,1.8343,1.8196,0.0,0.0,0.0,0.0,0.0,0.0,0.0,0.0,0.0,0.0,0.0,0.0,0.0,0.0,0.0,0.0,0.0,0.0,0.0,0.0,0.0,0.0,0.0,0.0,0.0,0.0,0.0,0.0,0.0,0.0,0.0,0.0,0.0,0.0,0.0,0.0,0.0,0.0,0.0,0.0,0.0,0.0,0.0,0.0,0.0,0.0,0.0,0.0,0.0,0.0,0.0,0.0,0.0,0.0,0.0,0.0,0.0,0.0,0.0,0.0,0.0,0.0,0.0,0.0,0.0,0.0,0.0,0.0,0.0,0.0,0.0,0.0,0.0,0.0,0.0,0.0,0.0,0.0,0.0,0.0,0.0,0.0,0.0,0.0,0.0,0.0,0.0,0.0,0.0,0.0,0.0,0.0,0.0,0.0,0.0,0.0,0.0,0.0,0.0,0.0,0.0,0.0,0.0,0.0,0.0,0.0,0.0,0.0,0.0,1.8343,1.8437,1.8544,1.8609,1.8544,1.8303,0.0,0.0,0.0,0.0,0.0,0.0,0.0,0.0,0.0,0.0,0.0,0.0,0.0,0.0,0.0,0.0,0.0,0.0,0.0,0.0,0.0,0.0,0.0,0.0,0.0,0.0,0.0,0.0,0.0,0.0,0.0,0.0,0.0,0.0,0.0,0.0,0.0,0.0,0.0,0.0,0.0,0.0,0.0,0.0,0.0,0.0,0.0,0.0,0.0,0.0,0.0,0.0,0.0,0.0,0.0,0.0,0.0,0.0,0.0,0.0,0.0,0.0,0.0,0.0,0.0,0.0,0.0,0.0,0.0,0.0,0.0,0.0,0.0,0.0,0.0,0.0,0.0,0.0,0.0,0.0,0.0,0.0,0.0,0.0,0.0,0.0,0.0,0.0,0.0,0.0,0.0,0.0,0.0,0.0,0.0,0.0,0.0,0.0,0.0,0.0,0.0,0.0,0.0,0.0,0.0,0.0,0.0,0.0,0.0,1.8798,1.8853,1.8798,1.873,1.8798,1.8624,1.8209,0.0,0.0,0.0,0.0,0.0,0.0,0.0,0.0,0.0,0.0,0.0,0.0,0.0,0.0,0.0,0.0,0.0,0.0,0.0,0.0,0.0,0.0,0.0,0.0,0.0,0.0,0.0,0.0,0.0,0.0,0.0,0.0,0.0,0.0,0.0,0.0,0.0,0.0,0.0,0.0,0.0,0.0,0.0,0.0,0.0,0.0,0.0,0.0,0.0,0.0,0.0,0.0,0.0,0.0,0.0,0.0,0.0,0.0,0.0,0.0,0.0,0.0,0.0,0.0,0.0,0.0,0.0,0.0,0.0,0.0,0.0,0.0,0.0,0.0,0.0,0.0,0.0,0.0,0.0,0.0,0.0,0.0,0.0,0.0,0.0,0.0,0.0,0.0,0.0,0.0,0.0,0.0,0.0,0.0,0.0,0.0,0.0,0.0,0.0,0.0,0.0,0.0,0.0,0.0,0.0,0.0,0.0,0.0,1.9415,1.9468,1.9227,1.8637,1.916,1.9174,0.0,0.0,0.0,0.0,0.0,0.0,0.0,0.0,0.0,0.0,0.0,0.0,0.0,0.0,0.0,0.0,0.0,0.0,0.0,0.0,0.0,0.0,0.0,0.0,0.0,0.0,0.0,0.0,0.0,0.0,0.0,0.0,0.0,0.0,0.0,0.0,0.0,0.0,0.0,0.0,0.0,0.0,0.0,0.0,0.0,0.0,0.0,0.0,0.0,0.0,0.0,0.0,0.0,0.0,0.0,0.0,0.0,0.0,0.0,0.0,0.0,0.0,0.0,0.0,0.0,0.0,0.0,0.0,0.0,0.0,0.0,0.0,0.0,0.0,0.0,0.0,0.0,0.0,0.0,0.0,0.0,0.0,0.0,0.0,0.0,0.0,0.0,0.0,0.0,0.0,0.0,0.0,0.0,0.0,0.0,0.0,0.0,0.0,0.0,0.0,0.0,0.0,0.0,0.0,0.0,0.0,0.0,0.0,0.0,1.9679,2.0321,2.0344,1.9783,1.989,1.9733,0.0,0.0,0.0,0.0,0.0,0.0,0.0,0.0,0.0,0.0,0.0,0.0,0.0,0.0,0.0,0.0,0.0,0.0,0.0,0.0,0.0,0.0,0.0,0.0,0.0,0.0,0.0,0.0,0.0,0.0,0.0,0.0,0.0,0.0,0.0,0.0,0.0,0.0,0.0,0.0,0.0,0.0,0.0,0.0,0.0,0.0,0.0,0.0,0.0,0.0,0.0,0.0,0.0,0.0,0.0,0.0,0.0,0.0,0.0,0.0,0.0,0.0,0.0,0.0,0.0,0.0,0.0,0.0,0.0,0.0,0.0,0.0,0.0,0.0,0.0,0.0,0.0,0.0,0.0,0.0,0.0,0.0,0.0,0.0,0.0,0.0,0.0,0.0,0.0,0.0,0.0,0.0,0.0,0.0,0.0,0.0,0.0,0.0,0.0,0.0,0.0,0.0,0.0,0.0,0.0,0.0,0.0,0.0,1.9826,2.0521,2.1269,2.1464,2.1131,2.0757,2.0304,0.0,0.0,0.0,0.0,0.0,0.0,0.0,0.0,0.0,0.0,0.0,0.0,0.0,0.0,0.0,0.0,0.0,0.0,0.0,0.0,0.0,0.0,0.0,0.0,0.0,0.0,0.0,0.0,0.0,0.0,0.0,0.0,0.0,0.0,0.0,0.0,0.0,0.0,0.0,0.0,0.0,0.0,0.0,0.0,0.0,0.0,0.0,0.0,0.0,0.0,0.0,0.0,0.0,0.0,0.0,0.0,0.0,0.0,0.0,0.0,0.0,0.0,0.0,0.0,0.0,0.0,0.0,0.0,0.0,0.0,0.0,0.0,0.0,0.0,0.0,0.0,0.0,0.0,0.0,0.0,0.0,0.0,0.0,0.0,0.0,0.0,0.0,0.0,0.0,0.0,0.0,0.0,0.0,0.0,0.0,0.0,0.0,0.0,0.0,0.0,0.0,0.0,0.0,0.0,0.0,0.0,0.0,0.0,2.0681,2.1609,2.2164,2.2451,2.2451,2.1657,2.0922,0.0,0.0,0.0,0.0,0.0,0.0,0.0,0.0,0.0,0.0,0.0,0.0,0.0,0.0,0.0,0.0,0.0,0.0,0.0,0.0,0.0,0.0,0.0,0.0,0.0,0.0,0.0,0.0,0.0,0.0,0.0,0.0,0.0,0.0,0.0,0.0,0.0,0.0,0.0,0.0,0.0,0.0,0.0,0.0,0.0,0.0,0.0,0.0,0.0,0.0,0.0,0.0,0.0,0.0,0.0,0.0,0.0,0.0,0.0,0.0,0.0,0.0,0.0,0.0,0.0,0.0,0.0,0.0,0.0,0.0,0.0,0.0,0.0,0.0,0.0,0.0,0.0,0.0,0.0,0.0,0.0,0.0,0.0,0.0,0.0,0.0,0.0,0.0,0.0,0.0,0.0,0.0,0.0,0.0,0.0,0.0,0.0,0.0,0.0,0.0,0.0,0.0,0.0,0.0,0.0,0.0,0.0,0.0,2.0775,2.189,2.2505,2.2886,2.3092,2.2271,2.1523,0.0,0.0,0.0,0.0,0.0,0.0,0.0,0.0,0.0,0.0,0.0,0.0,0.0,0.0,0.0,0.0,0.0,0.0,0.0,0.0,0.0,0.0,0.0,0.0,0.0,0.0,0.0,0.0,0.0,0.0,0.0,0.0,0.0,0.0,0.0,0.0,0.0,0.0,0.0,0.0,0.0,0.0,0.0,0.0,0.0,0.0,0.0,0.0,2.0344,0.0,0.0,0.0,0.0,0.0,0.0,0.0,0.0,0.0,0.0,0.0,0.0,0.0,0.0,0.0,0.0,0.0,0.0,0.0,0.0,0.0,0.0,0.0,0.0,0.0,0.0,0.0,0.0,0.0,0.0,0.0,0.0,0.0,0.0,0.0,0.0,0.0,0.0,0.0,0.0,0.0,0.0,0.0,0.0,0.0,0.0,0.0,0.0,0.0,0.0,0.0,0.0,0.0,0.0,0.0,0.0,0.0,0.0,0.0,2.143,2.2579,2.306,2.3402,2.35,2.2792,2.1991,0.0,0.0,0.0,0.0,0.0,0.0,0.0,0.0,0.0,0.0,0.0,0.0,0.0,0.0,0.0,0.0,0.0,0.0,0.0,0.0,0.0,0.0,0.0,0.0,0.0,0.0,0.0,0.0,0.0,0.0,0.0,0.0,0.0,0.0,0.0,0.0,0.0,0.0,0.0,0.0,0.0,0.0,0.0,0.0,0.0,0.0,0.0,0.0,0.0,0.0,0.0,0.0,0.0,0.0,0.0,0.0,0.0,0.0,0.0,0.0,0.0,0.0,0.0,0.0,0.0,0.0,0.0,0.0,0.0,0.0,0.0,0.0,0.0,0.0,0.0,0.0,0.0,0.0,0.0,0.0,0.0,0.0,0.0,0.0,0.0,0.0,0.0,0.0,0.0,0.0,0.0,0.0,0.0,0.0,0.0,0.0,0.0,0.0,0.0,0.0,0.0,0.0,0.0,0.0,0.0,0.0,0.0,2.1328,2.2178,2.3238,2.3661,2.3857,2.3803,2.3215,2.2311,2.1162,0.0,0.0,0.0,0.0,0.0,0.0,0.0,0.0,0.0,0.0,0.0,0.0,0.0,0.0,0.0,0.0,0.0,0.0,0.0,0.0,0.0,0.0,0.0,0.0,0.0,0.0,0.0,0.0,0.0,0.0,0.0,0.0,0.0,0.0,0.0,0.0,0.0,0.0,1.9893,2.0401,0.0,0.0,0.0,0.0,0.0,0.0,0.0,0.0,2.0717,0.0,0.0,0.0,0.0,0.0,0.0,0.0,0.0,0.0,0.0,0.0,0.0,0.0,0.0,0.0,0.0,0.0,0.0,0.0,0.0,0.0,0.0,0.0,0.0,0.0,0.0,0.0,0.0,0.0,0.0,0.0,0.0,0.0,0.0,0.0,0.0,0.0,0.0,0.0,0.0,0.0,0.0,0.0,0.0,0.0,0.0,0.0,0.0,0.0,0.0,0.0,0.0,0.0,0.0,0.0,0.0,2.0699,2.1529,2.2378,2.3265,2.3861,2.4058,2.3803,2.3215,2.2345,2.1131,0.0,0.0,0.0,0.0,0.0,0.0,0.0,0.0,0.0,0.0,0.0,0.0,0.0,0.0,0.0,0.0,0.0,0.0,0.0,0.0,0.0,0.0,0.0,0.0,0.0,0.0,0.0,0.0,0.0,0.0,0.0,0.0,0.0,0.0,0.0,0.0,0.0,0.0,0.0,2.0828,2.1029,0.0,0.0,0.0,0.0,0.0,0.0,0.0,0.0,2.1109,0.0,0.0,0.0,0.0,0.0,0.0,0.0,0.0,0.0,0.0,0.0,0.0,0.0,0.0,0.0,0.0,0.0,0.0,0.0,0.0,0.0,0.0,0.0,0.0,0.0,0.0,0.0,0.0,0.0,0.0,0.0,0.0,0.0,0.0,0.0,0.0,0.0,0.0,0.0,0.0,0.0,0.0,0.0,0.0,0.0,0.0,0.0,0.0,0.0,0.0,0.0,0.0,0.0,0.0,0.0,2.0909,2.1764,2.2645,2.3527,2.3981,2.4062,2.3803,2.3215,2.2412,0.0,0.0,0.0,0.0,0.0,0.0,0.0,0.0,0.0,0.0,0.0,0.0,0.0,0.0,0.0,0.0,0.0,0.0,0.0,0.0,0.0,0.0,0.0,0.0,0.0,0.0,0.0,0.0,0.0,0.0,0.0,0.0,0.0,0.0,0.0,0.0,0.0,0.0,0.0,0.0,2.1087,2.1368,2.1368,0.0,0.0,0.0,0.0,0.0,0.0,2.1181,2.1368,0.0,0.0,0.0,0.0,0.0,0.0,0.0,0.0,0.0,0.0,0.0,0.0,0.0,0.0,0.0,0.0,0.0,0.0,0.0,0.0,0.0,0.0,0.0,0.0,0.0,0.0,0.0,0.0,0.0,0.0,0.0,0.0,0.0,0.0,0.0,0.0,0.0,0.0,0.0,0.0,0.0,0.0,0.0,0.0,0.0,0.0,0.0,0.0,0.0,0.0,0.0,0.0,0.0,0.0,0.0,2.1283,2.2098,2.2953,2.3821,2.4142,2.4128,2.3803,2.3215,2.2452,0.0,0.0,0.0,0.0,0.0,0.0,0.0,0.0,0.0,0.0,0.0,0.0,0.0,0.0,0.0,0.0,0.0,0.0,0.0,0.0,0.0,0.0,0.0,0.0,0.0,0.0,0.0,0.0,0.0,0.0,0.0,0.0,0.0,0.0,0.0,0.0,0.0,0.0,0.0,0.0,0.0,2.1756,2.1756,2.1523,0.0,0.0,0.0,0.0,2.1363,2.1609,0.0,0.0,0.0,0.0,0.0,0.0,0.0,0.0,0.0,0.0,0.0,0.0,0.0,0.0,0.0,0.0,0.0,0.0,0.0,0.0,0.0,0.0,0.0,0.0,0.0,0.0,0.0,0.0,0.0,0.0,0.0,0.0,0.0,0.0,0.0,0.0,0.0,0.0,0.0,0.0,0.0,0.0,0.0,0.0,0.0,0.0,0.0,0.0,0.0,0.0,0.0,0.0,0.0,0.0,0.0,0.0,2.1857,2.2519,2.3281,2.4115,2.4436,2.4292,2.3817,2.3215,2.2358,0.0,0.0,0.0,0.0,0.0,0.0,0.0,0.0,0.0,0.0,0.0,0.0,0.0,0.0,0.0,0.0,0.0,0.0,0.0,0.0,0.0,0.0,0.0,0.0,0.0,0.0,0.0,0.0,0.0,0.0,0.0,0.0,0.0,0.0,0.0,0.0,0.0,0.0,0.0,0.0,0.0,2.2325,2.2325,2.2298,2.2164,0.0,0.0,2.1977,2.2231,2.2265,0.0,0.0,0.0,0.0,0.0,0.0,0.0,0.0,0.0,0.0,0.0,0.0,0.0,0.0,0.0,0.0,0.0,0.0,0.0,0.0,0.0,0.0,0.0,0.0,0.0,0.0,0.0,0.0,0.0,0.0,0.0,0.0,0.0,0.0,0.0,0.0,0.0,0.0,0.0,0.0,0.0,0.0,0.0,0.0,0.0,0.0,0.0,0.0,0.0,0.0,0.0,0.0,0.0,0.0,0.0,2.0975,2.1977,2.2934,2.3763,2.4422,2.473,2.4609,2.4022,2.3295,2.2345,0.0,0.0,0.0,0.0,0.0,0.0,0.0,0.0,0.0,0.0,0.0,0.0,0.0,0.0,0.0,0.0,0.0,0.0,0.0,0.0,0.0,0.0,0.0,0.0,0.0,0.0,0.0,0.0,0.0,0.0,0.0,0.0,0.0,0.0,0.0,0.0,0.0,0.0,0.0,0.0,0.0,0.0,2.2852,2.3073,0.0,0.0,0.0,2.3287,2.3407,0.0,0.0,0.0,0.0,0.0,0.0,0.0,0.0,0.0,0.0,0.0,0.0,0.0,0.0,0.0,0.0,0.0,0.0,0.0,0.0,0.0,0.0,0.0,0.0,0.0,0.0,0.0,0.0,0.0,0.0,0.0,0.0,0.0,0.0,0.0,0.0,0.0,0.0,0.0,0.0,0.0,0.0,0.0,0.0,0.0,0.0,0.0,0.0,0.0,0.0,0.0,0.0,0.0,0.0,0.0,0.0,0.0,2.2238,2.3268,2.4088,2.4693,2.497,2.4796,2.4209,2.3362,0.0,0.0,0.0,0.0,0.0,0.0,0.0,0.0,0.0,0.0,0.0,0.0,0.0,0.0,0.0,0.0,0.0,0.0,0.0,0.0,0.0,0.0,0.0,0.0,0.0,0.0,0.0,1.9586,0.0,0.0,0.0,0.0,0.0,0.0,0.0,0.0,0.0,0.0,0.0,0.0,0.0,0.0,2.2859,2.3425,2.3861,2.4111,0.0,0.0,2.4502,2.4436,2.4062,2.3688,0.0,0.0,0.0,0.0,0.0,0.0,0.0,0.0,0.0,0.0,0.0,0.0,0.0,0.0,0.0,0.0,0.0,0.0,0.0,0.0,0.0,0.0,0.0,0.0,0.0,0.0,0.0,0.0,0.0,0.0,0.0,0.0,0.0,0.0,0.0,0.0,0.0,0.0,0.0,0.0,0.0,0.0,0.0,0.0,0.0,0.0,0.0,0.0,0.0,0.0,0.0,0.0,0.0,0.0,0.0,2.28,2.3482,2.4231,2.501,2.5077,2.4796,2.4209,2.3362,2.2479,0.0,0.0,0.0,0.0,0.0,0.0,0.0,0.0,0.0,0.0,0.0,0.0,0.0,0.0,0.0,0.0,0.0,0.0,0.0,0.0,0.0,0.0,0.0,0.0,0.0,0.0,0.0,0.0,0.0,0.0,0.0,0.0,0.0,0.0,0.0,0.0,0.0,0.0,0.0,0.0,0.0,2.3452,2.4062,2.4636,2.489,0.0,2.5026,2.5331,2.5064,2.5021,2.4676,2.391,0.0,0.0,0.0,0.0,0.0,0.0,0.0,0.0,0.0,0.0,0.0,0.0,0.0,0.0,0.0,0.0,0.0,0.0,0.0,0.0,0.0,0.0,0.0,0.0,0.0,0.0,0.0,0.0,0.0,0.0,0.0,0.0,0.0,0.0,0.0,0.0,0.0,0.0,0.0,0.0,0.0,0.0,0.0,0.0,0.0,0.0,0.0,0.0,0.0,0.0,0.0,0.0,0.0,2.1796,2.288,2.3821,2.4649,2.5304,2.5344,2.5157,2.4756,2.3714,2.2726,0.0,0.0,0.0,0.0,0.0,0.0,0.0,0.0,0.0,0.0,0.0,0.0,0.0,0.0,0.0,0.0,0.0,0.0,0.0,0.0,0.0,0.0,0.0,0.0,0.0,0.0,0.0,0.0,2.021,2.0277,2.0481,0.0,0.0,0.0,0.0,0.0,0.0,0.0,0.0,0.0,0.0,2.3875,2.4636,2.5436,0.0,0.0,2.6172,2.6279,2.6172,2.5583,2.4903,2.4382,2.3407,0.0,0.0,0.0,0.0,0.0,0.0,0.0,0.0,0.0,0.0,0.0,0.0,0.0,0.0,0.0,0.0,0.0,0.0,0.0,0.0,0.0,0.0,0.0,0.0,0.0,0.0,0.0,0.0,0.0,0.0,0.0,0.0,0.0,0.0,0.0,0.0,0.0,0.0,0.0,0.0,0.0,0.0,0.0,0.0,0.0,0.0,0.0,0.0,0.0,0.0,0.0,0.0,2.2198,2.3161,2.4209,2.5013,2.5625,2.5651,2.5464,2.5064,2.4035,2.3073,0.0,0.0,0.0,0.0,0.0,0.0,0.0,0.0,0.0,0.0,0.0,0.0,0.0,0.0,0.0,0.0,0.0,0.0,0.0,0.0,0.0,0.0,0.0,0.0,0.0,0.0,0.0,0.0,2.0464,2.0575,2.0788,0.0,0.0,0.0,0.0,0.0,0.0,0.0,0.0,0.0,0.0,2.4489,2.5382,2.6146,2.672,2.6921,2.6947,2.6921,2.6841,2.5985,2.5211,2.4836,0.0,0.0,0.0,0.0,0.0,0.0,0.0,0.0,0.0,0.0,0.0,0.0,0.0,0.0,0.0,0.0,0.0,0.0,0.0,0.0,0.0,0.0,0.0,0.0,0.0,0.0,0.0,2.1951,0.0,0.0,2.1555,0.0,0.0,0.0,0.0,0.0,0.0,0.0,0.0,0.0,0.0,0.0,0.0,0.0,0.0,0.0,0.0,0.0,0.0,0.0,0.0,0.0,0.0,2.2552,2.3763,2.4609,2.5382,2.5957,2.5984,2.5717,2.5104,2.4272,2.3474,2.2867,0.0,0.0,0.0,0.0,0.0,0.0,0.0,0.0,0.0,0.0,0.0,0.0,0.0,0.0,0.0,0.0,0.0,0.0,0.0,0.0,0.0,0.0,0.0,0.0,0.0,0.0,2.1037,2.1082,2.1082,0.0,0.0,0.0,0.0,0.0,0.0,0.0,0.0,0.0,0.0,2.4539,2.5371,2.6226,2.6907,2.7282,2.7309,2.7296,2.7148,2.6867,2.6319,2.5784,0.0,0.0,0.0,0.0,0.0,0.0,0.0,0.0,0.0,0.0,0.0,0.0,0.0,0.0,0.0,0.0,0.0,0.0,0.0,0.0,0.0,0.0,0.0,0.0,0.0,0.0,0.0,2.2378,2.2572,0.0,0.0,0.0,0.0,0.0,0.0,0.0,0.0,0.0,0.0,0.0,2.3188,2.2966,0.0,0.0,0.0,0.0,0.0,0.0,0.0,0.0,0.0,0.0,0.0,0.0,2.2766,2.379,2.4636,2.5409,2.5971,2.5998,2.5904,2.5703,2.481,2.3781,2.2605,0.0,0.0,0.0,0.0,0.0,0.0,0.0,0.0,0.0,0.0,0.0,0.0,0.0,0.0,0.0,0.0,0.0,0.0,0.0,0.0,0.0,0.0,0.0,0.0,0.0,2.1109,0.0,0.0,0.0,0.0,0.0,0.0,0.0,0.0,0.0,0.0,0.0,2.3166,2.3955,2.5021,2.5944,2.6587,2.7175,2.7615,0.0,0.0,0.0,0.0,0.0,0.0,0.0,0.0,0.0,0.0,0.0,0.0,0.0,0.0,2.4834,2.4446,2.4298,2.4008,2.342,0.0,0.0,0.0,0.0,0.0,0.0,0.0,0.0,0.0,0.0,0.0,0.0,0.0,0.0,2.3153,2.3335,2.302,0.0,0.0,0.0,0.0,0.0,0.0,0.0,0.0,2.3465,2.3941,2.4245,2.3879,2.3941,0.0,2.3714,2.3086,0.0,0.0,0.0,0.0,0.0,0.0,0.0,0.0,2.3073,2.4098,2.4981,2.5703,2.6226,2.6253,2.6213,2.6131,2.5157,2.3999,2.2745,2.2084,2.1443,0.0,0.0,0.0,0.0,0.0,0.0,0.0,0.0,0.0,0.0,0.0,0.0,0.0,0.0,0.0,0.0,0.0,0.0,0.0,0.0,0.0,0.0,0.0,2.1109,0.0,0.0,0.0,0.0,0.0,0.0,0.0,0.0,0.0,2.2472,2.314,2.3915,2.4716,2.5651,2.6466,2.7041,0.0,0.0,0.0,0.0,0.0,0.0,0.0,2.6186,2.5999,2.5732,2.5464,2.5239,2.5491,2.5785,2.6066,0.0,0.0,2.5665,2.5489,2.5248,2.4673,2.4836,2.4983,2.4646,2.4676,2.4903,0.0,0.0,0.0,0.0,2.3014,0.0,0.0,0.0,2.4142,2.4262,0.0,2.3968,0.0,0.0,0.0,0.0,2.2539,2.342,0.0,0.0,2.4436,2.4813,2.5104,2.4836,2.4813,2.5141,2.4836,2.4396,2.3817,2.2693,0.0,0.0,0.0,0.0,0.0,0.0,2.3474,2.4613,2.5518,2.6292,2.68,2.6827,2.6694,2.6373,2.5277,2.4239,2.3385,2.3033,2.2372,2.1229,2.1435,0.0,0.0,0.0,0.0,0.0,0.0,0.0,0.0,0.0,0.0,0.0,0.0,0.0,0.0,0.0,0.0,0.0,0.0,0.0,0.0,2.1122,0.0,0.0,0.0,0.0,0.0,0.0,0.0,0.0,0.0,0.0,2.3412,2.3915,2.469,2.5864,0.0,0.0,0.0,0.0,2.8179,2.8192,2.7938,2.7696,2.7696,2.7201,2.6787,2.6787,0.0,0.0,2.6413,2.664,2.6907,2.7255,2.7455,2.7428,2.664,2.6265,2.6051,2.5984,2.5998,2.6038,2.6038,2.6011,2.6131,2.6038,0.0,0.0,0.0,0.0,2.4543,2.49,2.5369,2.5462,2.5489,2.5476,2.5144,0.0,0.0,0.0,0.0,0.0,0.0,2.501,2.505,2.5625,2.6039,2.6306,2.6026,2.6039,2.6306,2.6026,2.5585,2.4997,2.4499,2.35,2.2178,0.0,0.0,0.0,0.0,2.4124,2.5224,2.5932,2.6586,2.7134,2.7134,2.6907,2.64,2.5904,2.5157,2.4252,2.3581,2.2939,2.2412,2.1877,0.0,0.0,0.0,0.0,0.0,0.0,0.0,0.0,0.0,0.0,0.0,0.0,0.0,0.0,0.0,0.0,0.0,0.0,0.0,2.1077,2.1309,2.1462,0.0,0.0,0.0,0.0,0.0,0.0,0.0,0.0,0.0,2.5157,2.5382,2.5732,0.0,0.0,2.7509,2.7669,2.7991,2.8192,2.8192,2.7883,0.0,2.7709,2.7388,2.7134,2.7134,2.7108,2.7014,2.7055,2.7081,2.7228,2.7563,2.7642,2.7669,2.7697,2.7443,2.7068,2.6707,2.6747,2.6921,2.6934,2.7041,2.7322,2.843,2.6934,2.6239,2.5984,2.5984,2.5984,2.6252,2.668,2.6693,2.6626,2.6506,2.6279,2.5825,2.5157,2.5007,0.0,0.0,0.0,2.6266,2.64,2.6867,2.7241,2.7495,2.7228,2.7241,2.7454,2.7108,2.6667,2.6199,2.5837,2.4997,2.3821,0.0,0.0,2.3429,2.4017,2.4793,2.5665,2.6386,2.7001,2.7469,2.7442,2.7255,2.6747,2.6386,2.581,2.4973,2.4226,2.3541,2.292,2.2398,2.1943,0.0,0.0,0.0,0.0,0.0,0.0,0.0,0.0,0.0,0.0,0.0,2.1109,2.1109,0.0,0.0,0.0,2.139,2.1456,2.1456,2.1649,0.0,0.0,0.0,0.0,0.0,0.0,0.0,2.3772,2.477,2.569,2.6226,2.6546,2.6814,2.7121,2.7468,2.7736,2.7856,0.0,2.8192,2.8192,2.8138,2.8016,2.7938,2.7829,2.7804,2.767,2.7657,2.7657,2.7657,2.7657,2.771,2.7871,2.7976,2.811,2.8339,2.8257,2.8096,2.7601,2.7762,2.7963,2.7963,2.811,2.8283,3.0862,2.998,2.831,2.7603,2.7483,2.7483,2.7615,2.7869,2.7869,2.775,2.7483,2.7456,2.6921,2.6145,2.6158,0.0,2.656,2.7202,2.763,2.7843,2.8192,2.8473,2.8698,2.846,2.846,2.8657,2.811,2.7682,2.7389,2.6867,2.6413,2.6131,2.4834,2.4231,2.4369,2.4903,2.5516,2.6105,2.6921,2.7483,2.7722,2.7736,2.7589,2.7336,2.6787,2.6172,2.5571,2.4946,2.4142,2.3081,2.2934,2.2532,2.1756,0.0,0.0,0.0,0.0,0.0,0.0,0.0,0.0,0.0,0.0,0.0,0.0,0.0,0.0,0.0,2.1877,0.0,2.2017,2.2058,0.0,0.0,0.0,2.3086,2.3359,2.3955,2.4386,2.4703,0.0,0.0,2.6827,2.7402,2.7762,2.7776,2.7762,2.7911,2.8179,2.8259,2.8259,2.8299,2.85,2.8537,2.8339,2.843,2.8497,2.8299,2.8259,2.8259,2.8259,2.8259,2.8259,2.8272,2.8457,2.8631,2.8631,2.8845,2.8948,2.8698,2.8831,2.8975,2.8961,2.8961,2.8988,3.2166,3.1885,3.1029,2.998,2.8965,2.8995,2.9125,2.9379,2.9392,2.9232,2.8938,2.8711,2.8123,2.7295,2.7563,2.7697,2.7804,2.862,2.8991,2.9072,2.9366,2.9539,2.9606,2.9526,2.9419,2.9272,2.9169,2.8791,2.8297,2.815,2.7923,2.7657,2.7309,2.6626,2.5623,2.5892,2.6412,2.6988,2.7375,2.7736,2.8072,2.8085,2.7938,2.7602,2.7255,2.672,2.5931,2.5291,2.4636,2.3915,2.3233,2.28,2.2586,2.1957,0.0,0.0,0.0,0.0,0.0,0.0,0.0,0.0,0.0,2.1489,2.1489,0.0,2.1804,0.0,2.2151,2.2311,2.2311,2.2726,0.0,0.0,2.3714,2.4008,2.4266,2.485,2.5317,2.5611,2.6453,2.7135,2.7442,2.8016,2.839,2.839,2.839,2.8417,2.8497,2.8684,2.8831,2.8818,2.8871,2.8868,2.8845,2.8841,2.8898,2.8801,2.8818,2.8818,2.8818,2.8788,2.8788,2.8831,2.8885,2.8895,2.8895,2.9179,2.9339,2.9272,2.9152,2.9068,2.9325,2.9379,2.9446,3.3303,3.3169,3.2799,3.2104,3.1196,3.0675,3.0541,3.0702,3.0702,3.0528,3.0234,2.982,2.9352,2.8941,2.8968,2.9115,2.9396,2.9891,3.0207,3.0507,3.0488,3.0501,3.0488,3.0368,3.0221,3.006,2.9985,2.97,2.9392,2.9245,2.9098,2.8981,2.8848,2.8379,2.759,2.7336,2.7376,2.7697,2.7857,2.8018,2.8179,2.8192,2.8045,2.7696,2.7281,2.6653,2.5837,2.5184,2.4609,2.4071,2.3576,2.3174,2.2907,2.2439,2.205,0.0,0.0,0.0,0.0,0.0,0.0,0.0,0.0,0.0,0.0,0.0,2.2298,2.2565,2.2966,2.3207,2.3207,2.3634,2.3999,2.4329,2.4609,2.4903,2.5197,2.5732,2.6159,2.6333,2.7001,2.7562,2.7911,2.831,2.8657,2.8735,2.8925,2.8951,2.8831,2.8895,2.9001,2.9001,2.9108,2.9232,2.9232,2.9081,2.9001,2.9001,2.9001,2.9001,2.9001,2.9001,2.9001,2.9001,2.9108,2.9232,2.9202,2.9472,2.9673,2.9659,2.9553,2.9499,2.9633,2.9673,2.974,3.4336,3.4108,3.4068,3.3868,3.3507,3.2541,3.2045,3.1891,3.1898,3.165,3.1303,3.0855,3.0614,3.056,3.0301,3.0474,3.0955,3.0996,3.1336,3.1805,3.1517,3.1396,3.1336,3.1142,3.0996,3.0955,3.0707,3.056,3.0507,3.0167,3.002,3.002,2.978,2.9646,2.9619,2.8874,2.8419,2.8299,2.8272,2.8245,2.8245,2.8205,2.8045,2.7696,2.7134,2.6373,2.5545,2.4946,2.4422,2.3897,2.3857,2.3616,2.3108,2.2987,2.2733,0.0,2.2164,0.0,0.0,0.0,0.0,0.0,0.0,0.0,0.0,2.2571,2.2886,2.3412,2.3995,2.4329,2.4369,2.4636,2.4943,2.5264,2.5531,2.5798,2.6145,2.664,2.6987,2.6987,2.7509,2.7976,2.8286,2.8524,2.8818,2.9028,2.9339,2.9419,2.9175,2.9135,2.9161,2.9108,2.9366,2.9539,2.9513,2.9339,2.9148,2.9121,2.9148,2.9108,2.9135,2.9135,2.9121,2.9148,2.9379,2.9539,2.9539,2.974,2.99,2.9887,2.9873,2.9887,2.9953,2.9967,2.998,3.5351,3.5231,3.5044,3.4776,3.4548,3.432,3.3774,3.3043,3.2839,3.2425,3.1931,3.1824,3.165,3.1497,3.161,3.1744,3.1864,3.2152,3.2326,3.242,3.2367,3.2353,3.234,3.2286,3.2139,3.1837,3.1557,3.1303,3.1062,3.0768,3.0621,3.0621,3.0568,3.0541,3.0528,0.0,0.0,0.0,2.8644,2.8524,2.8511,2.8312,2.8045,2.7696,2.708,0.0,2.5558,2.5184,2.473,2.4155,2.4115,0.0,0.0,0.0,0.0,0.0,0.0,0.0,0.0,0.0,0.0,0.0,2.3808,2.3607,2.3185,2.3594,2.4008,2.4319,2.4703,2.501,2.5237,2.5531,2.5919,2.6426,2.6547,2.6694,2.7041,2.7576,2.7938,2.7938,2.8404,2.8748,2.8815,2.9125,2.9325,2.9406,2.9646,2.9806,2.974,2.9668,2.974,2.9753,2.9766,2.982,2.9833,2.9766,2.9655,2.9708,2.9708,2.974,2.9713,2.9682,2.974,2.9682,2.9748,2.9833,2.9833,2.9842,2.9913,2.9913,2.9913,2.9993,3.0266,3.0319,3.0386,3.6218,3.6246,3.5965,3.5765,0.0,3.5524,3.5151,3.4683,3.3961,3.3467,3.3173,3.2879,3.2666,3.2519,3.2433,3.2398,3.2545,3.2692,3.2888,3.3009,3.2875,3.2808,3.2808,3.2661,3.2514,3.2367,3.2219,3.2072,3.1877,3.173,3.1631,3.1436,3.1289,3.1156,3.1009,3.0761,3.014,2.9272,2.8921,2.8775,2.8775,2.8524,2.8163,2.7696,2.7121,0.0,0.0,0.0,0.0,0.0,0.0,0.0,0.0,2.4026,0.0,2.3768,2.3852,2.3932,2.3945,2.4249,2.4512,2.4623,2.4903,2.4823,2.4235,2.473,2.513,2.5277,2.5678,2.5999,2.6146,2.6426,2.676,2.7014,2.7295,2.7576,2.7764,2.8272,2.8577,2.8604,2.8801,2.9055,2.9245,2.9379,2.9539,2.9686,2.982,2.9913,2.9913,2.9913,2.9913,2.9913,2.9913,2.9913,2.9913,2.9913,2.9913,2.9913,2.9913,2.9913,2.9913,2.9913,2.9913,2.9913,2.9913,2.9913,2.9913,2.9913,2.9913,2.9927,3.0034,3.0221,3.0488,3.0507,3.0493,3.7045,3.7019,3.6834,3.67,3.6633,3.6353,3.6166,3.6046,3.4937,0.0,0.0,3.3788,3.3574,3.3534,3.3116,3.3009,3.3183,3.3146,3.324,3.34,3.316,3.3053,3.304,3.2862,3.2755,3.2741,3.2701,3.2674,3.2661,3.2621,3.2474,3.2185,3.1992,3.1704,3.145,3.1116,3.0595,2.9887,2.9419,2.9148,2.9135,2.8858,2.839,2.7789,2.7255,2.6426,2.5315,2.4997,2.4716,2.4382,2.4409,2.4436,2.4436,2.4626,2.4653,2.4476,2.4679,2.4839,2.4839,2.5144,2.5369,2.5384,2.5917,2.5998,2.5424,2.5877,2.6172,2.6225,2.6667,2.7001,2.7054,2.7321,2.7563,2.7575,2.8058,2.8339,2.8379,2.8778,2.9098,2.9081,2.9135,2.9285,2.9526,2.9566,2.9646,2.9847,2.99,2.9913,2.9913,2.9913,2.9913,2.9913,2.9913,2.9913,2.9913,2.9913,2.9913,2.9913,2.9913,2.9913,2.9913,2.9913,2.9913,2.9913,2.9913,2.9913,2.9913,2.9913,2.9913,2.9913,3.01,3.044,3.0721,3.0608,3.0568,3.7646,3.7689,3.7649,3.7489,3.7235,3.6941,3.654,3.6019,3.5364,3.479,3.4309,3.4229,3.4189,3.4189,3.4108,3.3961,3.3761,3.3761,3.3641,3.3414,3.3374,3.3347,3.3347,3.3307,3.3293,3.3267,3.3026,3.2919,3.2942,3.2728,3.2567,3.2527,3.2487,3.2447,3.2367,3.1872,3.1537,3.139,3.0327,2.9748,2.978,2.9215,2.8684,2.8152,2.7762,2.7028,2.5931,2.5837,2.5556,2.4997,2.5197,2.5293,2.5331,2.5371,2.5371,2.5344,2.5611,2.581,2.581,2.6078,2.6306,2.656,2.6894,2.6934,2.6613,2.6653,2.68,2.7108,2.7402,2.7682,2.7978,2.8217,2.847,2.8668,2.8801,2.8868,2.8855,2.9205,2.9419,2.9419,2.9646,2.9766,2.9806,2.9833,2.9833,2.99,2.9913,2.9913,2.9913,2.9913,2.9913,2.9913,2.9913,2.9913,2.9913,2.9913,2.9913,2.9913,2.9913,2.9913,2.9913,2.9913,2.9913,2.9913,2.9913,2.9913,2.9913,2.9913,2.9913,2.9927,2.9993,3.0207,3.0688,3.0755,3.0915,3.8784,3.8744,3.845,3.8237,3.8076,3.7609,3.7088,3.654,3.6259,3.5819,3.5257,3.4937,3.479,3.4763,3.4469,3.4242,3.4122,3.4122,3.4042,3.3908,3.3908,3.3895,3.3881,3.3748,3.3668,3.3641,3.336,3.3213,3.32,3.308,3.2933,3.2835,3.2674,3.2594,3.2567,3.2326,3.2193,3.2166,3.0996,3.0394,3.0381,2.982,2.9312,2.8915,2.843,2.7709,2.6747,2.6707,2.6439,2.585,2.5919,2.5985,2.5999,2.6132,2.6187,2.6239,2.6507,2.6707,2.6707,2.6974,2.7228,2.7522,2.7816,2.8016,2.7988,2.7722,2.7669,2.7963,2.8257,2.8441,2.8617,2.8751,2.8855,2.8975,2.9179,2.9272,2.9312,2.9539,2.9713,2.9726,2.9833,2.9913,2.9913,2.9913,2.9913,2.9913,2.9913,2.9913,2.9913,2.9913,2.9913,2.9913,2.9913,2.9913,2.9913,2.9913,2.9913,2.9913,2.9913,2.9913,2.9913,2.9913,2.9913,2.9913,2.9913,2.9913,2.9913,2.9913,2.9913,2.994,3.006,3.0327,3.0688,3.1022,3.1403,3.9599,3.9546,3.9105,3.8851,3.8678,3.8143,3.7622,3.7099,3.7141,3.6874,3.6406,3.5712,3.5391,3.5338,3.4843,3.4576,3.4523,3.4442,3.4389,3.4322,3.4322,3.4322,3.4295,3.4082,3.3988,3.3961,3.3734,3.3614,3.3614,3.3547,3.3374,3.308,3.2902,3.2795,3.2795,3.2728,3.2688,3.2634,3.1738,3.1129,3.0969,3.0421,2.9967,2.9717,2.9179,2.8511,2.7722,2.7602,2.7362,2.6867,2.6827,2.6787,2.6841,2.7001,2.7121,2.7148,2.7402,2.7643,2.7669,2.7869,2.8096,2.8366,2.8674,2.8925,2.9108,2.8928,2.8714,2.8818,2.9058,2.9215,2.9308,2.9375,2.9388,2.9402,2.9566,2.9686,2.97,2.9833,2.9913,2.9913,2.9913,2.9913,2.9913,2.9913,2.9913,2.9913,2.9913,2.9913,2.9913,2.9913,2.9913,2.9913,2.9913,2.9913,2.9913,2.9913,2.9913,2.9913,2.9913,2.9913,2.9913,2.9913,2.9913,2.9913,2.9913,2.9913,2.9913,2.9913,2.9913,2.9927,3.006,3.0341,3.0728,3.1089,3.151,3.9613,3.9599,3.9533,3.9212,3.8718,3.837,3.8036,3.7756,3.7729,3.7716,3.7489,3.6487,3.6006,3.5952,3.5645,3.5351,3.5097,3.4895,3.4603,3.4376,3.4322,3.4322,3.4362,3.4309,3.4282,3.4282,3.4229,3.4175,3.4162,3.3961,3.3681,3.34,3.3347,3.3334,3.3307,3.308,3.2946,3.2933,3.2621,3.2179,3.1644,3.1009,3.0581,3.0333,2.9967,2.9513,2.8885,2.8617,2.8337,2.8058,2.8031,2.8031,2.8031,2.8058,2.8058,2.8072,2.831,2.8591,2.8788,2.8855,2.8895,2.8935,2.9245,2.9539,2.9775,3.0007,2.9972,2.9606,2.9686,2.994,3.0253,3.0421,3.0501,3.0461,3.0354,3.0319,3.0279,3.006,2.9913,2.9913,2.9953,2.9913,2.9927,2.9913,2.9913,2.9913,2.9913,2.9913,2.9913,2.9913,2.9913,2.9913,2.9913,2.9913,2.9913,2.9913,2.9913,2.9913,2.9913,2.9913,2.9913,2.9913,2.9913,2.9913,2.9913,2.9913,2.9913,2.9913,2.9913,2.9927,3.002,3.0167,3.0621,3.0902,3.1049,4.012,4.0094,3.9933,3.9626,3.9225,3.8918,3.8624,3.8344,3.8157,3.7983,3.7769,3.7301,3.6914,3.6553,3.6099,3.5819,3.5698,3.5591,3.5485,3.5338,3.5177,3.5044,3.507,3.4723,3.4589,3.4563,3.4416,3.4322,3.4295,3.4202,3.4068,3.3961,3.3948,3.3948,3.3921,3.3654,3.3521,3.3494,3.3102,3.2581,3.201,3.1561,3.1263,3.1149,3.0688,3.0247,2.986,2.97,2.9499,2.9262,2.9192,2.9192,2.9179,2.9032,2.8981,2.8981,2.9088,2.9179,2.9299,2.9619,2.982,2.982,3.0087,3.0314,3.0421,3.0555,3.0568,3.0541,3.0474,3.0488,3.0667,3.0728,3.0795,3.0782,3.0734,3.0621,3.0608,3.0515,3.0381,3.0221,3.0181,3.01,2.9953,2.9913,2.9913,2.9913,2.9913,2.9913,2.9913,2.9913,2.9913,2.9913,2.9913,2.9913,2.9913,2.9913,2.9913,2.9913,2.9913,2.9913,2.9913,2.9913,2.9913,2.9913,2.9913,2.9913,2.9913,2.9913,2.9913,2.9967,3.0287,3.0528,3.0755,3.0929,3.1036,4.0481,4.0428,4.0161,3.9847,3.9693,3.9353,3.91,3.8958,3.8718,3.8464,3.8183,3.8103,3.7782,3.7261,3.6687,3.6393,3.6313,3.6233,3.6139,3.6059,3.5845,3.5738,3.5698,3.5338,3.5176,3.5136,3.4923,3.4736,3.4524,3.4262,3.4144,3.4078,3.391,3.3807,3.3833,3.3635,3.3543,3.349,3.3029,3.2579,3.2175,3.1806,3.1552,3.1447,3.114,3.0836,3.0544,3.0589,3.0461,3.0167,3.0154,3.0154,3.014,2.9953,2.9847,2.9847,2.9833,2.9891,2.9847,3.0293,3.052,3.0547,3.0808,3.1036,3.1062,3.1183,3.1356,3.153,3.1396,3.1296,3.1049,3.1036,3.1036,3.1036,3.0982,3.0915,3.0902,3.0862,3.0688,3.0515,3.052,3.0413,3.01,2.998,2.9913,2.9913,2.9913,2.9913,2.9913,2.9913,2.9913,2.9913,2.9913,2.9913,2.9913,2.9913,2.9913,2.9913,2.9913,2.9913,2.9913,2.9913,2.9913,2.9913,2.9913,2.9913,2.9913,2.9913,2.9993,3.01,3.0381,3.0755,3.0915,3.1049,3.0996,4.0481,4.0441,4.0161,3.998,3.9927,3.9706,3.9573,3.9519,3.9506,3.9346,3.898,3.8798,3.8504,3.8227,3.7609,3.7168,3.6832,3.6647,3.6406,3.6193,3.6112,3.6126,3.6113,3.6073,3.6006,3.5939,3.5805,3.5565,3.5058,3.4321,3.3759,3.355,3.3084,3.2722,3.2722,3.2709,3.2658,3.2608,3.2328,3.2175,3.2073,3.1628,3.1221,3.0918,3.1134,3.1112,3.0898,3.1061,3.1016,3.0782,3.0703,3.0736,3.0722,3.0696,3.0669,3.0688,3.0715,3.0728,3.0715,3.0808,3.0849,3.0889,3.139,3.1684,3.1711,3.2086,3.2353,3.2487,3.2393,3.2193,3.1764,3.1644,3.1644,3.1583,3.1356,3.1223,3.1209,3.1009,3.0822,3.0768,3.0742,3.0621,3.0413,3.0087,3.0007,2.998,2.9953,2.9967,3.0007,2.9967,2.998,2.998,2.998,2.9927,2.9927,2.9913,2.9913,2.9913,2.9913,2.9913,2.9913,2.9913,2.9913,2.994,2.9967,2.998,2.9927,2.9993,3.014,3.0261,3.0408,3.0688,3.1036,3.0915,3.0889,4.0642,4.0468,4.0361,4.0308,4.0281,4.0,3.9867,3.9807,3.968,3.9546,3.9439,3.9332,3.9212,3.9092,3.8704,3.8086,3.7515,3.7382,3.7275,3.7168,3.6994,3.6914,3.6874,3.654,3.6353,3.6272,3.5773,3.521,3.465,3.4293,3.3936,3.3485,3.3246,3.2837,3.2332,3.2107,3.1948,3.1764,3.1506,3.1216,3.0905,3.066,3.029,2.9748,3.0565,3.0984,3.093,3.0973,3.0966,3.0863,3.0863,3.0863,3.0824,3.0562,3.034,3.0319,3.0642,3.1027,3.1349,3.1751,3.1965,3.1979,3.2139,3.2273,3.2313,3.2474,3.2594,3.2594,3.2594,3.246,3.2326,3.2064,3.1944,3.1904,3.169,3.1503,3.1503,3.1457,3.1289,3.1102,3.0929,3.0742,3.0662,3.0541,3.0474,3.0474,3.0474,3.0461,3.0474,3.0474,3.0448,3.0474,3.0474,3.0474,3.0474,3.0114,2.9913,2.9913,2.9913,2.994,2.994,2.9993,3.0007,3.0074,3.0087,3.0194,3.0207,3.0341,3.0448,3.0568,3.0702,3.0862,3.1136,3.1129,3.1089,4.0882,4.0628,4.0615,4.0561,4.0454,4.0254,4.0174,4.0147,3.996,3.9827,3.976,3.9746,3.9693,3.9573,3.9327,3.8998,3.8384,3.8103,3.7916,3.7796,3.7609,3.7529,3.7462,3.6892,3.6608,3.6445,3.5533,3.4748,3.4263,3.3791,3.32,3.2567,3.2361,3.1883,3.1192,3.0921,3.0746,3.0549,3.0258,2.9832,2.9557,2.9345,2.904,2.8657,2.9366,2.9967,3.0243,3.0416,3.0465,3.0403,3.039,3.0476,3.0586,3.0284,3.0159,3.0329,3.0873,3.1321,3.1696,3.227,3.2581,3.2594,3.2688,3.2741,3.2741,3.2822,3.2826,3.2875,3.2875,3.2875,3.2822,3.2559,3.2345,3.2238,3.1984,3.1858,3.1858,3.1717,3.1631,3.1383,3.1129,3.0969,3.0915,3.0835,3.0782,3.0795,3.0795,3.0795,3.0795,3.0795,3.0795,3.0795,3.0755,3.0742,3.0715,3.0448,3.0327,3.0314,3.0234,3.0181,3.0127,3.0154,3.0167,3.0221,3.0314,3.0434,3.0568,3.0688,3.0808,3.0915,3.0996,3.1116,3.1289,3.1383,3.1316,4.1101,4.0922,4.0909,4.0735,4.0521,4.0515,4.0468,4.0441,4.0428,4.0254,4.0054,4.0027,3.9907,3.9693,3.964,3.9573,3.9359,3.8704,3.8237,3.801,3.7916,3.7846,3.7776,3.7172,3.6697,3.6513,3.5233,3.435,3.3924,3.2658,3.1612,3.0762,3.0298,2.9744,2.9005,2.8939,2.8973,2.8767,2.8435,2.8253,2.8199,2.7739,2.7451,2.7397,2.748,2.7873,2.872,2.9276,2.9469,2.9315,2.9255,2.9553,2.9824,2.9861,3.0193,3.067,3.1284,3.1604,3.1787,3.2279,3.259,3.2714,3.2839,3.2986,3.3013,3.3187,3.332,3.3307,3.332,3.336,3.3293,3.3093,3.2875,3.2621,3.2326,3.2104,3.2024,3.1837,3.1711,3.1657,3.1396,3.1236,3.1169,3.1049,3.0929,3.0915,3.0902,3.0915,3.0942,3.0942,3.0849,3.0849,3.0942,3.1022,3.0915,3.0808,3.0808,3.0795,3.0702,3.0621,3.0555,3.0555,3.0528,3.0568,3.0662,3.0795,3.0988,3.1049,3.1076,3.1183,3.1263,3.1343,3.145,3.153,3.1463,4.1221,4.1128,4.0989,4.0855,4.0748,4.0561,4.0481,4.0481,4.0481,4.0414,4.0348,4.0334,4.0281,4.0174,4.0,3.9893,3.9853,3.9399,3.9132,3.9012,3.8766,3.8485,3.8013,3.7454,3.6423,3.4987,3.3618,3.2677,3.2127,3.1304,3.0323,2.9354,2.9036,2.8196,2.7007,2.6931,2.6823,2.6509,2.6371,2.6302,2.6283,2.6018,2.5802,2.5654,2.5497,2.556,2.5702,2.7133,2.7887,2.7849,2.7704,2.7851,2.8168,2.8222,2.874,2.9737,3.0181,3.0962,3.1928,3.2382,3.2722,3.3047,3.3227,3.3267,3.328,3.3347,3.3414,3.3414,3.3414,3.3414,3.3387,3.3347,3.3146,3.2929,3.2634,3.2367,3.2131,3.1864,3.1751,3.1711,3.1583,3.1543,3.153,3.1457,3.1443,3.1396,3.1396,3.1396,3.1443,3.1396,3.1396,3.1396,3.1396,3.1356,3.133,3.1263,3.1223,3.1156,3.1049,3.0982,3.0942,3.0929,3.0902,3.0929,3.1022,3.1129,3.1276,3.1403,3.1417,3.147,3.1503,3.1583,3.1698,3.1671,3.1557,4.1603,4.1483,4.131,4.1163,4.1042,4.0762,4.0642,4.0615,4.0521,4.0481,4.0481,4.0481,4.0481,4.0441,4.0281,4.0201,4.0174,4.0,3.98,3.9555,3.9374,3.8965,3.8145,3.6895,3.5387,3.3537,3.1972,3.0926,3.0356,2.954,2.8566,2.763,2.727,2.6495,2.5277,2.4952,2.4676,2.4409,2.4359,2.4278,2.4133,2.3954,2.3794,2.366,2.3528,2.3376,2.3341,2.4359,2.5275,2.5857,2.5881,2.6057,2.6598,2.6705,2.7245,2.8527,2.9388,3.0199,3.1365,3.1943,3.241,3.2762,3.2963,3.3113,3.3113,3.3213,3.3414,3.3414,3.3414,3.3414,3.3414,3.3414,3.332,3.3173,3.2929,3.2634,3.2305,3.2152,3.2072,3.2072,3.2059,3.2045,3.2045,3.2045,3.2045,3.2045,3.2045,3.2045,3.2045,3.2045,3.2032,3.1931,3.1851,3.1824,3.181,3.1744,3.1698,3.1564,3.1356,3.1303,3.1263,3.1263,3.1249,3.1276,3.1356,3.1383,3.1517,3.1604,3.1631,3.1711,3.1724,3.1724,3.1724,3.1724,3.1671,4.2084,4.1844,4.179,4.1603,4.1274,4.1056,4.0909,4.0855,4.0642,4.0508,4.0481,4.0481,4.0481,4.0481,4.0441,4.0428,4.0394,4.0293,3.989,3.9469,3.9261,3.882,3.7857,3.5609,3.3794,3.2294,3.0474,2.933,2.8662,2.7585,2.6417,2.5626,2.5076,2.439,2.3784,2.3126,2.282,2.275,2.2545,2.2342,2.218,2.1937,2.1824,2.1791,2.1733,2.162,2.1665,2.1622,2.2221,2.3674,2.3883,2.4251,2.5058,2.5251,2.5954,2.7418,2.8626,2.9405,3.0177,3.1088,3.1706,3.187,3.2259,3.2561,3.2611,3.2862,3.3113,3.3113,3.3163,3.3213,3.3163,3.3163,3.32,3.3324,3.3057,3.2875,3.2674,3.2581,3.2487,3.2514,3.2581,3.2581,3.2514,3.2514,3.2514,3.2514,3.25,3.2474,3.2474,3.2433,3.2541,3.2447,3.2211,3.2171,3.2166,3.1917,3.1837,3.177,3.161,3.1517,3.149,3.149,3.1503,3.1604,3.1617,3.1684,3.1664,3.1711,3.1724,3.1724,3.1724,3.1724,3.1724,3.1724,3.1724,4.2499,4.2455,4.1964,4.1737,4.163,4.135,4.1109,4.0922,4.0842,4.0695,4.0535,4.0481,4.0495,4.0481,4.0481,4.0225,3.9861,3.9739,3.9374,3.874,3.8199,3.7435,3.6127,3.3877,3.2163,3.1069,2.9237,2.7788,2.6703,2.5868,2.4886,2.3703,2.3472,2.2953,2.2188,2.1886,2.1673,2.1536,2.1475,2.1353,2.1127,2.096,2.0816,2.0694,2.0591,2.0507,2.0484,2.0294,2.0631,2.1585,2.2034,2.2522,2.3246,2.387,2.4748,2.5923,2.6974,2.8013,2.8982,3.0011,3.072,3.1214,3.1567,3.2008,3.2021,3.2109,3.2209,3.2209,3.2209,3.2209,3.2209,3.2259,3.241,3.2773,3.2875,3.2923,3.2915,3.2728,3.2594,3.2594,3.2621,3.2634,3.2648,3.2648,3.2648,3.2648,3.2648,3.2648,3.2701,3.2701,3.2741,3.2634,3.25,3.2487,3.2407,3.2144,3.2011,3.1971,3.1824,3.165,3.1623,3.1657,3.1671,3.1698,3.1671,3.1711,3.1711,3.1724,3.1724,3.1724,3.1724,3.1724,3.1724,3.1724,3.1724,4.2779,4.2696,4.2298,4.2084,4.1937,4.1657,4.143,4.1269,4.1136,4.1016,4.0781,4.039,4.0228,4.0215,3.9866,3.9496,3.907,3.8813,3.8277,3.747,3.6097,3.5196,3.4316,3.2428,3.0782,2.9526,2.7498,2.6027,2.5096,2.4241,2.3315,2.2658,2.2234,2.1822,2.1427,2.0901,2.0629,2.0493,2.0414,2.0293,2.0135,2.0042,1.992,1.977,1.9612,1.9484,1.934,1.9232,1.9478,2.0171,2.0579,2.0962,2.1528,2.2176,2.3077,2.4165,2.5358,2.6494,2.7415,2.8459,2.9283,2.986,3.0425,3.071,3.0904,3.1059,3.1249,3.1113,3.1113,3.1264,3.1466,3.1668,3.192,3.2196,3.2418,3.2662,3.306,3.3026,3.2969,3.2906,3.2906,3.2906,3.2906,3.2893,3.2906,3.2969,3.3009,3.3009,3.2959,3.2906,3.2879,3.2777,3.2746,3.2781,3.2701,3.2452,3.2265,3.2211,3.2179,3.1979,3.1845,3.1805,3.1778,3.1778,3.1751,3.1751,3.1791,3.1791,3.1724,3.1724,3.1724,3.1751,3.1764,3.1845,3.1831,4.2993,4.2752,4.275,4.2512,4.2245,4.1951,4.179,4.1724,4.1372,4.1164,4.0947,4.0242,3.9781,3.968,3.8909,3.8401,3.8144,3.7372,3.6477,3.531,3.3706,3.2611,3.2145,3.1071,2.9449,2.7907,2.5463,2.4338,2.3643,2.254,2.202,2.1731,2.1267,2.1052,2.0871,2.0326,1.9895,1.9888,1.9811,1.9667,1.953,1.9461,1.9358,1.9214,1.907,1.8871,1.8601,1.8416,1.8636,1.9416,1.9396,1.9689,2.014,2.0485,2.1309,2.2459,2.3859,2.4985,2.5701,2.6661,2.7491,2.8099,2.8633,2.9121,2.9422,2.9742,2.9892,2.9726,2.9846,2.9936,3.0404,3.0999,3.1252,3.1353,3.1491,3.2109,3.2812,3.3163,3.3263,3.32,3.32,3.32,3.3213,3.3213,3.3187,3.2576,3.2715,3.2652,3.2752,3.2838,3.2914,3.2991,3.2997,3.3076,3.2969,3.2835,3.2661,3.2527,3.2487,3.2326,3.2086,3.1992,3.1912,3.1898,3.2032,3.2045,3.1979,3.1925,3.1872,3.1912,3.2045,3.1952,3.1872,3.2019,3.2059,4.3394,4.33,4.2846,4.2632,4.2525,4.2245,4.1991,4.1728,4.116,4.0779,4.0396,3.972,3.9134,3.8611,3.8052,3.7483,3.636,3.5477,3.4077,3.1909,3.1474,2.972,2.8846,2.8543,2.7951,2.6269,2.5085,2.3685,2.2457,2.1924,2.1385,2.0859,2.0762,2.047,2.0442,2.0257,2.0044,1.9983,1.9854,1.9698,1.9549,1.944,1.9318,1.9162,1.902,1.8857,1.8681,1.8518,1.8482,1.8593,1.876,1.8935,1.9221,1.9852,2.058,2.1359,2.2323,2.3311,2.394,2.4914,2.5784,2.6406,2.6944,2.7449,2.7867,2.789,2.7884,2.7825,2.7704,2.7849,2.8359,2.892,2.9428,2.9784,3.0189,3.0544,3.0949,3.1605,3.2109,3.2159,3.2159,3.2159,3.2172,3.2109,3.2159,3.2159,3.2159,3.2159,3.231,3.2511,3.2662,3.2712,3.2847,3.2815,3.2749,3.2693,3.261,3.2602,3.2598,3.2706,3.2465,3.238,3.2353,3.238,3.2433,3.238,3.2219,3.23,3.23,3.234,3.2353,3.2286,3.2246,3.23,3.2286,4.3465,4.3031,4.2608,4.2151,4.1723,4.1385,4.1176,4.0996,4.0667,4.0211,3.9666,3.8924,3.8032,3.7063,3.6437,3.5511,3.4403,3.3197,3.1464,2.9533,2.8846,2.7594,2.6096,2.5907,2.5592,2.4521,2.3637,2.2506,2.1809,2.1238,2.0907,2.0539,2.0458,2.0431,2.041,2.0282,2.0214,2.0173,2.0058,1.9908,1.9766,1.9685,1.9515,1.9325,1.9169,1.902,1.8871,1.8721,1.8572,1.8466,1.8487,1.8489,1.8517,1.91,1.9623,2.003,2.101,2.1803,2.2497,2.3242,2.4121,2.4908,2.5283,2.5652,2.5925,2.5945,2.5762,2.5641,2.552,2.5584,2.6138,2.702,2.7531,2.7849,2.8359,2.8654,2.8908,3.0037,3.105,3.105,3.105,3.105,3.105,3.0898,3.0949,3.0936,3.0999,3.0999,3.1466,3.1718,3.1958,3.2109,3.241,3.2472,3.2459,3.2431,3.244,3.2474,3.2597,3.2832,3.2937,3.2906,3.2888,3.2808,3.2674,3.2581,3.2474,3.2581,3.2634,3.2541,3.2527,3.2567,3.2581,3.2527,3.25,4.3296,4.2325,4.1948,4.1275,4.0504,4.0072,3.9856,3.9856,3.9678,3.899,3.8595,3.7636,3.6205,3.5139,3.4291,3.328,3.1807,3.0642,2.8846,2.7029,2.6473,2.5403,2.4276,2.3708,2.3392,2.3075,2.2316,2.1618,2.1301,2.0857,2.0603,2.0539,2.0539,2.0519,2.0499,2.0431,2.0363,2.0336,2.0214,2.0092,1.9956,1.9888,1.9705,1.9495,1.9318,1.9196,1.9061,1.8905,1.8735,1.8599,1.8443,1.8294,1.8278,1.842,1.8745,1.88,1.9868,2.0545,2.1045,2.1672,2.2328,2.341,2.3447,2.3647,2.3908,2.3884,2.369,2.3521,2.3388,2.3522,2.4029,2.4905,2.5532,2.5789,2.6149,2.6365,2.6713,2.8144,2.8756,2.9581,2.9417,2.9366,2.9428,2.9428,2.9569,2.9721,2.9733,2.9834,3.0252,3.0657,3.0746,3.1151,3.1353,3.1504,3.1529,3.1781,3.1805,3.1943,3.2169,3.252,3.287,3.2941,3.2795,3.2919,3.2835,3.2781,3.2795,3.2902,3.2826,3.2728,3.2781,3.2915,3.2875,3.2741,3.2755,4.2922,4.1884,4.0785,4.0221,3.9901,3.8928,3.8336,3.826,3.7235,3.6721,3.6388,3.5185,3.3862,3.2722,3.2224,3.0555,2.8521,2.7524,2.6339,2.4773,2.4213,2.3518,2.2569,2.2189,2.1745,2.1301,2.1238,2.1238,2.0857,2.0539,2.0539,2.0539,2.0539,2.0539,2.0469,2.0449,2.0485,2.0465,2.0293,2.0261,2.018,1.9997,1.982,1.963,1.9481,1.9386,1.9298,1.9101,1.8938,1.8891,1.864,1.8454,1.843,1.8428,1.8579,1.8859,1.911,1.9574,2.0039,2.0103,2.0411,2.089,2.129,2.1502,2.1786,2.1808,2.1714,2.1565,2.1575,2.1743,2.234,2.3017,2.355,2.3851,2.4067,2.4171,2.4274,2.4709,2.5635,2.6713,2.7071,2.7429,2.7429,2.7429,2.7429,2.7429,2.748,2.7685,2.8093,2.8654,2.9123,2.9631,3.0189,3.0341,3.0431,3.0797,3.0974,3.1063,3.1315,3.1718,3.2083,3.2498,3.2644,3.2772,3.3007,3.316,3.3187,3.3173,3.3146,3.3066,3.3146,3.3227,3.3133,3.3026,3.312,4.164,4.0621,3.908,3.8144,3.7657,3.6489,3.6002,3.5809,3.4918,3.4272,3.3744,3.2837,3.1603,3.0467,2.9814,2.8045,2.6023,2.5141,2.4284,2.3202,2.2696,2.2316,2.1492,2.1238,2.0857,2.0673,2.0857,2.092,2.0539,2.0539,2.0539,2.0539,2.0539,2.0539,2.0539,2.0469,2.0539,2.0519,2.0408,2.0334,2.0259,2.0092,1.9929,1.9786,1.9691,1.959,1.9413,1.9325,1.9135,1.8993,1.885,1.8742,1.866,1.8636,1.8621,1.8669,1.8663,1.8853,1.9286,1.9432,1.9696,2.0155,2.0195,2.026,2.038,2.0342,2.0124,2.0007,1.9967,2.0173,2.0507,2.1055,2.138,2.167,2.1925,2.2021,2.1995,2.1986,2.2739,2.387,2.4532,2.4945,2.5172,2.5172,2.5172,2.5182,2.5172,2.5532,2.5995,2.6559,2.7174,2.7685,2.8195,2.8348,2.8603,2.9072,2.9479,2.9733,3.0252,3.0696,3.1201,3.1554,3.2209,3.2696,3.3,3.3263,3.3387,3.3293,3.3374,3.3414,3.336,3.3334,3.3374,3.34,3.3414,4.0015,3.8889,3.6894,3.5702,3.4967,3.3751,3.3161,3.3031,3.2458,3.1743,3.1027,3.03,2.9255,2.806,2.6974,2.5607,2.3703,2.3325,2.283,2.2189,2.1682,2.1365,2.1174,2.0857,2.0539,2.0539,2.0539,2.0539,2.0539,2.0539,2.0539,2.0539,2.0539,2.0539,2.0539,2.0539,2.0539,2.0539,2.0532,2.0465,2.0329,2.0207,2.0071,1.9922,1.9895,1.9746,1.9576,1.944,1.9305,1.9156,1.9047,1.8972,1.8929,1.8909,1.8742,1.8538,1.8423,1.8639,1.8817,1.8973,1.9128,1.9427,1.9551,1.9463,1.9291,1.9137,1.9009,1.8845,1.8972,1.9003,1.9249,1.9501,1.9761,1.9899,2.017,2.0258,2.034,2.0345,2.0349,2.1262,2.2039,2.2515,2.2861,2.2962,2.2962,2.3056,2.3108,2.3625,2.4038,2.4554,2.5121,2.5584,2.5943,2.6149,2.6508,2.702,2.7429,2.7736,2.8563,2.9327,2.9936,3.0544,3.1302,3.2058,3.2812,3.3063,3.3213,3.3364,3.3414,3.3414,3.3414,3.3414,3.3414,3.3414,3.3414,3.8008,3.668,3.4176,3.3049,3.2723,3.1138,3.0365,3.03,2.9657,2.8938,2.8274,2.7496,2.6503,2.5312,2.429,2.3168,2.2332,2.1973,2.1618,2.1047,2.0857,2.073,2.0666,2.0603,2.0539,2.0539,2.0539,2.0539,2.0539,2.0539,2.0539,2.0539,2.0539,2.0539,2.0539,2.0539,2.0539,2.0539,2.0539,2.0408,2.03,2.0253,2.0214,2.0085,1.9956,1.9854,1.9746,1.9583,1.9406,1.9359,1.9237,1.9169,1.9149,1.9149,1.9142,1.8993,1.8762,1.8457,1.8503,1.8546,1.8575,1.8733,1.8586,1.8328,1.8378,1.8205,1.8039,1.7793,1.8171,1.8384,1.8553,1.8901,1.9102,1.9163,1.9209,1.9279,1.9256,1.9166,1.9129,1.9197,2.0107,2.0357,2.0591,2.063,2.0737,2.0893,2.1093,2.1665,2.208,2.259,2.3108,2.3573,2.378,2.3987,2.44,2.4915,2.544,2.5789,2.6775,2.7798,2.8512,2.9225,3.0354,3.1151,3.2008,3.2812,3.3113,3.3263,3.3364,3.3414,3.3414,3.3414,3.3414,3.3414,3.3414,3.4159,3.4437,3.1909,3.08,3.0543,2.8839,2.8086,2.7824,2.6905,2.624,2.5911,2.5269,2.4299,2.3374,2.271,2.2083,2.1341,2.1053,2.0857,2.0603,2.0539,2.0539,2.0539,2.0539,2.0539,2.0539,2.0539,2.0539,2.0539,2.0539,2.0539,2.0539,2.0539,2.0539,2.0539,2.0539,2.0539,2.0539,2.0532,2.0512,2.0465,2.0374,2.0313,2.0234,2.0078,1.9976,1.9847,1.9691,1.9515,1.9454,1.9352,1.9284,1.9223,1.9196,1.9196,1.9183,1.9033,1.8857,1.8728,1.862,1.8531,1.845,1.8362,1.8337,1.8111,1.7914,1.7779,1.7765,1.793,1.8046,1.8093,1.8271,1.838,1.8421,1.8506,1.8423,1.834,1.814,1.8091,1.8112,1.8234,1.8723,1.9152,1.9401,1.9559,1.9678,1.972,1.9963,2.0268,2.046,2.1033,2.1561,2.1717,2.1821,2.234,2.291,2.3498,2.4006,2.4986,2.5964,2.6928,2.7838,2.9107,3.0378,3.1416,3.2172,3.2825,3.3213,3.3364,3.3414,3.3414,3.3414,3.3414,3.3414,3.3414,3.0033,3.1103,2.9344,2.8513,2.8166,2.6579,2.5927,2.5796,2.4931,2.4272,2.3883,2.3347,2.2659,2.2086,2.1887,2.1409,2.0766,2.0594,2.0553,2.0539,2.0539,2.0539,2.0539,2.0539,2.0539,2.0539,2.0539,2.0539,2.0539,2.0539,2.0539,2.0539,2.0539,2.0539,2.0539,2.0539,2.0539,2.0539,2.0539,2.0532,2.0526,2.0526,2.0408,2.037,2.0234,2.0085,1.9936,1.9793,1.9644,1.9529,1.9495,1.944,1.9373,1.9366,1.9366,1.9345,1.9264,1.9183,1.9047,1.8918,1.8776,1.8667,1.8531,1.8396,1.8199,1.803,1.7941,1.7928,1.797,1.7949,1.7929,1.7957,1.7991,1.8005,1.7916,1.7779,1.7684,1.7772,1.7854,1.7943,1.795,1.7806,1.8197,1.8406,1.8487,1.8521,1.8472,1.8498,1.8731,1.9097,1.9448,2.0144,2.0252,2.0365,2.0627,2.1134,2.1647,2.2368,2.3295,2.4303,2.5274,2.6655,2.8108,2.9405,3.0768,3.1972,3.2889,3.3174,3.3414,3.3414,3.3414,3.3414,3.3414,3.3427,3.344,2.5894,2.5984,2.6332,2.6028,2.5274,2.4231,2.3891,2.3949,2.3759,2.3222,2.2693,2.1944,2.1528,2.1199,2.1168,2.0953,2.0566,2.0483,2.0476,2.0539,2.0539,2.0539,2.0539,2.0539,2.0539,2.0539,2.0539,2.0539,2.0539,2.0539,2.0539,2.0539,2.0539,2.0539,2.0539,2.0539,2.0539,2.0539,2.0539,2.0539,2.0539,2.0539,2.0462,2.0428,2.0313,2.0241,2.0092,1.9922,1.9786,1.9644,1.9617,1.961,1.9616,1.9616,1.9609,1.9596,1.9468,1.94,1.9325,1.9128,1.8986,1.8877,1.8701,1.8413,1.8321,1.8294,1.8219,1.8097,1.8077,1.8023,1.7997,1.7922,1.7956,1.7936,1.7853,1.7812,1.7792,1.7854,1.7889,1.7874,1.7799,1.7738,1.7711,1.8085,1.8028,1.8065,1.8085,1.8063,1.8255,1.855,1.8565,1.8896,1.8993,1.9084,1.922,1.9689,2.034,2.1055,2.1925,2.2832,2.379,2.5302,2.7044,2.863,3.0058,3.1516,3.2789,3.2941,3.3112,3.328,3.3454,3.3614,3.3654,3.3668,3.3614,2.4495,2.3916,2.409,2.4186,2.4177,2.3296,2.2899,2.2833,2.2436,2.2104,2.1832,2.1472,2.119,2.1021,2.0878,2.075,2.0496,2.0539,2.0539,2.0539,2.0539,2.0539,2.0539,2.0539,2.0539,2.0539,2.0539,2.0539,2.0539,2.0539,2.0539,2.0539,2.0539,2.0539,2.0539,2.0539,2.0539,2.0539,2.0539,2.0539,2.0539,2.0539,2.0539,2.0462,2.034,2.0315,2.0214,1.9997,1.9875,1.9793,1.9719,1.9759,1.9759,1.9752,1.9752,1.9745,1.961,1.9583,1.9522,1.9298,1.9094,1.8938,1.8721,1.8518,1.8464,1.8389,1.8314,1.8247,1.8233,1.8179,1.8165,1.8063,1.8009,1.7982,1.7948,1.7963,1.7963,1.7983,1.7956,1.7901,1.7929,1.7888,1.7874,1.7861,1.7745,1.7636,1.7655,1.7685,1.7875,1.7985,1.807,1.8084,1.8231,1.8388,1.8516,1.8813,1.9118,1.9876,2.0636,2.1606,2.2687,2.4356,2.6094,2.7752,2.9249,3.0582,3.1662,3.2429,3.2903,3.3296,3.3691,3.4015,3.4002,3.3908,3.3868,2.3221,2.2624,2.2511,2.2701,2.2977,2.2412,2.2171,2.2104,2.164,2.1375,2.1362,2.1279,2.1129,2.0987,2.0845,2.0695,2.0573,2.0539,2.0539,2.0539,2.0539,2.0539,2.0539,2.0539,2.0539,2.0539,2.0539,2.0539,2.0539,2.0539,2.0539,2.0539,2.0539,2.0539,2.0539,2.0539,2.0539,2.0539,2.0539,2.0539,2.0539,2.0539,2.0539,2.0532,2.0451,2.0307,2.0295,2.0139,2.0024,1.9942,1.9868,1.9813,1.98,1.9793,1.9786,1.978,1.9752,1.9786,1.9711,1.9454,1.921,1.9067,1.8918,1.8755,1.8654,1.8565,1.8552,1.8389,1.8382,1.8375,1.8355,1.8213,1.8158,1.8145,1.8111,1.8084,1.807,1.8077,1.8016,1.7975,1.7948,1.799,1.7922,1.7853,1.7779,1.7622,1.7623,1.7608,1.7573,1.7652,1.7613,1.7586,1.7648,1.7838,1.8028,1.8307,1.8629,1.9075,1.9892,2.0704,2.19,2.3507,2.4992,2.6498,2.8001,2.9511,3.0586,3.1437,3.2474,3.342,3.373,3.3922,3.4215,3.4135,3.4189,2.2004,2.1753,2.1732,2.1651,2.1595,2.1441,2.1435,2.1508,2.1441,2.1362,2.1328,2.1258,2.1109,2.0967,2.0804,2.0661,2.0566,2.0539,2.0539,2.0539,2.0539,2.0539,2.0539,2.0539,2.0539,2.0539,2.0539,2.0539,2.0539,2.0539,2.0539,2.0539,2.0539,2.0539,2.0539,2.0539,2.0539,2.0539,2.0539,2.0539,2.0539,2.0539,2.0539,2.0532,2.0519,2.0381,2.037,2.0226,2.018,2.0098,2.0044,2.001,2.0017,2.0024,2.0031,2.0031,1.9929,1.9875,1.9841,1.9576,1.9386,1.9223,1.9088,1.9033,1.8986,1.8932,1.8843,1.866,1.8579,1.844,1.8352,1.8271,1.8321,1.8294,1.8267,1.8219,1.8206,1.8199,1.8138,1.8104,1.8077,1.8043,1.7948,1.7874,1.7826,1.7758,1.7622,1.7541,1.7514,1.75,1.7534,1.7555,1.7602,1.767,1.7929,1.7923,1.8163,1.8511,1.9147,2.0031,2.1035,2.2462,2.3888,2.5312,2.6745,2.823,2.9419,3.0495,3.1399,3.2219,3.3252,3.3667,3.4015,3.4351,3.4354,2.176,2.1665,2.1564,2.1489,2.1375,2.1375,2.1375,2.1375,2.1368,2.1387,2.1272,2.1136,2.0987,2.0838,2.0709,2.0594,2.0553,2.0539,2.0539,2.0539,2.0539,2.0539,2.0539,2.0539,2.0539,2.0539,2.0539,2.0539,2.0539,2.0539,2.0539,2.0539,2.0539,2.0539,2.0539,2.0539,2.0539,2.0539,2.0539,2.0539,2.0539,2.0539,2.0539,2.0539,2.0539,2.0505,2.0451,2.0327,2.0309,2.0241,2.0193,2.0139,2.0132,2.0132,2.0126,2.0112,2.0031,1.9976,1.9908,1.9739,1.961,1.9434,1.9278,1.9217,1.9135,1.9135,1.9054,1.8972,1.885,1.8789,1.8782,1.8559,1.8427,1.8437,1.8389,1.8314,1.8287,1.8287,1.8267,1.8253,1.8233,1.8219,1.8152,1.8077,1.8016,1.7968,1.7907,1.7833,1.7758,1.7745,1.7758,1.7758,1.7779,1.7785,1.7819,1.7902,1.7915,1.817,1.8753,1.9426,2.0506,2.1548,2.2761,2.4135,2.5501,2.687,2.7853,2.8867,2.9895,3.0876,3.1855,3.3091,3.385,3.4216,3.4478,2.1638,2.1584,2.1416,2.1375,2.1375,2.1375,2.1375,2.1362,2.1387,2.1233,2.119,2.1014,2.0872,2.075,2.0621,2.0539,2.0539,2.0539,2.0539,2.0539,2.0539,2.0539,2.0539,2.0539,2.0539,2.0539,2.0539,2.0539,2.0539,2.0539,2.0539,2.0539,2.0539,2.0539,2.0539,2.0539,2.0539,2.0539,2.0539,2.0539,2.0539,2.0539,2.0539,2.0539,2.0539,2.0532,2.0512,2.0465,2.0397,2.0363,2.0315,2.0248,2.0248,2.0248,2.0254,2.0254,2.0193,2.0112,1.9997,1.9956,1.9834,1.9712,1.9481,1.9345,1.9298,1.9284,1.9237,1.9169,1.9122,1.9081,1.9013,1.8776,1.8728,1.8681,1.8626,1.8559,1.8477,1.8491,1.8443,1.843,1.8396,1.8382,1.8348,1.8308,1.8233,1.8192,1.8145,1.8084,1.8009,1.7989,1.8017,1.7997,1.7928,1.7914,1.788,1.7908,1.7915,1.7915,1.8433,1.9069,1.9618,2.0607,2.1743,2.2808,2.4019,2.5109,2.6132,2.7087,2.8113,2.9178,3.03,3.1698,3.3379,3.3935,3.4173,2.157,2.1382,2.1368,2.1421,2.1362,2.1335,2.1341,2.1348,2.1272,2.1197,2.1163,2.0885,2.077,2.0729,2.06,2.0483,2.0539,2.0539,2.0539,2.0539,2.0539,2.0539,2.0539,2.0539,2.0539,2.0539,2.0539,2.0539,2.0539,2.0539,2.0539,2.0539,2.0539,2.0539,2.0539,2.0539,2.0539,2.0539,2.0539,2.0539,2.0539,2.0539,2.0539,2.0539,2.0539,2.0539,2.0532,2.0512,2.0512,2.0512,2.0512,2.0512,2.0526,2.0532,2.0539,2.0499,2.0327,2.0261,2.0139,2.0112,2.0071,1.9956,1.98,1.9624,1.9529,1.9501,1.9447,1.9359,1.9278,1.9244,1.9169,1.9122,1.9067,1.9013,1.8966,1.8877,1.8769,1.8715,1.866,1.8613,1.8559,1.8518,1.845,1.8409,1.8437,1.8423,1.8389,1.8375,1.8301,1.8213,1.8172,1.8097,1.8077,1.8036,1.7996,1.8038,1.8044,1.8036,1.8274,1.883,1.9264,1.9699,2.0645,2.1657,2.2392,2.3426,2.4559,2.5471,2.633,2.7407,2.8511,3.0304,3.191,3.3039,3.3506,2.1482,2.1362,2.1319,2.1279,2.1265,2.117,2.1184,2.1252,2.1123,2.1007,2.0892,2.0811,2.0709,2.0607,2.056,2.0546,2.0539,2.0539,2.0539,2.0539,2.0539,2.0539,2.0539,2.0539,2.0539,2.0539,2.0539,2.0539,2.0539,2.0539,2.0539,2.0539,2.0539,2.0539,2.0539,2.0539,2.0539,2.0539,2.0539,2.0539,2.0539,2.0539,2.0539,2.0539,2.0539,2.0539,2.0539,2.0539,2.0539,2.0539,2.0539,2.0539,2.0539,2.0539,2.0539,2.0539,2.0415,2.0354,2.0295,2.0261,2.0234,2.0153,2.0024,1.9997,1.9895,1.98,1.9712,1.959,1.9461,1.9413,1.9352,1.9305,1.925,1.9183,1.9135,1.9067,1.8972,1.8905,1.8843,1.8749,1.8694,1.866,1.8586,1.8586,1.8606,1.8626,1.862,1.8599,1.8559,1.8457,1.8355,1.8274,1.8233,1.8199,1.8199,1.8192,1.8199,1.8255,1.8432,1.858,1.8986,1.9442,1.9848,2.0497,2.1327,2.2202,2.3169,2.395,2.4569,2.5546,2.6654,2.8628,3.0336,3.1449,3.2552,2.1346,2.1326,2.119,2.1129,2.1102,2.0973,2.0967,2.1014,2.0946,2.0851,2.077,2.0702,2.0627,2.056,2.0546,2.0539,2.0539,2.0539,2.0539,2.0539,2.0539,2.0539,2.0539,2.0539,2.0539,2.0539,2.0539,2.0539,2.0539,2.0539,2.0539,2.0539,2.0539,2.0539,2.0539,2.0539,2.0539,2.0539,2.0539,2.0539,2.0539,2.0539,2.0539,2.0539,2.0539,2.0539,2.0539,2.0539,2.0539,2.0539,2.0539,2.0539,2.0539,2.0539,2.0539,2.0539,2.0462,2.0428,2.0424,2.041,2.0356,2.0302,2.0261,2.0275,2.0187,2.0078,1.9949,1.9813,1.9691,1.959,1.9515,1.9447,1.9373,1.9298,1.9264,1.9223,1.9156,1.9088,1.8993,1.8884,1.8895,1.8868,1.8841,1.8841,1.8813,1.8779,1.8766,1.8759,1.8738,1.862,1.8518,1.8423,1.8396,1.8375,1.8375,1.8355,1.8328,1.8301,1.8323,1.8542,1.8831,1.9001,1.9248,1.9692,2.0256,2.1148,2.1929,2.2249,2.2799,2.3799,2.4768,2.6175,2.8026,2.9832,3.0961,2.1197,2.1184,2.1041,2.0967,2.0939,2.0811,2.0756,2.0756,2.0756,2.075,2.0716,2.0607,2.0489,2.0539,2.0539,2.0539,2.0539,2.0539,2.0539,2.0539,2.0539,2.0539,2.0539,2.0539,2.0539,2.0539,2.0539,2.0539,2.0539,2.0539,2.0539,2.0539,2.0539,2.0539,2.0539,2.0539,2.0539,2.0539,2.0539,2.0539,2.0539,2.0539,2.0539,2.0539,2.0539,2.0539,2.0539,2.0539,2.0539,2.0539,2.0539,2.0539,2.0539,2.0539,2.0539,2.0539,2.0539,2.0526,2.0512,2.0505,2.0512,2.0505,2.0532,2.0485,2.0376,2.0248,2.0098,2.0017,1.9902,1.9773,1.9691,1.9644,1.9576,1.9495,1.9434,1.9359,1.9271,1.9196,1.9101,1.902,1.9,1.8966,1.899,1.8925,1.8938,1.8857,1.8902,1.8909,1.8888,1.8803,1.8694,1.8593,1.8559,1.8531,1.8491,1.8464,1.8423,1.8389,1.8396,1.8466,1.8706,1.8678,1.8617,1.917,1.9734,2.0005,2.0569,2.0983,2.1536,2.2221,2.31,2.3819,2.5507,2.7622,2.9218,2.1048,2.1041,2.0892,2.0763,2.0591,2.055,2.06,2.0594,2.06,2.06,2.0587,2.056,2.0539,2.0539,2.0539,2.0539,2.0539,2.0539,2.0539,2.0539,2.0539,2.0539,2.0539,2.0539,2.0539,2.0539,2.0539,2.0539,2.0539,2.0539,2.0539,2.0539,2.0539,2.0539,2.0539,2.0539,2.0539,2.0539,2.0539,2.0539,2.0539,2.0539,2.0539,2.0539,2.0539,2.0539,2.0539,2.0539,2.0539,2.0539,2.0539,2.0539,2.0539,2.0539,2.0539,2.0539,2.0539,2.0539,2.0539,2.0539,2.0539,2.0539,2.0539,2.0539,2.0478,2.0349,2.0254,2.0187,2.0098,1.9976,1.9868,1.9827,1.9773,1.9685,1.9603,1.9495,1.9393,1.9305,1.921,1.9176,1.9156,1.9122,1.9088,1.9074,1.9094,1.9101,1.9108,1.9101,1.9081,1.904,1.8905,1.8803,1.8735,1.8694,1.8654,1.8654,1.8654,1.8654,1.8674,1.8667,1.8654,1.8745,1.8844,1.896,1.9269,1.9587,1.9885,2.0145,2.0687,2.1201,2.17,2.2529,2.3356,2.5156,2.6855,2.0899,2.0878,2.0729,2.0621,2.0483,2.0539,2.0539,2.0539,2.0539,2.0539,2.0539,2.0539,2.0539,2.0539,2.0539,2.0539,2.0539,2.0539,2.0539,2.0539,2.0539,2.0539,2.0539,2.0539,2.0539,2.0539,2.0539,2.0539,2.0539,2.0539,2.0539,2.0539,2.0539,2.0539,2.0539,2.0539,2.0539,2.0539,2.0539,2.0539,2.0539,2.0539,2.0539,2.0539,2.0539,2.0539,2.0539,2.0539,2.0539,2.0539,2.0539,2.0539,2.0539,2.0539,2.0539,2.0539,2.0539,2.0539,2.0539,2.0539,2.0539,2.0539,2.0539,2.0539,2.0539,2.0424,2.0363,2.0302,2.0254,2.0139,2.0031,1.9969,1.9895,1.9807,1.9752,1.9678,1.959,1.9501,1.94,1.9318,1.9291,1.9244,1.9203,1.9142,1.9156,1.9162,1.9196,1.9223,1.9223,1.9264,1.9128,1.904,1.9045,1.8959,1.8959,1.8952,1.8952,1.8959,1.8925,1.8938,1.8938,1.9013,1.9088,1.9167,1.9181,1.9292,1.9577,1.9846,2.0041,2.0547,2.093,2.1329,2.2189,2.3022,2.4415,2.0743,2.0722,2.06,2.0476,2.0539,2.0539,2.0539,2.0539,2.0539,2.0539,2.0539,2.0539,2.0539,2.0539,2.0539,2.0539,2.0539,2.0539,2.0539,2.0539,2.0539,2.0539,2.0539,2.0539,2.0539,2.0539,2.0539,2.0539,2.0539,2.0539,2.0539,2.0539,2.0539,2.0539,2.0539,2.0539,2.0539,2.0539,2.0539,2.0539,2.0539,2.0539,2.0539,2.0539,2.0539,2.0539,2.0539,2.0539,2.0539,2.0539,2.0539,2.0539,2.0539,2.0539,2.0539,2.0539,2.0539,2.0539,2.0539,2.0539,2.0539,2.0539,2.0539,2.0539,2.0539,2.0512,2.0451,2.0417,2.037,2.0302,2.0193,2.0112,2.0031,1.9942,1.9895,1.9841,1.9759,1.9739,1.9583,1.9481,1.9427,1.9386,1.9345,1.9278,1.9257,1.925,1.925,1.9257,1.9291,1.9366,1.9345,1.9305,1.9344,1.9264,1.9203,1.9169,1.9142,1.9115,1.9081,1.9149,1.9203,1.9217,1.9223,1.9244,1.9317,1.9385,1.9412,1.958,1.9817,2.0095,2.0356,2.0757,2.1331,2.2091,2.2398,2.0587,2.0587,2.0489,2.0539,2.0539,2.0539,2.0539,2.0539,2.0539,2.0539,2.0539,2.0539,2.0539,2.0539,2.0539,2.0539,2.0539,2.0539,2.0539,2.0539,2.0539,2.0539,2.0539,2.0539,2.0539,2.0539,2.0539,2.0539,2.0539,2.0539,2.0539,2.0539,2.0539,2.0539,2.0539,2.0539,2.0539,2.0539,2.0539,2.0539,2.0539,2.0539,2.0539,2.0539,2.0539,2.0539,2.0539,2.0539,2.0539,2.0539,2.0539,2.0539,2.0539,2.0539,2.0539,2.0539,2.0539,2.0539,2.0539,2.0539,2.0539,2.0539,2.0539,2.0539,2.0539,2.0539,2.0505,2.0505,2.0458,2.0417,2.0329,2.0295,2.0227,2.0112,2.0037,1.9956,1.9868,1.9827,1.9773,1.9685,1.9617,1.9596,1.9576,1.9535,1.9575,1.9569,1.9501,1.9569,1.9548,1.9582,1.9596,1.9589,1.9582,1.9393,1.9257,1.9264,1.9244,1.9223,1.923,1.9291,1.9332,1.9345,1.9366,1.9427,1.9508,1.965,1.9603,1.9617,1.9786,2.001,2.0059,2.0333,2.0817,2.1175,2.1605]},{"header":{"parameterUnit":"m.s-1","parameterCategory":1,"la1":31.0,"la2":29.5877,"lo1":-88.7671,"lo2":-86.6584,"dy":0.0162,"dx":0.0185,"nx":115,"ny":88,"refTime":"2023-04-09T00:00:00:Z","depth":0,"parameterNumber":3,"parameterNumberName":"V-component_of_WINDS"},"data":[0.0,0.0,0.0,0.0,0.0,0.0,0.0,0.0,0.0,0.0,0.0,0.0,0.0,0.0,0.0,0.0,0.0,0.0,0.0,0.0,0.0,0.0,0.0,0.0,0.0,0.0,0.0,0.0,0.0,0.0,0.0,0.0,0.0,0.0,0.0,0.0,0.0,0.0,0.0,0.0,0.0,0.0,0.0,0.0,0.0,0.0,0.0,0.0,0.0,0.0,0.0,0.0,0.0,0.0,0.0,0.0,0.0,0.0,0.0,0.0,0.0,0.0,0.0,0.0,0.0,0.0,0.0,0.0,0.0,0.0,0.0,0.0,0.0,0.0,0.0,0.0,0.0,0.0,0.0,0.0,0.0,0.0,0.0,0.0,0.0,0.0,0.0,0.0,0.0,0.0,0.0,0.0,0.0,0.0,0.0,0.0,0.0,0.0,0.0,0.0,0.0,0.0,0.0,0.0,0.0,0.0,0.0,0.0,0.0,0.0,0.0,0.0,0.0,0.0,0.0,0.0,0.0,0.0,0.0,0.0,0.0,0.0,0.0,0.0,0.0,0.0,0.0,0.0,0.0,0.0,0.0,0.0,0.0,0.0,0.0,0.0,0.0,0.0,0.0,0.0,0.0,0.0,0.0,0.0,0.0,0.0,0.0,0.0,0.0,0.0,0.0,0.0,0.0,0.0,0.0,0.0,0.0,0.0,0.0,0.0,0.0,0.0,0.0,0.0,0.0,0.0,0.0,0.0,0.0,0.0,0.0,0.0,0.0,0.0,0.0,0.0,0.0,0.0,0.0,0.0,0.0,0.0,0.0,0.0,0.0,0.0,0.0,0.0,0.0,0.0,0.0,0.0,0.0,0.0,0.0,0.0,0.0,0.0,0.0,0.0,0.0,0.0,0.0,0.0,0.0,0.0,0.0,0.0,0.0,0.0,0.0,0.0,0.0,0.0,0.0,0.0,0.0,0.0,0.0,0.0,0.0,0.0,0.0,0.0,0.0,0.0,0.0,0.0,0.0,0.0,0.0,0.0,0.0,0.0,0.0,0.0,0.0,0.0,0.0,0.0,0.0,0.0,0.0,0.0,0.0,0.0,0.0,0.0,0.0,0.0,0.0,0.0,0.0,0.0,0.0,0.0,0.0,0.0,0.0,0.0,0.0,0.0,0.0,0.0,0.0,0.0,0.0,0.0,0.0,0.0,0.0,0.0,0.0,0.0,0.0,0.0,0.0,0.0,0.0,0.0,0.0,0.0,0.0,0.0,0.0,0.0,0.0,0.0,0.0,0.0,0.0,0.0,0.0,0.0,0.0,0.0,0.0,0.0,0.0,0.0,0.0,0.0,0.0,0.0,0.0,0.0,0.0,0.0,0.0,0.0,0.0,0.0,0.0,0.0,0.0,0.0,0.0,0.0,0.0,0.0,0.0,0.0,0.0,0.0,0.0,0.0,0.0,0.0,0.0,0.0,0.0,0.0,0.0,0.0,0.0,0.0,0.0,0.0,0.0,0.0,0.0,0.0,0.0,0.0,0.0,0.0,0.0,0.0,0.0,0.0,0.0,0.0,0.0,0.0,0.0,0.0,0.0,0.0,0.0,0.0,0.0,0.0,0.0,0.0,0.0,0.0,0.0,0.0,0.0,0.0,0.0,0.0,0.0,0.0,0.0,0.0,0.0,0.0,0.0,0.0,0.0,0.0,0.0,0.0,0.0,0.0,0.0,0.0,0.0,0.0,0.0,0.0,0.0,0.0,0.0,0.0,0.0,0.0,0.0,0.0,0.0,0.0,0.0,0.0,0.0,0.0,0.0,0.0,0.0,0.0,0.0,0.0,0.0,0.0,0.0,0.0,0.0,0.0,0.0,0.0,0.0,0.0,0.0,0.0,0.0,0.0,0.0,0.0,0.0,0.0,0.0,0.0,0.0,0.0,0.0,0.0,0.0,0.0,0.0,0.0,0.0,0.0,0.0,0.0,0.0,0.0,0.0,0.0,0.0,0.0,0.0,0.0,0.0,0.0,0.0,0.0,0.0,0.0,0.0,0.0,0.0,0.0,0.0,0.0,0.0,0.0,0.0,0.0,0.0,0.0,0.0,0.0,0.0,0.0,0.0,0.0,0.0,0.0,0.0,0.0,0.0,0.0,0.0,0.0,0.0,0.0,0.0,0.0,0.0,0.0,0.0,0.0,0.0,0.0,0.0,0.0,0.0,0.0,0.0,0.0,0.0,0.0,0.0,0.0,0.0,0.0,0.0,0.0,0.0,0.0,0.0,0.0,0.0,0.0,0.0,0.0,0.0,0.0,0.0,0.0,0.0,0.0,0.0,0.0,0.0,0.0,0.0,0.0,0.0,0.0,0.0,0.0,0.0,0.0,0.0,0.0,0.0,0.0,0.0,0.0,0.0,0.0,0.0,0.0,0.0,0.0,0.0,0.0,0.0,0.0,0.0,0.0,0.0,0.0,0.0,0.0,0.0,0.0,0.0,0.0,0.0,0.0,0.0,0.0,0.0,0.0,0.0,0.0,0.0,0.0,0.0,0.0,0.0,0.0,0.0,0.0,0.0,0.0,0.0,0.0,0.0,0.0,0.0,0.0,0.0,0.0,0.0,0.0,0.0,0.0,0.0,0.0,0.0,0.0,0.0,0.0,0.0,0.0,0.0,0.0,0.0,0.0,0.0,0.0,0.0,0.0,0.0,0.0,0.0,0.0,0.0,0.0,0.0,0.0,0.0,0.0,0.0,0.0,0.0,0.0,0.0,0.0,0.0,0.0,0.0,0.0,0.0,0.0,0.0,0.0,0.0,0.0,0.0,0.0,0.0,0.0,0.0,0.0,0.0,0.0,0.0,0.0,0.0,0.0,0.0,0.0,0.0,0.0,0.0,0.0,0.0,0.0,0.0,0.0,0.0,0.0,0.0,0.0,0.0,0.0,0.0,0.0,0.0,0.0,0.0,0.0,0.0,0.0,0.0,0.0,0.0,0.0,0.0,0.0,0.0,0.0,0.0,0.0,0.0,0.0,0.0,0.0,0.0,0.0,0.0,0.0,0.0,0.0,0.0,0.0,0.0,0.0,0.0,0.0,0.0,0.0,0.0,0.0,0.0,0.0,0.0,0.0,0.0,0.0,0.0,0.0,0.0,0.0,0.0,0.0,0.0,0.0,0.0,0.0,0.0,0.0,0.0,0.0,0.0,0.0,0.0,0.0,0.0,0.0,0.0,0.0,0.0,0.0,0.0,0.0,0.0,0.0,0.0,0.0,0.0,0.0,0.0,0.0,0.0,0.0,0.0,0.0,0.0,0.0,0.0,0.0,0.0,0.0,0.0,0.0,0.0,0.0,0.0,0.0,0.0,0.0,0.0,0.0,0.0,0.0,0.0,0.0,0.0,0.0,0.0,0.0,0.0,0.0,0.0,0.0,0.0,0.0,0.0,0.0,0.0,0.0,0.0,0.0,0.0,0.0,0.0,0.0,0.0,0.0,0.0,0.0,0.0,0.0,0.0,0.0,0.0,0.0,0.0,0.0,0.0,0.0,0.0,0.0,0.0,0.0,0.0,0.0,0.0,0.0,0.0,0.0,0.0,0.0,0.0,0.0,0.0,0.0,0.0,0.0,0.0,0.0,0.0,0.0,0.0,0.0,0.0,0.0,0.0,0.0,0.0,0.0,0.0,0.0,0.0,0.0,0.0,0.0,0.0,0.0,0.0,0.0,0.0,0.0,0.0,0.0,0.0,0.0,0.0,0.0,0.0,0.0,0.0,0.0,0.0,0.0,0.0,0.0,0.0,0.0,0.0,0.0,0.0,0.0,0.0,0.0,0.0,0.0,0.0,0.0,0.0,0.0,0.0,0.0,0.0,0.0,0.0,0.0,0.0,0.0,0.0,0.0,0.0,0.0,0.0,0.0,0.0,0.0,0.0,0.0,0.0,0.0,0.0,0.0,0.0,0.0,0.0,0.0,0.0,0.0,0.0,0.0,0.0,0.0,0.0,0.0,0.0,0.0,0.0,0.0,0.0,0.0,0.0,0.0,0.0,0.0,0.0,0.0,0.0,0.0,0.0,0.0,0.0,0.0,0.0,0.0,0.0,0.0,0.0,0.0,0.0,0.0,0.0,0.0,0.0,0.0,0.0,0.0,0.0,0.0,0.0,0.0,0.0,0.0,0.0,0.0,0.0,0.0,0.0,0.0,0.0,0.0,0.0,0.0,0.0,0.0,0.0,0.0,0.0,0.0,0.0,0.0,0.0,0.0,0.0,0.0,0.0,0.0,0.0,0.0,0.0,0.0,4.837,0.0,0.0,0.0,0.0,0.0,0.0,0.0,0.0,0.0,0.0,0.0,0.0,0.0,0.0,0.0,0.0,0.0,0.0,0.0,0.0,0.0,0.0,0.0,0.0,0.0,0.0,0.0,0.0,0.0,0.0,0.0,0.0,0.0,0.0,0.0,0.0,0.0,0.0,0.0,0.0,0.0,0.0,0.0,0.0,0.0,0.0,0.0,0.0,0.0,0.0,0.0,0.0,0.0,0.0,0.0,0.0,0.0,0.0,0.0,0.0,0.0,0.0,0.0,0.0,0.0,0.0,0.0,0.0,0.0,0.0,0.0,0.0,0.0,0.0,0.0,0.0,0.0,0.0,0.0,0.0,0.0,0.0,0.0,0.0,0.0,0.0,0.0,0.0,0.0,0.0,0.0,0.0,0.0,0.0,0.0,0.0,0.0,0.0,0.0,0.0,0.0,0.0,0.0,0.0,0.0,0.0,0.0,0.0,0.0,0.0,4.9968,4.961,4.9527,4.9123,4.837,0.0,0.0,0.0,0.0,0.0,0.0,0.0,0.0,0.0,0.0,0.0,0.0,0.0,0.0,0.0,0.0,0.0,0.0,0.0,0.0,0.0,0.0,0.0,0.0,0.0,0.0,0.0,0.0,0.0,0.0,0.0,0.0,0.0,0.0,0.0,0.0,0.0,0.0,0.0,0.0,0.0,0.0,0.0,0.0,0.0,0.0,0.0,0.0,0.0,0.0,0.0,0.0,0.0,0.0,0.0,0.0,0.0,0.0,0.0,0.0,0.0,0.0,0.0,0.0,0.0,0.0,0.0,0.0,0.0,0.0,0.0,0.0,0.0,0.0,0.0,0.0,0.0,0.0,0.0,0.0,0.0,0.0,0.0,0.0,0.0,0.0,0.0,0.0,0.0,0.0,0.0,0.0,0.0,0.0,0.0,0.0,0.0,0.0,0.0,0.0,0.0,0.0,0.0,0.0,0.0,0.0,0.0,0.0,0.0,0.0,0.0,0.0,4.9564,4.9114,4.837,0.0,0.0,0.0,0.0,0.0,0.0,0.0,0.0,0.0,0.0,0.0,0.0,0.0,0.0,0.0,0.0,0.0,0.0,0.0,0.0,0.0,0.0,0.0,0.0,0.0,0.0,0.0,0.0,0.0,0.0,0.0,0.0,0.0,0.0,0.0,0.0,0.0,0.0,0.0,0.0,0.0,0.0,0.0,0.0,0.0,0.0,0.0,0.0,0.0,0.0,0.0,0.0,0.0,0.0,0.0,0.0,0.0,0.0,0.0,0.0,0.0,0.0,0.0,0.0,0.0,0.0,0.0,0.0,0.0,0.0,0.0,0.0,0.0,0.0,0.0,0.0,0.0,0.0,0.0,0.0,0.0,0.0,0.0,0.0,0.0,0.0,0.0,0.0,0.0,0.0,0.0,0.0,0.0,0.0,0.0,0.0,0.0,0.0,0.0,0.0,0.0,0.0,0.0,0.0,0.0,0.0,0.0,0.0,0.0,0.0,4.9601,4.9601,4.961,0.0,4.8453,0.0,0.0,0.0,0.0,0.0,0.0,0.0,0.0,0.0,0.0,0.0,0.0,0.0,0.0,0.0,0.0,0.0,0.0,0.0,0.0,0.0,0.0,0.0,0.0,0.0,0.0,0.0,0.0,0.0,0.0,0.0,0.0,0.0,0.0,0.0,0.0,0.0,0.0,0.0,0.0,0.0,0.0,0.0,0.0,0.0,0.0,0.0,0.0,0.0,0.0,0.0,0.0,0.0,0.0,0.0,0.0,0.0,0.0,0.0,0.0,0.0,0.0,0.0,0.0,0.0,0.0,0.0,0.0,0.0,0.0,0.0,0.0,0.0,0.0,0.0,0.0,0.0,0.0,0.0,0.0,0.0,0.0,0.0,0.0,0.0,0.0,0.0,0.0,0.0,0.0,0.0,0.0,0.0,0.0,0.0,0.0,0.0,0.0,0.0,0.0,0.0,0.0,0.0,0.0,0.0,0.0,0.0,0.0,0.0,0.0,4.9821,5.0298,4.9858,4.9187,0.0,0.0,0.0,0.0,0.0,0.0,0.0,0.0,0.0,0.0,0.0,0.0,0.0,0.0,0.0,0.0,0.0,0.0,0.0,0.0,0.0,0.0,0.0,0.0,0.0,0.0,0.0,0.0,0.0,0.0,0.0,0.0,0.0,0.0,0.0,0.0,0.0,0.0,0.0,0.0,0.0,0.0,0.0,0.0,0.0,0.0,0.0,0.0,0.0,0.0,0.0,0.0,0.0,0.0,0.0,0.0,0.0,0.0,0.0,0.0,0.0,0.0,0.0,0.0,0.0,0.0,0.0,0.0,0.0,0.0,0.0,0.0,0.0,0.0,0.0,0.0,0.0,0.0,0.0,0.0,0.0,0.0,0.0,0.0,0.0,0.0,0.0,0.0,0.0,0.0,0.0,0.0,0.0,0.0,0.0,0.0,0.0,0.0,0.0,0.0,0.0,0.0,0.0,0.0,0.0,0.0,0.0,0.0,0.0,0.0,4.9674,5.0178,5.0729,5.0225,4.9407,4.8333,0.0,0.0,0.0,0.0,0.0,0.0,0.0,0.0,0.0,0.0,0.0,0.0,0.0,0.0,0.0,0.0,0.0,0.0,0.0,0.0,0.0,0.0,0.0,0.0,0.0,0.0,0.0,0.0,0.0,0.0,0.0,0.0,0.0,0.0,0.0,0.0,0.0,0.0,0.0,0.0,0.0,0.0,0.0,0.0,0.0,0.0,0.0,0.0,0.0,0.0,0.0,0.0,0.0,0.0,0.0,0.0,0.0,0.0,0.0,0.0,0.0,0.0,0.0,0.0,0.0,0.0,0.0,0.0,0.0,0.0,0.0,0.0,0.0,0.0,0.0,0.0,0.0,0.0,0.0,0.0,0.0,0.0,0.0,0.0,0.0,0.0,0.0,0.0,0.0,0.0,0.0,0.0,0.0,0.0,0.0,0.0,0.0,0.0,0.0,0.0,0.0,0.0,0.0,0.0,0.0,0.0,0.0,0.0,4.8453,4.9958,5.0765,5.0802,5.0755,4.9994,0.0,0.0,0.0,0.0,0.0,0.0,0.0,0.0,0.0,0.0,0.0,0.0,0.0,0.0,0.0,0.0,0.0,0.0,0.0,0.0,0.0,0.0,0.0,0.0,0.0,0.0,0.0,0.0,0.0,0.0,0.0,0.0,0.0,0.0,0.0,0.0,0.0,0.0,0.0,0.0,0.0,0.0,0.0,0.0,0.0,0.0,0.0,0.0,0.0,0.0,0.0,0.0,0.0,0.0,0.0,0.0,0.0,0.0,0.0,0.0,0.0,0.0,0.0,0.0,0.0,0.0,0.0,0.0,0.0,0.0,0.0,0.0,0.0,0.0,0.0,0.0,0.0,0.0,0.0,0.0,0.0,0.0,0.0,0.0,0.0,0.0,0.0,0.0,0.0,0.0,0.0,0.0,0.0,0.0,0.0,0.0,0.0,0.0,0.0,0.0,0.0,0.0,0.0,0.0,0.0,0.0,0.0,0.0,0.0,4.9884,5.0986,5.1316,5.0839,5.0298,4.949,0.0,0.0,0.0,0.0,0.0,0.0,0.0,0.0,0.0,0.0,0.0,0.0,0.0,0.0,0.0,0.0,0.0,0.0,0.0,0.0,0.0,0.0,0.0,0.0,0.0,0.0,0.0,0.0,0.0,0.0,0.0,0.0,0.0,0.0,0.0,0.0,0.0,0.0,0.0,0.0,0.0,0.0,0.0,0.0,0.0,0.0,0.0,0.0,0.0,0.0,0.0,0.0,0.0,0.0,0.0,0.0,0.0,0.0,0.0,0.0,0.0,0.0,0.0,0.0,0.0,0.0,0.0,0.0,0.0,0.0,0.0,0.0,0.0,0.0,0.0,0.0,0.0,0.0,0.0,0.0,0.0,0.0,0.0,0.0,0.0,0.0,0.0,0.0,0.0,0.0,0.0,0.0,0.0,0.0,0.0,0.0,0.0,0.0,0.0,0.0,0.0,0.0,0.0,0.0,0.0,0.0,0.0,0.0,0.0,5.0362,0.0,5.1242,5.0435,5.0151,4.9454,0.0,0.0,0.0,0.0,0.0,0.0,0.0,0.0,0.0,0.0,0.0,0.0,0.0,0.0,0.0,0.0,0.0,0.0,0.0,0.0,0.0,0.0,0.0,0.0,0.0,0.0,0.0,0.0,0.0,0.0,0.0,0.0,0.0,0.0,0.0,0.0,0.0,0.0,0.0,0.0,0.0,0.0,0.0,0.0,0.0,0.0,0.0,0.0,0.0,0.0,0.0,0.0,0.0,0.0,0.0,0.0,0.0,0.0,0.0,0.0,0.0,0.0,0.0,0.0,0.0,0.0,0.0,0.0,0.0,0.0,0.0,0.0,0.0,0.0,0.0,0.0,0.0,0.0,0.0,0.0,0.0,0.0,0.0,0.0,0.0,0.0,0.0,0.0,0.0,0.0,0.0,0.0,0.0,0.0,0.0,0.0,0.0,0.0,0.0,0.0,0.0,0.0,0.0,0.0,0.0,0.0,0.0,0.0,4.8746,4.9637,5.0398,5.0508,4.9684,5.0398,4.9994,0.0,0.0,0.0,0.0,0.0,0.0,0.0,0.0,0.0,0.0,0.0,0.0,0.0,0.0,0.0,0.0,0.0,0.0,0.0,0.0,0.0,0.0,0.0,0.0,0.0,0.0,0.0,0.0,0.0,0.0,0.0,0.0,0.0,0.0,0.0,0.0,0.0,0.0,0.0,0.0,0.0,0.0,0.0,0.0,0.0,0.0,0.0,0.0,0.0,0.0,0.0,0.0,0.0,0.0,0.0,0.0,0.0,0.0,0.0,0.0,0.0,0.0,0.0,0.0,0.0,0.0,0.0,0.0,0.0,0.0,0.0,0.0,0.0,0.0,0.0,0.0,0.0,0.0,0.0,0.0,0.0,0.0,0.0,0.0,0.0,0.0,0.0,0.0,0.0,0.0,0.0,0.0,0.0,0.0,0.0,0.0,0.0,0.0,0.0,0.0,0.0,0.0,0.0,0.0,0.0,0.0,0.0,0.0,0.0,5.0398,5.0655,5.0949,5.1216,5.0949,5.0288,0.0,0.0,0.0,0.0,0.0,0.0,0.0,0.0,0.0,0.0,0.0,0.0,0.0,0.0,0.0,0.0,0.0,0.0,0.0,0.0,0.0,0.0,0.0,0.0,0.0,0.0,0.0,0.0,0.0,0.0,0.0,0.0,0.0,0.0,0.0,0.0,0.0,0.0,0.0,0.0,0.0,0.0,0.0,0.0,0.0,0.0,0.0,0.0,0.0,0.0,0.0,0.0,0.0,0.0,0.0,0.0,0.0,0.0,0.0,0.0,0.0,0.0,0.0,0.0,0.0,0.0,0.0,0.0,0.0,0.0,0.0,0.0,0.0,0.0,0.0,0.0,0.0,0.0,0.0,0.0,0.0,0.0,0.0,0.0,0.0,0.0,0.0,0.0,0.0,0.0,0.0,0.0,0.0,0.0,0.0,0.0,0.0,0.0,0.0,0.0,0.0,0.0,0.0,0.0,0.0,0.0,0.0,0.0,0.0,5.1646,5.1709,5.1646,5.1546,5.1646,5.1169,5.0115,0.0,0.0,0.0,0.0,0.0,0.0,0.0,0.0,0.0,0.0,0.0,0.0,0.0,0.0,0.0,0.0,0.0,0.0,0.0,0.0,0.0,0.0,0.0,0.0,0.0,0.0,0.0,0.0,0.0,0.0,0.0,0.0,0.0,0.0,0.0,0.0,0.0,0.0,0.0,0.0,0.0,0.0,0.0,0.0,0.0,0.0,0.0,0.0,0.0,0.0,0.0,0.0,0.0,0.0,0.0,0.0,0.0,0.0,0.0,0.0,0.0,0.0,0.0,0.0,0.0,0.0,0.0,0.0,0.0,0.0,0.0,0.0,0.0,0.0,0.0,0.0,0.0,0.0,0.0,0.0,0.0,0.0,0.0,0.0,0.0,0.0,0.0,0.0,0.0,0.0,0.0,0.0,0.0,0.0,0.0,0.0,0.0,0.0,0.0,0.0,0.0,0.0,0.0,0.0,0.0,0.0,0.0,0.0,5.3251,5.3398,5.2737,5.1206,5.2553,5.259,0.0,0.0,0.0,0.0,0.0,0.0,0.0,0.0,0.0,0.0,0.0,0.0,0.0,0.0,0.0,0.0,0.0,0.0,0.0,0.0,0.0,0.0,0.0,0.0,0.0,0.0,0.0,0.0,0.0,0.0,0.0,0.0,0.0,0.0,0.0,0.0,0.0,0.0,0.0,0.0,0.0,0.0,0.0,0.0,0.0,0.0,0.0,0.0,0.0,0.0,0.0,0.0,0.0,0.0,0.0,0.0,0.0,0.0,0.0,0.0,0.0,0.0,0.0,0.0,0.0,0.0,0.0,0.0,0.0,0.0,0.0,0.0,0.0,0.0,0.0,0.0,0.0,0.0,0.0,0.0,0.0,0.0,0.0,0.0,0.0,0.0,0.0,0.0,0.0,0.0,0.0,0.0,0.0,0.0,0.0,0.0,0.0,0.0,0.0,0.0,0.0,0.0,0.0,0.0,0.0,0.0,0.0,0.0,0.0,5.4069,5.5831,5.5989,5.4447,5.474,5.4216,0.0,0.0,0.0,0.0,0.0,0.0,0.0,0.0,0.0,0.0,0.0,0.0,0.0,0.0,0.0,0.0,0.0,0.0,0.0,0.0,0.0,0.0,0.0,0.0,0.0,0.0,0.0,0.0,0.0,0.0,0.0,0.0,0.0,0.0,0.0,0.0,0.0,0.0,0.0,0.0,0.0,0.0,0.0,0.0,0.0,0.0,0.0,0.0,0.0,0.0,0.0,0.0,0.0,0.0,0.0,0.0,0.0,0.0,0.0,0.0,0.0,0.0,0.0,0.0,0.0,0.0,0.0,0.0,0.0,0.0,0.0,0.0,0.0,0.0,0.0,0.0,0.0,0.0,0.0,0.0,0.0,0.0,0.0,0.0,0.0,0.0,0.0,0.0,0.0,0.0,0.0,0.0,0.0,0.0,0.0,0.0,0.0,0.0,0.0,0.0,0.0,0.0,0.0,0.0,0.0,0.0,0.0,0.0,5.4473,5.6381,5.8437,5.9073,5.8155,5.7127,5.5879,0.0,0.0,0.0,0.0,0.0,0.0,0.0,0.0,0.0,0.0,0.0,0.0,0.0,0.0,0.0,0.0,0.0,0.0,0.0,0.0,0.0,0.0,0.0,0.0,0.0,0.0,0.0,0.0,0.0,0.0,0.0,0.0,0.0,0.0,0.0,0.0,0.0,0.0,0.0,0.0,0.0,0.0,0.0,0.0,0.0,0.0,0.0,0.0,0.0,0.0,0.0,0.0,0.0,0.0,0.0,0.0,0.0,0.0,0.0,0.0,0.0,0.0,0.0,0.0,0.0,0.0,0.0,0.0,0.0,0.0,0.0,0.0,0.0,0.0,0.0,0.0,0.0,0.0,0.0,0.0,0.0,0.0,0.0,0.0,0.0,0.0,0.0,0.0,0.0,0.0,0.0,0.0,0.0,0.0,0.0,0.0,0.0,0.0,0.0,0.0,0.0,0.0,0.0,0.0,0.0,0.0,0.0,0.0,5.6822,5.9269,6.0896,6.179,6.179,5.9501,5.7483,0.0,0.0,0.0,0.0,0.0,0.0,0.0,0.0,0.0,0.0,0.0,0.0,0.0,0.0,0.0,0.0,0.0,0.0,0.0,0.0,0.0,0.0,0.0,0.0,0.0,0.0,0.0,0.0,0.0,0.0,0.0,0.0,0.0,0.0,0.0,0.0,0.0,0.0,0.0,0.0,0.0,0.0,0.0,0.0,0.0,0.0,0.0,0.0,0.0,0.0,0.0,0.0,0.0,0.0,0.0,0.0,0.0,0.0,0.0,0.0,0.0,0.0,0.0,0.0,0.0,0.0,0.0,0.0,0.0,0.0,0.0,0.0,0.0,0.0,0.0,0.0,0.0,0.0,0.0,0.0,0.0,0.0,0.0,0.0,0.0,0.0,0.0,0.0,0.0,0.0,0.0,0.0,0.0,0.0,0.0,0.0,0.0,0.0,0.0,0.0,0.0,0.0,0.0,0.0,0.0,0.0,0.0,0.0,5.7079,6.004,6.1728,6.2879,6.3552,6.119,5.9134,0.0,0.0,0.0,0.0,0.0,0.0,0.0,0.0,0.0,0.0,0.0,0.0,0.0,0.0,0.0,0.0,0.0,0.0,0.0,0.0,0.0,0.0,0.0,0.0,0.0,0.0,0.0,0.0,0.0,0.0,0.0,0.0,0.0,0.0,0.0,0.0,0.0,0.0,0.0,0.0,0.0,0.0,0.0,0.0,0.0,0.0,0.0,0.0,5.5989,0.0,0.0,0.0,0.0,0.0,0.0,0.0,0.0,0.0,0.0,0.0,0.0,0.0,0.0,0.0,0.0,0.0,0.0,0.0,0.0,0.0,0.0,0.0,0.0,0.0,0.0,0.0,0.0,0.0,0.0,0.0,0.0,0.0,0.0,0.0,0.0,0.0,0.0,0.0,0.0,0.0,0.0,0.0,0.0,0.0,0.0,0.0,0.0,0.0,0.0,0.0,0.0,0.0,0.0,0.0,0.0,0.0,0.0,0.0,5.8877,6.2034,6.3356,6.4187,6.4567,6.2622,6.0419,0.0,0.0,0.0,0.0,0.0,0.0,0.0,0.0,0.0,0.0,0.0,0.0,0.0,0.0,0.0,0.0,0.0,0.0,0.0,0.0,0.0,0.0,0.0,0.0,0.0,0.0,0.0,0.0,0.0,0.0,0.0,0.0,0.0,0.0,0.0,0.0,0.0,0.0,0.0,0.0,0.0,0.0,0.0,0.0,0.0,0.0,0.0,0.0,0.0,0.0,0.0,0.0,0.0,0.0,0.0,0.0,0.0,0.0,0.0,0.0,0.0,0.0,0.0,0.0,0.0,0.0,0.0,0.0,0.0,0.0,0.0,0.0,0.0,0.0,0.0,0.0,0.0,0.0,0.0,0.0,0.0,0.0,0.0,0.0,0.0,0.0,0.0,0.0,0.0,0.0,0.0,0.0,0.0,0.0,0.0,0.0,0.0,0.0,0.0,0.0,0.0,0.0,0.0,0.0,0.0,0.0,0.0,5.8499,6.0933,6.3956,6.5007,6.5435,6.5288,6.3673,6.13,5.8143,0.0,0.0,0.0,0.0,0.0,0.0,0.0,0.0,0.0,0.0,0.0,0.0,0.0,0.0,0.0,0.0,0.0,0.0,0.0,0.0,0.0,0.0,0.0,0.0,0.0,0.0,0.0,0.0,0.0,0.0,0.0,0.0,0.0,0.0,0.0,0.0,0.0,0.0,5.4656,5.6051,0.0,0.0,0.0,0.0,0.0,0.0,0.0,0.0,5.7017,0.0,0.0,0.0,0.0,0.0,0.0,0.0,0.0,0.0,0.0,0.0,0.0,0.0,0.0,0.0,0.0,0.0,0.0,0.0,0.0,0.0,0.0,0.0,0.0,0.0,0.0,0.0,0.0,0.0,0.0,0.0,0.0,0.0,0.0,0.0,0.0,0.0,0.0,0.0,0.0,0.0,0.0,0.0,0.0,0.0,0.0,0.0,0.0,0.0,0.0,0.0,0.0,0.0,0.0,0.0,0.0,5.6774,5.9049,6.1484,6.4029,6.5558,6.5985,6.5288,6.3673,6.1288,5.8155,0.0,0.0,0.0,0.0,0.0,0.0,0.0,0.0,0.0,0.0,0.0,0.0,0.0,0.0,0.0,0.0,0.0,0.0,0.0,0.0,0.0,0.0,0.0,0.0,0.0,0.0,0.0,0.0,0.0,0.0,0.0,0.0,0.0,0.0,0.0,0.0,0.0,0.0,0.0,5.7226,5.7776,0.0,0.0,0.0,0.0,0.0,0.0,0.0,0.0,5.7997,0.0,0.0,0.0,0.0,0.0,0.0,0.0,0.0,0.0,0.0,0.0,0.0,0.0,0.0,0.0,0.0,0.0,0.0,0.0,0.0,0.0,0.0,0.0,0.0,0.0,0.0,0.0,0.0,0.0,0.0,0.0,0.0,0.0,0.0,0.0,0.0,0.0,0.0,0.0,0.0,0.0,0.0,0.0,0.0,0.0,0.0,0.0,0.0,0.0,0.0,0.0,0.0,0.0,0.0,0.0,5.7446,5.9795,6.2218,6.464,6.5888,6.6109,6.5288,6.3673,6.1471,0.0,0.0,0.0,0.0,0.0,0.0,0.0,0.0,0.0,0.0,0.0,0.0,0.0,0.0,0.0,0.0,0.0,0.0,0.0,0.0,0.0,0.0,0.0,0.0,0.0,0.0,0.0,0.0,0.0,0.0,0.0,0.0,0.0,0.0,0.0,0.0,0.0,0.0,0.0,0.0,5.7838,5.8609,5.8609,0.0,0.0,0.0,0.0,0.0,0.0,5.8095,5.8609,0.0,0.0,0.0,0.0,0.0,0.0,0.0,0.0,0.0,0.0,0.0,0.0,0.0,0.0,0.0,0.0,0.0,0.0,0.0,0.0,0.0,0.0,0.0,0.0,0.0,0.0,0.0,0.0,0.0,0.0,0.0,0.0,0.0,0.0,0.0,0.0,0.0,0.0,0.0,0.0,0.0,0.0,0.0,0.0,0.0,0.0,0.0,0.0,0.0,0.0,0.0,0.0,0.0,0.0,0.0,5.8474,6.0713,6.3062,6.5448,6.6329,6.6292,6.5288,6.3673,6.1582,0.0,0.0,0.0,0.0,0.0,0.0,0.0,0.0,0.0,0.0,0.0,0.0,0.0,0.0,0.0,0.0,0.0,0.0,0.0,0.0,0.0,0.0,0.0,0.0,0.0,0.0,0.0,0.0,0.0,0.0,0.0,0.0,0.0,0.0,0.0,0.0,0.0,0.0,0.0,0.0,0.0,5.9673,5.9673,5.9134,0.0,0.0,0.0,0.0,5.8694,5.9269,0.0,0.0,0.0,0.0,0.0,0.0,0.0,0.0,0.0,0.0,0.0,0.0,0.0,0.0,0.0,0.0,0.0,0.0,0.0,0.0,0.0,0.0,0.0,0.0,0.0,0.0,0.0,0.0,0.0,0.0,0.0,0.0,0.0,0.0,0.0,0.0,0.0,0.0,0.0,0.0,0.0,0.0,0.0,0.0,0.0,0.0,0.0,0.0,0.0,0.0,0.0,0.0,0.0,0.0,0.0,0.0,6.0052,6.1765,6.3857,6.6256,6.7136,6.6856,6.5325,6.3673,6.1325,0.0,0.0,0.0,0.0,0.0,0.0,0.0,0.0,0.0,0.0,0.0,0.0,0.0,0.0,0.0,0.0,0.0,0.0,0.0,0.0,0.0,0.0,0.0,0.0,0.0,0.0,0.0,0.0,0.0,0.0,0.0,0.0,0.0,0.0,0.0,0.0,0.0,0.0,0.0,0.0,0.0,6.1337,6.1337,6.1263,6.0896,0.0,0.0,6.0382,6.108,6.1276,0.0,0.0,0.0,0.0,0.0,0.0,0.0,0.0,0.0,0.0,0.0,0.0,0.0,0.0,0.0,0.0,0.0,0.0,0.0,0.0,0.0,0.0,0.0,0.0,0.0,0.0,0.0,0.0,0.0,0.0,0.0,0.0,0.0,0.0,0.0,0.0,0.0,0.0,0.0,0.0,0.0,0.0,0.0,0.0,0.0,0.0,0.0,0.0,0.0,0.0,0.0,0.0,0.0,0.0,0.0,5.7629,6.0382,6.2903,6.5178,6.71,6.7944,6.7614,6.5999,6.3894,6.1288,0.0,0.0,0.0,0.0,0.0,0.0,0.0,0.0,0.0,0.0,0.0,0.0,0.0,0.0,0.0,0.0,0.0,0.0,0.0,0.0,0.0,0.0,0.0,0.0,0.0,0.0,0.0,0.0,0.0,0.0,0.0,0.0,0.0,0.0,0.0,0.0,0.0,0.0,0.0,0.0,0.0,0.0,6.2891,6.3392,0.0,0.0,0.0,6.398,6.431,0.0,0.0,0.0,0.0,0.0,0.0,0.0,0.0,0.0,0.0,0.0,0.0,0.0,0.0,0.0,0.0,0.0,0.0,0.0,0.0,0.0,0.0,0.0,0.0,0.0,0.0,0.0,0.0,0.0,0.0,0.0,0.0,0.0,0.0,0.0,0.0,0.0,0.0,0.0,0.0,0.0,0.0,0.0,0.0,0.0,0.0,0.0,0.0,0.0,0.0,0.0,0.0,0.0,0.0,0.0,0.0,0.0,6.0994,6.382,6.6182,6.7958,6.8605,6.8128,6.6512,6.4077,0.0,0.0,0.0,0.0,0.0,0.0,0.0,0.0,0.0,0.0,0.0,0.0,0.0,0.0,0.0,0.0,0.0,0.0,0.0,0.0,0.0,0.0,0.0,0.0,0.0,0.0,0.0,5.3812,0.0,0.0,0.0,0.0,0.0,0.0,0.0,0.0,0.0,0.0,0.0,0.0,0.0,0.0,6.2805,6.447,6.5558,6.6132,0.0,0.0,6.732,6.7136,6.6109,6.5081,0.0,0.0,0.0,0.0,0.0,0.0,0.0,0.0,0.0,0.0,0.0,0.0,0.0,0.0,0.0,0.0,0.0,0.0,0.0,0.0,0.0,0.0,0.0,0.0,0.0,0.0,0.0,0.0,0.0,0.0,0.0,0.0,0.0,0.0,0.0,0.0,0.0,0.0,0.0,0.0,0.0,0.0,0.0,0.0,0.0,0.0,0.0,0.0,0.0,0.0,0.0,0.0,0.0,0.0,0.0,6.2536,6.4407,6.6463,6.8715,6.8898,6.8128,6.6512,6.4077,6.1655,0.0,0.0,0.0,0.0,0.0,0.0,0.0,0.0,0.0,0.0,0.0,0.0,0.0,0.0,0.0,0.0,0.0,0.0,0.0,0.0,0.0,0.0,0.0,0.0,0.0,0.0,0.0,0.0,0.0,0.0,0.0,0.0,0.0,0.0,0.0,0.0,0.0,0.0,0.0,0.0,0.0,6.4543,6.6109,6.7687,6.8385,0.0,6.8875,6.9596,6.8862,6.8628,6.7797,6.5582,0.0,0.0,0.0,0.0,0.0,0.0,0.0,0.0,0.0,0.0,0.0,0.0,0.0,0.0,0.0,0.0,0.0,0.0,0.0,0.0,0.0,0.0,0.0,0.0,0.0,0.0,0.0,0.0,0.0,0.0,0.0,0.0,0.0,0.0,0.0,0.0,0.0,0.0,0.0,0.0,0.0,0.0,0.0,0.0,0.0,0.0,0.0,0.0,0.0,0.0,0.0,0.0,0.0,5.9783,6.2756,6.5448,6.7724,6.9522,6.9633,6.9119,6.8017,6.5154,6.2438,0.0,0.0,0.0,0.0,0.0,0.0,0.0,0.0,0.0,0.0,0.0,0.0,0.0,0.0,0.0,0.0,0.0,0.0,0.0,0.0,0.0,0.0,0.0,0.0,0.0,0.0,0.0,0.0,5.5622,5.5805,5.6271,0.0,0.0,0.0,0.0,0.0,0.0,0.0,0.0,0.0,0.0,6.5595,6.7687,6.9765,0.0,0.0,7.1908,7.2202,7.1908,7.0169,6.8421,6.699,6.431,0.0,0.0,0.0,0.0,0.0,0.0,0.0,0.0,0.0,0.0,0.0,0.0,0.0,0.0,0.0,0.0,0.0,0.0,0.0,0.0,0.0,0.0,0.0,0.0,0.0,0.0,0.0,0.0,0.0,0.0,0.0,0.0,0.0,0.0,0.0,0.0,0.0,0.0,0.0,0.0,0.0,0.0,0.0,0.0,0.0,0.0,0.0,0.0,0.0,0.0,0.0,0.0,6.0884,6.3527,6.6512,6.8839,7.0403,7.0477,6.9963,6.8862,6.6035,6.3392,0.0,0.0,0.0,0.0,0.0,0.0,0.0,0.0,0.0,0.0,0.0,0.0,0.0,0.0,0.0,0.0,0.0,0.0,0.0,0.0,0.0,0.0,0.0,0.0,0.0,0.0,0.0,0.0,5.6319,5.6528,5.7116,0.0,0.0,0.0,0.0,0.0,0.0,0.0,0.0,0.0,0.0,6.7283,6.9619,7.1835,7.3413,7.3964,7.4037,7.3964,7.3744,7.1394,6.9265,6.8238,0.0,0.0,0.0,0.0,0.0,0.0,0.0,0.0,0.0,0.0,0.0,0.0,0.0,0.0,0.0,0.0,0.0,0.0,0.0,0.0,0.0,0.0,0.0,0.0,0.0,0.0,0.0,6.0309,0.0,0.0,5.9123,0.0,0.0,0.0,0.0,0.0,0.0,0.0,0.0,0.0,0.0,0.0,0.0,0.0,0.0,0.0,0.0,0.0,0.0,0.0,0.0,0.0,0.0,6.1961,6.5178,6.7614,6.9619,7.1197,7.127,7.0536,6.8972,6.6573,6.4494,6.2719,0.0,0.0,0.0,0.0,0.0,0.0,0.0,0.0,0.0,0.0,0.0,0.0,0.0,0.0,0.0,0.0,0.0,0.0,0.0,0.0,0.0,0.0,0.0,0.0,0.0,0.0,5.7898,5.7923,5.7923,0.0,0.0,0.0,0.0,0.0,0.0,0.0,0.0,0.0,0.0,6.7307,6.9706,7.2055,7.3802,7.483,7.4903,7.4867,7.4588,7.3817,7.2312,7.072,0.0,0.0,0.0,0.0,0.0,0.0,0.0,0.0,0.0,0.0,0.0,0.0,0.0,0.0,0.0,0.0,0.0,0.0,0.0,0.0,0.0,0.0,0.0,0.0,0.0,0.0,0.0,6.1484,6.1912,0.0,0.0,0.0,0.0,0.0,0.0,0.0,0.0,0.0,0.0,0.0,6.36,6.3099,0.0,0.0,0.0,0.0,0.0,0.0,0.0,0.0,0.0,0.0,0.0,0.0,6.2548,6.5251,6.7687,6.9692,7.1233,7.1307,7.105,7.0499,6.8164,6.5338,6.2108,0.0,0.0,0.0,0.0,0.0,0.0,0.0,0.0,0.0,0.0,0.0,0.0,0.0,0.0,0.0,0.0,0.0,0.0,0.0,0.0,0.0,0.0,0.0,0.0,0.0,5.7997,0.0,0.0,0.0,0.0,0.0,0.0,0.0,0.0,0.0,0.0,0.0,6.3649,6.5815,6.8628,7.116,7.3046,7.4661,7.5873,0.0,0.0,0.0,0.0,0.0,0.0,0.0,0.0,0.0,0.0,0.0,0.0,0.0,0.0,6.8114,6.705,6.6646,6.5962,6.4347,0.0,0.0,0.0,0.0,0.0,0.0,0.0,0.0,0.0,0.0,0.0,0.0,0.0,0.0,6.3613,6.4004,6.3246,0.0,0.0,0.0,0.0,0.0,0.0,0.0,0.0,6.458,6.5778,6.6499,6.5718,6.5778,0.0,6.5154,6.3429,0.0,0.0,0.0,0.0,0.0,0.0,0.0,0.0,6.3392,6.6096,6.8518,7.0499,7.2055,7.2129,7.2018,7.1674,6.9119,6.6048,6.2597,6.0676,5.8914,0.0,0.0,0.0,0.0,0.0,0.0,0.0,0.0,0.0,0.0,0.0,0.0,0.0,0.0,0.0,0.0,0.0,0.0,0.0,0.0,0.0,0.0,0.0,5.7997,0.0,0.0,0.0,0.0,0.0,0.0,0.0,0.0,0.0,6.1741,6.3576,6.5705,6.7907,7.0477,7.2716,7.4294,0.0,0.0,0.0,0.0,0.0,0.0,0.0,7.1945,7.1431,7.0697,6.9963,6.9463,7.0036,7.0844,7.1615,0.0,0.0,7.0513,6.9912,6.9252,6.7674,6.8238,6.8641,6.76,6.7797,6.8421,0.0,0.0,0.0,0.0,6.3123,0.0,0.0,0.0,6.6329,6.6659,0.0,6.5852,0.0,0.0,0.0,0.0,6.1924,6.4347,0.0,0.0,6.7136,6.8288,6.8972,6.8238,6.8288,6.8958,6.8238,6.7026,6.5325,6.2242,0.0,0.0,0.0,0.0,0.0,0.0,6.4494,6.7737,7.011,7.2114,7.3634,7.3707,7.334,7.2459,6.9449,6.6709,6.436,6.3282,6.1361,5.8327,5.8792,0.0,0.0,0.0,0.0,0.0,0.0,0.0,0.0,0.0,0.0,0.0,0.0,0.0,0.0,0.0,0.0,0.0,0.0,0.0,0.0,5.8033,0.0,0.0,0.0,0.0,0.0,0.0,0.0,0.0,0.0,0.0,6.4433,6.5705,6.7834,7.094,0.0,0.0,0.0,0.0,7.7289,7.7326,7.6628,7.6093,7.6093,7.4735,7.3722,7.3722,0.0,0.0,7.2569,7.3193,7.3927,7.4757,7.5432,7.5359,7.3068,7.2041,7.1454,7.127,7.1307,7.1417,7.1417,7.1344,7.1674,7.1417,0.0,0.0,0.0,0.0,6.743,6.8298,6.9582,6.9839,6.9912,6.9876,6.9082,0.0,0.0,0.0,0.0,0.0,0.0,6.8715,6.8825,7.0403,7.1541,7.2275,7.1505,7.1541,7.2275,7.1505,7.0293,6.8678,6.7197,6.4567,6.0933,0.0,0.0,0.0,0.0,6.6169,6.9302,7.1248,7.2922,7.4551,7.4551,7.3927,7.2532,7.105,6.9119,6.6746,6.4787,6.3025,6.1471,6.0003,0.0,0.0,0.0,0.0,0.0,0.0,0.0,0.0,0.0,0.0,0.0,0.0,0.0,0.0,0.0,0.0,0.0,0.0,0.0,5.8008,5.8547,5.8866,0.0,0.0,0.0,0.0,0.0,0.0,0.0,0.0,0.0,6.9119,6.9619,7.0697,0.0,0.0,7.5579,7.6019,7.6775,7.7326,7.7326,7.6607,0.0,7.613,7.5249,7.4551,7.4551,7.4353,7.4221,7.4206,7.4404,7.4808,7.5601,7.5946,7.6019,7.5968,7.527,7.4368,7.3377,7.3487,7.3839,7.3876,7.4294,7.494,7.8112,7.4001,7.2092,7.127,7.127,7.127,7.2004,7.3179,7.3215,7.3032,7.2701,7.2202,7.0954,6.9119,6.8591,0.0,0.0,0.0,7.2165,7.2532,7.3817,7.4845,7.5542,7.4808,7.4845,7.5557,7.4478,7.3266,7.1982,7.0866,6.8678,6.5448,0.0,0.0,6.4261,6.5875,6.8004,7.0513,7.2496,7.4059,7.5344,7.5395,7.4757,7.3487,7.2371,7.0793,6.8728,6.6673,6.4677,6.2866,6.1435,6.0187,0.0,0.0,0.0,0.0,0.0,0.0,0.0,0.0,0.0,0.0,0.0,5.7997,5.7997,0.0,0.0,0.0,5.8767,5.8951,5.8951,5.938,0.0,0.0,0.0,0.0,0.0,0.0,0.0,6.5424,6.8054,7.0463,7.2055,7.2812,7.3546,7.4515,7.5469,7.6203,7.6533,0.0,7.7326,7.7326,7.7179,7.6974,7.6628,7.646,7.6261,7.5894,7.5858,7.5858,7.5858,7.5858,7.6004,7.6445,7.6864,7.7231,7.7729,7.7635,7.7194,7.5961,7.6276,7.6827,7.6827,7.7231,7.7708,8.4792,8.237,7.7781,7.5711,7.538,7.538,7.5873,7.657,7.657,7.6114,7.538,7.5307,7.3964,7.1711,7.1747,0.0,7.2973,7.461,7.5784,7.6497,7.7326,7.8096,7.8846,7.806,7.806,7.8736,7.7231,7.6056,7.5124,7.3692,7.2569,7.1674,6.8114,6.6463,6.6953,6.8421,6.9986,7.16,7.3839,7.538,7.6166,7.6203,7.5799,7.4977,7.3472,7.1908,7.0257,6.8655,6.6329,6.3306,6.2903,6.1802,5.9673,0.0,0.0,0.0,0.0,0.0,0.0,0.0,0.0,0.0,0.0,0.0,0.0,0.0,0.0,0.0,6.0003,0.0,6.0493,6.0603,0.0,0.0,0.0,6.3429,6.4286,6.5815,6.7113,6.7871,0.0,0.0,7.3707,7.5285,7.6276,7.6313,7.6276,7.6555,7.7289,7.7509,7.7509,7.7619,7.817,7.8405,7.7729,7.8112,7.8295,7.7619,7.7509,7.7509,7.7509,7.7509,7.7509,7.7546,7.8185,7.8662,7.8662,7.925,7.9669,7.8846,7.9213,7.9743,7.9706,7.9706,7.9779,8.8225,8.7455,8.5106,8.237,7.958,7.9528,8.0021,8.0718,8.0755,8.0314,7.9507,7.8883,7.7268,7.4992,7.5601,7.5968,7.6261,7.85,7.9653,7.9874,8.0681,8.1158,8.1342,8.1122,8.0828,8.0424,8.0005,7.9103,7.7745,7.7341,7.6717,7.5858,7.4903,7.3032,7.0279,7.1138,7.2445,7.4023,7.5212,7.6203,7.6995,7.7032,7.6628,7.5836,7.4882,7.3289,7.1123,6.9486,6.7687,6.5705,6.3833,6.2536,6.1949,6.0224,0.0,0.0,0.0,0.0,0.0,0.0,0.0,0.0,0.0,5.8939,5.8939,0.0,5.9905,0.0,6.086,6.13,6.13,6.2438,0.0,0.0,6.5154,6.5962,6.6783,6.8274,6.9559,7.0367,7.2555,7.4426,7.5395,7.6974,7.8002,7.8002,7.8002,7.8075,7.8295,7.8809,7.9213,7.9176,7.9323,7.9449,7.925,7.9376,7.9396,7.9265,7.9176,7.9176,7.9176,7.9229,7.9229,7.9213,7.936,7.9522,7.9522,8.0167,8.0608,8.0424,8.0094,8.0,8.0571,8.0718,8.0901,9.1345,9.0978,9.0115,8.8206,8.571,8.4278,8.3911,8.4352,8.4352,8.3875,8.3067,8.1929,8.0645,7.9381,7.9454,7.9858,8.0629,8.1986,8.2994,8.3675,8.3765,8.3801,8.3765,8.3434,8.303,8.259,8.2243,8.1599,8.0755,8.0351,7.9947,7.9491,7.9124,7.7839,7.5674,7.4977,7.5087,7.5968,7.6408,7.6848,7.7289,7.7326,7.6922,7.6093,7.4955,7.323,7.0866,6.9192,6.7614,6.6022,6.4664,6.3563,6.2829,6.1545,6.0481,0.0,0.0,0.0,0.0,0.0,0.0,0.0,0.0,0.0,0.0,0.0,6.1263,6.1998,6.3099,6.3759,6.3759,6.4934,6.6048,6.6843,6.7614,6.8421,6.9229,7.0697,7.1872,7.2349,7.4184,7.5726,7.6555,7.7781,7.8736,7.9082,7.947,7.9543,7.9213,7.9522,7.9816,7.9816,8.011,8.0314,8.0314,8.0036,7.9816,7.9816,7.9816,7.9816,7.9816,7.9816,7.9816,7.9816,8.011,8.0314,8.0367,8.0975,8.1525,8.1489,8.1195,8.1048,8.1415,8.1525,8.1709,9.4336,9.3712,9.3602,9.3051,9.206,8.9253,8.7895,8.7619,8.7491,8.6958,8.6004,8.4629,8.3968,8.3821,8.3251,8.3728,8.5049,8.5159,8.595,8.7234,8.6591,8.6261,8.6241,8.5563,8.5159,8.5049,8.4225,8.3821,8.3675,8.2884,8.248,8.248,8.1819,8.1452,8.1379,7.9197,7.7949,7.7619,7.7546,7.7472,7.7472,7.7362,7.6922,7.6093,7.4551,7.2583,7.0183,6.8655,6.71,6.5545,6.5435,6.4774,6.338,6.305,6.2352,0.0,6.0896,0.0,0.0,0.0,0.0,0.0,0.0,0.0,0.0,6.212,6.2879,6.4433,6.5925,6.6843,6.6953,6.7687,6.8531,6.9412,7.0146,7.0881,7.1711,7.3193,7.4147,7.4147,7.5579,7.6864,7.7582,7.8369,7.9176,7.989,8.0608,8.0828,8.0293,8.0183,8.0257,8.011,8.0681,8.1158,8.1085,8.0608,8.022,8.0147,8.022,8.011,8.0183,8.0183,8.0147,8.022,8.0718,8.1158,8.1158,8.1709,8.215,8.2113,8.2076,8.2113,8.2296,8.2333,8.237,9.7126,9.6962,9.6282,9.5547,9.4758,9.4134,9.2794,9.094,9.0225,8.9087,8.7729,8.7435,8.6958,8.639,8.6848,8.7215,8.7545,8.8189,8.8666,8.8923,8.8776,8.8739,8.8702,8.8556,8.8152,8.7472,8.6701,8.6004,8.5343,8.4535,8.4132,8.4132,8.3985,8.3911,8.3875,0.0,0.0,0.0,7.8699,7.8369,7.8332,7.7656,7.6922,7.6093,7.4529,0.0,7.022,6.9192,6.7944,6.6366,6.6256,0.0,0.0,0.0,0.0,0.0,0.0,0.0,0.0,0.0,0.0,0.0,6.5411,6.4861,6.3809,6.4824,6.5962,6.693,6.7871,6.8715,6.9339,7.0146,7.1211,7.2606,7.2936,7.334,7.4169,7.5637,7.6628,7.6628,7.8038,7.9119,7.9302,8.0021,8.0571,8.0791,8.1452,8.1893,8.1709,8.1652,8.1709,8.1746,8.1782,8.1929,8.1966,8.1782,8.1615,8.1762,8.1762,8.1709,8.1636,8.1689,8.1709,8.1689,8.1872,8.1966,8.1966,8.2129,8.2186,8.2186,8.2186,8.2406,8.3014,8.3161,8.3344,9.9678,9.9585,9.8814,9.8264,0.0,9.7437,9.6575,9.529,9.3308,9.195,9.1143,9.0335,8.9748,8.9344,8.8959,8.9014,8.9417,8.9821,9.0207,9.0537,9.017,8.9987,8.9987,8.9583,8.9179,8.8776,8.8372,8.7968,8.7582,8.7178,8.6757,8.6371,8.5967,8.56,8.5196,8.4372,8.281,8.0424,7.9596,7.9192,7.9192,7.8369,7.7378,7.6093,7.4515,0.0,0.0,0.0,0.0,0.0,0.0,0.0,0.0,6.6122,0.0,6.5301,6.5645,6.5865,6.5902,6.6623,6.7233,6.765,6.8421,6.8201,6.6586,6.7944,6.9045,6.9449,7.055,7.1431,7.1835,7.2606,7.3399,7.4221,7.4992,7.5637,7.6151,7.7546,7.8516,7.8589,7.9265,7.9963,8.0351,8.0718,8.1158,8.1562,8.1929,8.2186,8.2186,8.2186,8.2186,8.2186,8.2186,8.2186,8.2186,8.2186,8.2186,8.2186,8.2186,8.2186,8.2186,8.2186,8.2186,8.2186,8.2186,8.2186,8.2186,8.2186,8.2186,8.2223,8.2517,8.303,8.3765,8.3675,8.3638,10.1955,10.1881,10.12,10.0833,10.065,9.9879,9.9365,9.8868,9.5988,0.0,0.0,9.2831,9.2244,9.2134,9.0831,9.0537,9.1014,9.1069,9.1326,9.1767,9.1106,9.0812,9.0776,9.0134,8.984,8.9803,8.9693,8.962,8.9583,8.9473,8.9069,8.8426,8.7748,8.7105,8.6407,8.549,8.4058,8.2113,8.0828,8.022,8.0183,7.9286,7.8002,7.635,7.4882,7.2606,6.9435,6.8678,6.7907,6.699,6.7063,6.7136,6.7136,6.7774,6.7847,6.7247,6.7921,6.8361,6.8361,6.9082,6.9582,6.9743,7.1087,7.1307,6.9853,7.0977,7.1784,7.1931,7.3266,7.4184,7.4331,7.5065,7.5601,7.5763,7.6959,7.7729,7.7839,7.9066,7.9947,8.0036,8.0183,8.0461,8.1122,8.1232,8.1452,8.2003,8.215,8.2186,8.2186,8.2186,8.2186,8.2186,8.2186,8.2186,8.2186,8.2186,8.2186,8.2186,8.2186,8.2186,8.2186,8.2186,8.2186,8.2186,8.2186,8.2186,8.2186,8.2186,8.2186,8.2186,8.27,8.3491,8.4262,8.4095,8.3985,10.3607,10.3549,10.3439,10.2999,10.2301,10.1494,10.0393,9.8961,9.7163,9.5584,9.4263,9.4042,9.3932,9.3932,9.3712,9.3308,9.2758,9.2758,9.2427,9.1803,9.1693,9.162,9.162,9.151,9.1473,9.14,9.0739,9.0445,9.0354,8.9767,8.9326,8.9216,8.9106,8.8996,8.8776,8.7418,8.65,8.6097,8.3324,8.1872,8.1819,8.0404,7.8809,7.7215,7.6276,7.4258,7.1123,7.0866,7.0096,6.8678,6.9229,6.961,6.9596,6.9706,6.9706,6.9633,7.0367,7.0793,7.0793,7.1527,7.2275,7.2973,7.3891,7.4001,7.312,7.323,7.3634,7.4353,7.5285,7.6056,7.6738,7.7524,7.8222,7.8898,7.9265,7.9449,7.9412,8.0241,8.0828,8.0828,8.1452,8.1782,8.1893,8.1966,8.1966,8.215,8.2186,8.2186,8.2186,8.2186,8.2186,8.2186,8.2186,8.2186,8.2186,8.2186,8.2186,8.2186,8.2186,8.2186,8.2186,8.2186,8.2186,8.2186,8.2186,8.2186,8.2186,8.2186,8.2186,8.2223,8.2406,8.2994,8.4315,8.4499,8.4939,10.6559,10.6449,10.5642,10.5054,10.4614,10.3329,10.1898,10.0393,9.9622,9.8411,9.6869,9.5988,9.5584,9.5511,9.4703,9.4079,9.3749,9.3749,9.3529,9.3161,9.3161,9.3125,9.3088,9.2721,9.2501,9.2427,9.1657,9.1253,9.1216,9.0886,9.0482,9.006,8.962,8.94,8.9326,8.8666,8.8299,8.8225,8.5159,8.3508,8.3471,8.1929,8.0534,7.9307,7.8112,7.613,7.3362,7.3252,7.2518,7.0903,7.1211,7.1394,7.1431,7.1798,7.2069,7.2092,7.2826,7.3252,7.3252,7.3986,7.4808,7.5616,7.6423,7.6974,7.7026,7.6166,7.6019,7.6827,7.7635,7.8274,7.8626,7.8993,7.9412,7.9743,8.0167,8.0424,8.0534,8.1158,8.1636,8.1672,8.1966,8.2186,8.2186,8.2186,8.2186,8.2186,8.2186,8.2186,8.2186,8.2186,8.2186,8.2186,8.2186,8.2186,8.2186,8.2186,8.2186,8.2186,8.2186,8.2186,8.2186,8.2186,8.2186,8.2186,8.2186,8.2186,8.2186,8.2186,8.2186,8.226,8.259,8.3324,8.4315,8.5233,8.6133,10.8799,10.8652,10.744,10.6743,10.6266,10.4798,10.3366,10.2101,10.2045,10.131,10.0026,9.8117,9.7236,9.7089,9.5731,9.4997,9.485,9.463,9.4483,9.4299,9.4299,9.4299,9.4226,9.3639,9.3382,9.3308,9.2684,9.2354,9.2354,9.217,9.1693,9.0886,9.0244,8.995,8.995,8.9767,8.9657,8.951,8.7051,8.5527,8.5086,8.3581,8.2333,8.1509,8.0167,7.8332,7.6166,7.5836,7.505,7.3692,7.3582,7.3597,7.3619,7.4184,7.4515,7.4588,7.5285,7.5821,7.6019,7.657,7.7194,7.7803,7.8647,7.947,8.011,7.9344,7.8757,7.9176,7.9837,8.0404,8.0661,8.0844,8.0881,8.0918,8.1232,8.1562,8.1599,8.1966,8.2186,8.2186,8.2186,8.2186,8.2186,8.2186,8.2186,8.2186,8.2186,8.2186,8.2186,8.2186,8.2186,8.2186,8.2186,8.2186,8.2186,8.2186,8.2186,8.2186,8.2186,8.2186,8.2186,8.2186,8.2186,8.2186,8.2186,8.2186,8.2186,8.2186,8.2186,8.2223,8.259,8.3361,8.4425,8.5416,8.6427,10.8835,10.8799,10.8615,10.7734,10.6376,10.5422,10.4504,10.3733,10.366,10.3623,10.2999,10.0246,9.8924,9.8778,9.7933,9.7126,9.6428,9.5712,9.507,9.4446,9.4299,9.4299,9.441,9.4263,9.4189,9.4189,9.4042,9.3896,9.3859,9.3308,9.2537,9.1767,9.162,9.1583,9.151,9.0886,9.0519,9.0482,8.9473,8.8262,8.6794,8.5196,8.4022,8.3197,8.2333,8.1085,7.936,7.8626,7.7855,7.6959,7.6885,7.6885,7.6885,7.6959,7.6959,7.6995,7.7781,7.8552,7.9229,7.9412,7.9522,7.9633,8.0351,8.1158,8.1946,8.2443,8.2207,8.1342,8.1562,8.226,8.2977,8.3581,8.3801,8.3691,8.3398,8.3161,8.3051,8.259,8.2186,8.2186,8.2296,8.2186,8.2223,8.2186,8.2186,8.2186,8.2186,8.2186,8.2186,8.2186,8.2186,8.2186,8.2186,8.2186,8.2186,8.2186,8.2186,8.2186,8.2186,8.2186,8.2186,8.2186,8.2186,8.2186,8.2186,8.2186,8.2186,8.2186,8.2186,8.2223,8.248,8.2884,8.4132,8.4903,8.5306,11.023,11.0157,10.9716,10.8872,10.7771,10.6926,10.6119,10.5348,10.4834,10.4357,10.377,10.2485,10.142,10.0429,9.9181,9.8411,9.808,9.7787,9.7493,9.7089,9.6649,9.6448,9.6355,9.5401,9.5034,9.496,9.4556,9.4299,9.4226,9.3969,9.3602,9.3308,9.3272,9.3272,9.3198,9.2464,9.2097,9.2024,9.0794,8.982,8.9154,8.7157,8.5894,8.5436,8.4315,8.3104,8.2039,8.1599,8.1048,8.0262,8.0204,8.0204,8.0167,7.9764,7.9491,7.9491,7.9784,8.0167,8.0498,8.1379,8.1929,8.1929,8.2663,8.3287,8.3581,8.3948,8.3985,8.3911,8.3728,8.3765,8.4115,8.4425,8.4609,8.4572,8.4298,8.4132,8.4095,8.3838,8.3471,8.303,8.292,8.27,8.2296,8.2186,8.2186,8.2186,8.2186,8.2186,8.2186,8.2186,8.2186,8.2186,8.2186,8.2186,8.2186,8.2186,8.2186,8.2186,8.2186,8.2186,8.2186,8.2186,8.2186,8.2186,8.2186,8.2186,8.2186,8.2186,8.2186,8.2333,8.3214,8.3875,8.4499,8.4976,8.527,11.1221,11.1074,11.034,10.9665,10.9055,10.8306,10.7609,10.7037,10.6376,10.5678,10.4908,10.4687,10.3806,10.2375,10.0796,9.9989,9.9769,9.9548,9.9292,9.9071,9.8484,9.819,9.808,9.7089,9.6483,9.6373,9.5951,9.5437,9.5016,9.4778,9.4613,9.4429,9.4448,9.4485,9.4393,9.3842,9.3584,9.3437,9.215,9.1523,9.1334,8.9352,8.8032,8.7738,8.6436,8.53,8.4492,8.4185,8.3691,8.2884,8.2847,8.2847,8.281,8.2296,8.2003,8.2003,8.1966,8.1986,8.2003,8.3087,8.3711,8.3785,8.4646,8.527,8.5343,8.5673,8.6151,8.6628,8.6261,8.584,8.5306,8.527,8.527,8.527,8.5123,8.4939,8.4903,8.4792,8.4315,8.3838,8.3711,8.3418,8.27,8.237,8.2186,8.2186,8.2186,8.2186,8.2186,8.2186,8.2186,8.2186,8.2186,8.2186,8.2186,8.2186,8.2186,8.2186,8.2186,8.2186,8.2186,8.2186,8.2186,8.2186,8.2186,8.2186,8.2186,8.2186,8.2406,8.27,8.3471,8.4499,8.4939,8.5306,8.5159,11.1221,11.1111,11.034,11.0032,10.9885,10.9092,10.8725,10.8578,10.8542,10.8101,10.7278,10.6596,10.5789,10.485,10.3329,10.2118,10.1367,10.0686,10.0026,9.9438,9.9218,9.9088,9.9052,9.8941,9.8924,9.8741,9.854,9.7879,9.665,9.6085,9.5332,9.4743,9.5072,9.5032,9.5032,9.4995,9.4847,9.4699,9.3887,9.3444,9.3313,9.1855,9.0674,8.9952,8.8843,8.7857,8.7104,8.6216,8.536,8.4572,8.4642,8.4589,8.4552,8.4479,8.4405,8.4315,8.4389,8.4425,8.4389,8.4646,8.4756,8.4866,8.6097,8.6904,8.6978,8.8005,8.8739,8.9106,8.8849,8.8299,8.7124,8.6794,8.6794,8.6775,8.6151,8.5783,8.5747,8.5196,8.4682,8.4535,8.4462,8.4132,8.3418,8.2663,8.2443,8.237,8.2296,8.2333,8.2443,8.2333,8.237,8.237,8.237,8.2223,8.2223,8.2186,8.2186,8.2186,8.2186,8.2186,8.2186,8.2186,8.2186,8.226,8.2333,8.237,8.2223,8.2406,8.281,8.3141,8.3544,8.4315,8.527,8.4939,8.4866,11.1662,11.1184,11.0891,11.0744,11.0671,10.99,10.9533,10.9554,10.9019,10.8652,10.8358,10.8064,10.7734,10.7404,10.6339,10.4818,10.3072,10.2705,10.2412,10.2118,10.1641,10.142,10.131,10.0393,9.9879,9.9825,9.9466,9.9086,9.8704,9.8373,9.8208,9.8115,9.8114,9.7963,9.7514,9.7012,9.653,9.5974,9.5195,9.4838,9.494,9.4362,9.3743,9.2933,9.0691,8.935,8.9038,8.8693,8.8364,8.8069,8.8069,8.8069,8.7958,8.7057,8.5975,8.5029,8.5785,8.627,8.6278,8.7088,8.7675,8.7711,8.8152,8.8519,8.8629,8.9069,8.94,8.94,8.94,8.9033,8.8666,8.8096,8.7766,8.7655,8.7068,8.6554,8.6554,8.628,8.5967,8.5453,8.4976,8.4462,8.4242,8.3911,8.3728,8.3728,8.3728,8.3691,8.3728,8.3728,8.3654,8.3728,8.3728,8.3728,8.3728,8.2737,8.2186,8.2186,8.2186,8.226,8.226,8.2406,8.2443,8.2627,8.2663,8.2957,8.2994,8.3361,8.3654,8.3985,8.4352,8.4792,8.569,8.5527,8.5416,11.2322,11.1625,11.1588,11.1441,11.1148,11.0597,11.0377,11.0304,10.979,10.9423,10.9239,10.9202,10.9055,10.8725,10.8233,10.7147,10.5458,10.4687,10.4173,10.3843,10.3329,10.3109,10.2925,10.2052,10.1614,10.1507,10.1043,10.0738,10.0574,10.0445,10.0313,10.0232,10.034,10.0165,9.9687,9.9199,9.8639,9.8005,9.7073,9.6633,9.6676,9.6169,9.5731,9.5031,9.3136,9.1548,9.0716,9.0576,9.0395,9.021,9.0173,9.0102,8.9941,8.9054,8.7899,8.6849,8.7486,8.799,8.798,8.8811,8.9363,8.94,8.9657,8.9803,8.9803,9.0024,9.0188,9.017,9.017,9.017,9.0024,8.9454,8.8867,8.8573,8.7876,8.7381,8.7381,8.7142,8.6757,8.6224,8.5527,8.5086,8.4939,8.4719,8.4572,8.4609,8.4609,8.4609,8.4609,8.4609,8.4609,8.4609,8.4499,8.4462,8.4389,8.3654,8.3324,8.3287,8.3067,8.292,8.2774,8.2847,8.2884,8.303,8.3287,8.3618,8.3985,8.4315,8.4646,8.4939,8.5159,8.549,8.5967,8.6224,8.604,11.3116,11.2432,11.2396,11.1919,11.1331,11.1126,11.1184,11.1111,11.1074,11.0597,11.0047,10.9973,10.9643,10.9055,10.8909,10.8725,10.8138,10.6339,10.5054,10.443,10.4173,10.4157,10.4141,10.4068,10.3988,10.4011,10.3792,10.3223,10.2501,10.2214,10.1806,10.1209,10.1471,10.1635,10.1361,10.1339,10.1248,10.0738,9.9574,9.8935,9.8748,9.7538,9.6727,9.6539,9.6231,9.4857,9.2315,9.1976,9.1545,9.0897,9.0711,9.0451,9.0444,9.0226,9.0074,8.9707,8.9742,8.9713,8.9607,8.9597,8.9692,8.973,9.0225,9.0629,9.0702,9.1179,9.1546,9.151,9.1546,9.1657,9.1473,9.0922,9.017,8.9473,8.8666,8.8206,8.7986,8.7472,8.6978,8.6831,8.6261,8.582,8.5637,8.5306,8.4976,8.4939,8.4903,8.4939,8.5013,8.5013,8.4756,8.4756,8.5013,8.5233,8.4939,8.4646,8.4646,8.4609,8.4352,8.4132,8.3948,8.3948,8.3875,8.3985,8.4242,8.4609,8.4996,8.5306,8.538,8.5673,8.5894,8.6114,8.6407,8.6628,8.6444,11.3446,11.3189,11.2616,11.2249,11.1955,11.1441,11.1221,11.1221,11.1221,11.1038,11.0854,11.0817,11.0671,11.0377,10.99,10.9606,10.9496,10.8248,10.7514,10.7183,10.6691,10.646,10.6422,10.5585,10.5036,10.4946,10.5024,10.5034,10.4877,10.484,10.4884,10.4957,10.4923,10.4545,10.3729,10.3668,10.3252,10.2042,10.1513,10.1248,10.1173,10.0152,9.932,9.8753,9.8148,9.7082,9.5711,9.4624,9.3956,9.3642,9.3155,9.254,9.1954,9.1774,9.1326,9.0513,9.086,9.0886,9.0634,9.0971,9.1139,9.1105,9.1289,9.14,9.1436,9.162,9.1803,9.1803,9.1803,9.1803,9.173,9.162,9.1069,9.0317,8.951,8.8776,8.828,8.7545,8.7088,8.6978,8.6775,8.6664,8.6628,8.628,8.6244,8.6261,8.6261,8.6261,8.6244,8.6261,8.6261,8.6261,8.6261,8.6151,8.6077,8.5894,8.5783,8.56,8.5306,8.5123,8.5013,8.4976,8.4903,8.4976,8.5233,8.5527,8.593,8.6133,8.617,8.6317,8.6554,8.6775,8.6941,8.6867,8.6701,11.4305,11.3974,11.3497,11.3093,11.2763,11.1992,11.1662,11.1588,11.1331,11.1221,11.1221,11.1221,11.1221,11.1111,11.0671,11.045,11.0377,10.99,10.9723,10.9604,10.8548,10.8156,10.8282,10.7724,10.7118,10.6975,10.729,10.719,10.6744,10.6972,10.7075,10.7078,10.713,10.6761,10.6052,10.5969,10.5311,10.417,10.3701,10.3359,10.2991,10.2231,10.1546,10.0976,10.0164,9.9518,9.8884,9.7471,9.643,9.5871,9.5136,9.4359,9.3721,9.3324,9.272,9.2048,9.1982,9.2089,9.1739,9.1953,9.2162,9.2038,9.1966,9.1912,9.1912,9.1876,9.1803,9.1803,9.1803,9.1803,9.1803,9.1803,9.1546,9.1143,9.0317,8.951,8.8757,8.8189,8.7968,8.7968,8.7932,8.7895,8.7895,8.7895,8.7895,8.7895,8.7895,8.7895,8.7895,8.7895,8.7858,8.7729,8.7509,8.7435,8.7399,8.7215,8.6941,8.6574,8.6151,8.6004,8.5894,8.5894,8.5857,8.593,8.6151,8.6224,8.6591,8.6684,8.6757,8.6978,8.7014,8.7014,8.7014,8.7014,8.6867,11.5626,11.4965,11.4818,11.4305,11.3593,11.28,11.2396,11.2249,11.1662,11.1295,11.1221,11.1221,11.1221,11.1221,11.1111,11.1074,11.117,11.1082,11.1103,11.088,10.9917,10.9245,10.9169,10.9594,10.9677,10.968,11.0119,10.9701,10.8626,10.8864,10.847,10.8298,10.8347,10.8063,10.8118,10.822,10.7647,10.6743,10.6068,10.5392,10.4628,10.3761,10.3226,10.3073,10.2247,10.1712,10.1383,10.0113,9.8701,9.7438,9.6462,9.5927,9.5599,9.486,9.4185,9.3687,9.3448,9.3083,9.2876,9.2576,9.2407,9.2392,9.2215,9.2109,9.2091,9.2002,9.1912,9.1912,9.1894,9.1876,9.1894,9.1894,9.1839,9.1711,9.0977,9.017,8.962,8.9363,8.9106,8.9179,8.9363,8.9363,8.9179,8.9179,8.9179,8.9179,8.9143,8.9069,8.9069,8.8959,8.9253,8.8996,8.85,8.839,8.8225,8.7692,8.7472,8.7288,8.6848,8.6591,8.6518,8.6518,8.6554,8.6684,8.6721,8.6904,8.6995,8.6978,8.7014,8.7014,8.7014,8.7014,8.7014,8.7014,8.7014,11.6764,11.6447,11.5296,11.4672,11.4378,11.3607,11.2946,11.2432,11.2212,11.1808,11.1368,11.1221,11.1258,11.1221,11.1221,11.1272,11.1404,11.1447,11.1576,11.1716,11.153,11.0676,11.0165,11.0591,11.1021,11.1089,11.1544,11.1713,11.1495,11.1491,11.1675,11.1812,11.1022,11.0652,11.029,10.9713,10.8959,10.8269,10.7963,10.735,10.6518,10.5675,10.4947,10.4334,10.3519,10.3097,10.2982,10.2024,10.0282,9.8122,9.7622,9.731,9.706,9.6184,9.5477,9.5084,9.4263,9.3633,9.3338,9.3054,9.2822,9.2616,9.2661,9.2303,9.234,9.2268,9.2233,9.2233,9.2233,9.2233,9.2233,9.2215,9.2162,9.191,9.1251,9.061,9.028,8.9767,8.94,8.94,8.9473,8.951,8.9546,8.9546,8.9546,8.9546,8.9546,8.9546,8.9693,8.9693,8.9803,8.951,8.9143,8.9106,8.8886,8.8316,8.7949,8.7839,8.7435,8.6958,8.6885,8.6831,8.6867,8.6941,8.6867,8.6978,8.6978,8.7014,8.7014,8.7014,8.7014,8.7014,8.7014,8.7014,8.7014,11.7535,11.7108,11.6213,11.5626,11.5222,11.4451,11.3827,11.3387,11.302,11.2689,11.2235,11.1919,11.1853,11.1816,11.1609,11.1533,11.1683,11.1731,11.1958,11.2189,11.2556,11.2268,11.1805,11.2164,11.2424,11.2397,11.291,11.3018,11.2908,11.3135,11.3329,11.3263,11.3069,11.2592,11.2191,11.1416,11.0632,10.9902,10.948,10.8827,10.7982,10.7483,10.683,10.6024,10.5179,10.4488,10.372,10.2826,10.1388,9.9699,9.8937,9.8617,9.8375,9.751,9.6819,9.6472,9.5681,9.5129,9.4827,9.456,9.4308,9.4168,9.3987,9.3647,9.3378,9.3162,9.3057,9.265,9.265,9.2599,9.253,9.2461,9.2375,9.2196,9.1704,9.1285,9.1142,9.0739,9.0427,9.0408,9.0408,9.0408,9.0408,9.0372,9.0408,9.0427,9.0537,9.0537,9.0555,9.0408,9.0335,9.0206,8.9968,8.9913,8.9693,8.916,8.8647,8.85,8.8262,8.7711,8.7344,8.7234,8.7161,8.7161,8.7088,8.7088,8.7198,8.7198,8.7014,8.7014,8.7014,8.7088,8.7124,8.7344,8.7308,11.8122,11.7461,11.7254,11.6801,11.6066,11.5259,11.4818,11.4635,11.4056,11.3675,11.3462,11.3051,11.2924,11.2835,11.2401,11.2121,11.2168,11.2304,11.2475,11.2847,11.3336,11.3493,11.3504,11.3722,11.3871,11.3776,11.4267,11.4193,11.398,11.3964,11.3946,11.4121,11.405,11.3931,11.3646,11.311,11.2472,11.172,11.094,11.0132,10.9363,10.8979,10.8402,10.7594,10.6787,10.5672,10.449,10.3452,10.242,10.136,10.0369,9.9835,9.9545,9.8757,9.8143,9.7766,9.7273,9.6828,9.6762,9.634,9.6269,9.6012,9.5894,9.5625,9.4756,9.4328,9.3912,9.3391,9.3065,9.2996,9.2885,9.2647,9.2562,9.2528,9.2439,9.2268,9.202,9.1894,9.1858,9.1839,9.1839,9.1839,9.1876,9.1876,9.1803,9.1358,9.1433,9.1414,9.1378,9.1305,9.1361,9.1416,9.1123,9.0721,9.0427,9.006,8.9583,8.9216,8.9106,8.8666,8.8005,8.7748,8.7528,8.7491,8.7858,8.7895,8.7711,8.7565,8.7418,8.7528,8.7895,8.7638,8.7418,8.7822,8.7932,11.9223,11.8966,11.7718,11.7131,11.6837,11.6066,11.5369,11.4841,11.4838,11.456,11.4074,11.3939,11.4059,11.4154,11.3519,11.3255,11.3375,11.3163,11.3225,11.3855,11.3976,11.4405,11.4629,11.4745,11.477,11.4926,11.5231,11.5447,11.5533,11.5476,11.5736,11.5713,11.5175,11.4989,11.4835,11.4154,11.3676,11.333,11.2599,11.1714,11.0868,11.0252,10.956,10.8675,10.7867,10.6944,10.5944,10.502,10.4154,10.3142,10.1841,10.0934,10.0642,9.9802,9.9216,9.8891,9.8157,9.7566,9.7374,9.7209,9.6861,9.6855,9.6748,9.6321,9.5998,9.5299,9.4894,9.4504,9.4092,9.3642,9.3488,9.3317,9.3157,9.3044,9.2914,9.2798,9.2663,9.2442,9.2268,9.225,9.225,9.225,9.2287,9.2268,9.225,9.225,9.225,9.225,9.2198,9.2127,9.2074,9.2056,9.18,9.1397,9.1213,9.0901,9.0516,9.0186,9.0021,8.9858,8.9197,8.8812,8.8739,8.8812,8.8959,8.8812,8.8372,8.8592,8.8592,8.8702,8.8739,8.8556,8.8445,8.8592,8.8556,12.0029,11.9645,11.8469,11.7803,11.7416,11.6666,11.6077,11.5768,11.5842,11.5753,11.5404,11.5286,11.5336,11.5569,11.4908,11.4584,11.431,11.3893,11.3938,11.4454,11.4629,11.4937,11.5326,11.5369,11.5439,11.5671,11.5855,11.612,11.6253,11.6359,11.6339,11.6484,11.6022,11.5869,11.5753,11.5022,11.4638,11.4407,11.3753,11.2906,11.2099,11.1637,11.0675,10.9598,10.8713,10.7867,10.7021,10.6174,10.5328,10.4395,10.3201,10.2248,10.1766,10.0903,10.0365,10.0125,9.9645,9.9114,9.8919,9.8707,9.8576,9.8299,9.8204,9.7866,9.739,9.6616,9.5937,9.5484,9.4829,9.4245,9.4052,9.3844,9.3695,9.3642,9.3488,9.3358,9.3279,9.2963,9.263,9.263,9.263,9.263,9.263,9.268,9.2663,9.2626,9.2647,9.2647,9.253,9.2444,9.232,9.2268,9.2162,9.2016,9.198,9.1741,9.1448,9.1228,9.1102,9.0976,9.0647,9.0408,9.0207,8.9987,8.962,8.9363,8.9069,8.9363,8.951,8.9253,8.9216,8.9326,8.9363,8.9216,8.9143,12.0795,12.0145,11.9284,11.8609,11.8049,11.7206,11.6784,11.6784,11.6886,11.6953,11.7043,11.6698,11.6823,11.6985,11.6463,11.5821,11.5181,11.4607,11.4629,11.5071,11.524,11.5481,11.5763,11.5881,11.5945,11.6008,11.6157,11.6289,11.6347,11.6428,11.6473,11.6484,11.6484,11.6369,11.6253,11.5869,11.5484,11.533,11.4638,11.3945,11.3176,11.2791,11.1752,11.056,10.956,10.8867,10.8098,10.7213,10.6251,10.5482,10.4597,10.3751,10.3,10.2181,10.1447,10.1436,10.1034,10.0699,10.0356,10.0342,10.0198,10.0152,10.0063,9.9695,9.8869,9.8071,9.7274,9.635,9.5578,9.4781,9.4613,9.4387,9.4259,9.4189,9.409,9.407,9.3932,9.3513,9.3326,9.3109,9.312,9.3136,9.3157,9.3157,9.3072,9.3023,9.3061,9.3028,9.2934,9.2801,9.2731,9.2596,9.2528,9.2476,9.2385,9.2299,9.2042,9.1953,9.1957,9.1834,9.1709,9.1434,9.103,9.0445,9.006,8.9913,8.995,9.0244,9.0188,8.9767,8.9913,9.028,9.017,8.9803,8.984,12.184,12.1209,11.9934,11.9342,11.9037,11.7838,11.7333,11.7317,11.7646,11.7808,11.787,11.8072,11.8336,11.8494,11.7942,11.7094,11.628,11.5476,11.5231,11.5618,11.5776,11.5919,11.6108,11.6181,11.6265,11.6347,11.6359,11.6359,11.6428,11.6484,11.6484,11.6484,11.6484,11.6484,11.6457,11.6341,11.6176,11.6061,11.5456,11.4907,11.4445,11.3407,11.2406,11.1329,11.0483,10.9944,10.9444,10.8329,10.7405,10.7136,10.5713,10.4992,10.452,10.3846,10.3065,10.2379,10.2173,10.1887,10.1318,10.1067,10.0885,10.0708,10.0703,10.0619,10.0078,9.9393,9.8454,9.7527,9.6324,9.5365,9.5107,9.5186,9.4895,9.4779,9.4765,9.4739,9.4712,9.4478,9.4231,9.3932,9.3829,9.3725,9.3725,9.3725,9.3725,9.3725,9.371,9.365,9.3528,9.3358,9.3253,9.3093,9.2914,9.2864,9.2794,9.2714,9.2572,9.2502,9.2417,9.2279,9.2194,9.209,9.1707,9.1122,9.0995,9.1106,9.1179,9.1143,9.1069,9.0849,9.1069,9.1289,9.1033,9.0739,9.0996,12.2449,12.1844,12.0501,12.0063,11.9889,11.8656,11.7989,11.8047,11.8355,11.8543,11.8654,11.8908,11.9242,11.9417,11.93,11.8524,11.7384,11.6098,11.5801,11.5983,11.6083,11.6157,11.6312,11.6359,11.6428,11.65,11.6428,11.6416,11.6484,11.6484,11.6484,11.6484,11.6484,11.6484,11.6484,11.6457,11.6484,11.6369,11.611,11.5687,11.5264,11.3945,11.3022,11.2214,11.1675,11.1098,11.0098,10.9598,10.8521,10.7713,10.6905,10.629,10.5828,10.5356,10.4605,10.3565,10.3209,10.2976,10.2498,10.2351,10.2221,10.1614,10.1526,10.1274,10.0732,9.9983,9.919,9.8337,9.7867,9.6986,9.6996,9.6719,9.6688,9.6503,9.6165,9.5862,9.5748,9.547,9.5173,9.4855,9.4646,9.4538,9.4356,9.4356,9.4356,9.4394,9.4356,9.4259,9.4133,9.3975,9.3799,9.365,9.3497,9.3451,9.3373,9.3269,9.3141,9.3061,9.2934,9.2748,9.2579,9.2459,9.2233,9.1854,9.1912,9.1858,9.173,9.1473,9.1693,9.1803,9.1657,9.1583,9.1693,9.1767,9.1803,12.3154,12.2408,12.1147,12.0771,12.0701,11.9424,11.8818,11.8855,11.9053,11.9246,11.9434,11.958,11.984,12.0045,11.9813,11.9194,11.8153,11.6596,11.6097,11.6181,11.6277,11.6335,11.637,11.6428,11.6484,11.6484,11.6484,11.6484,11.6484,11.6484,11.6484,11.6484,11.6484,11.6484,11.6484,11.6484,11.6484,11.6484,11.6446,11.6061,11.5291,11.4599,11.383,11.2983,11.2829,11.1983,11.1021,11.0252,10.9483,10.8636,10.8021,10.7598,10.701,10.6895,10.629,10.5136,10.4482,10.4047,10.3737,10.3629,10.3203,10.263,10.2368,10.1908,10.1304,10.0499,9.9529,9.8964,9.8462,9.8337,9.8169,9.8319,9.8227,9.808,9.7506,9.7128,9.6992,9.6751,9.6511,9.6154,9.5698,9.5386,9.5224,9.4958,9.4958,9.4895,9.4883,9.4755,9.4651,9.4519,9.437,9.4245,9.4147,9.409,9.399,9.3844,9.3725,9.3635,9.3426,9.3189,9.2996,9.2798,9.2545,9.2285,9.202,9.193,9.1876,9.1822,9.1803,9.1803,9.1803,9.1803,9.1803,9.1803,9.1803,12.4319,12.3088,12.1942,12.1483,12.1329,12.0131,11.9563,11.958,11.9781,11.9957,12.0075,12.0296,12.0479,12.0375,11.939,11.8498,11.7625,11.6779,11.6289,11.6393,11.6428,11.645,11.6462,11.6473,11.6484,11.6484,11.6484,11.6484,11.6484,11.6484,11.6484,11.6484,11.6484,11.6484,11.6484,11.6484,11.6484,11.6484,11.6484,11.611,11.5495,11.5226,11.4638,11.3907,11.3176,11.2599,11.1983,11.106,11.006,10.979,10.9098,10.8713,10.8598,10.8598,10.8559,10.7713,10.6405,10.4674,10.4269,10.4182,10.4018,10.3593,10.3104,10.2634,10.195,10.0989,10.0067,9.9952,9.9249,9.8891,9.89,9.8675,9.8556,9.8584,9.8535,9.8323,9.8208,9.7748,9.7556,9.7622,9.72,9.6549,9.61,9.5772,9.5509,9.5475,9.5391,9.5263,9.5167,9.5007,9.4883,9.4768,9.4716,9.4664,9.4559,9.4424,9.4325,9.4189,9.3954,9.3657,9.3442,9.3221,9.2901,9.2596,9.2303,9.202,9.1912,9.1858,9.1822,9.1803,9.1803,9.1803,9.1803,9.1803,9.1803,12.5027,12.3653,12.2554,12.2113,12.1936,12.0704,12.0159,12.022,12.0429,12.0536,12.0607,12.0823,12.0783,12.0249,11.9263,11.8427,11.765,11.6789,11.6428,11.6473,11.6484,11.6484,11.6484,11.6484,11.6484,11.6484,11.6484,11.6484,11.6484,11.6484,11.6484,11.6484,11.6484,11.6484,11.6484,11.6484,11.6484,11.6484,11.6446,11.633,11.6061,11.5918,11.5572,11.4753,11.3868,11.3291,11.256,11.1675,11.0675,11.0329,10.9752,10.9367,10.9021,10.8867,10.8867,10.879,10.7944,10.6944,10.6213,10.5597,10.5097,10.4636,10.4135,10.3664,10.2712,10.1597,10.0827,10.075,10.0404,10.0105,10.0057,10.0104,10.0084,9.9997,9.9544,9.9401,9.9257,9.8778,9.8509,9.8624,9.8681,9.8033,9.7392,9.6984,9.6674,9.645,9.6123,9.5714,9.5609,9.5489,9.5364,9.5286,9.5251,9.5227,9.5107,9.4971,9.4908,9.474,9.4486,9.4222,9.3911,9.3604,9.3381,9.2975,9.2547,9.2287,9.2057,9.1876,9.1822,9.1803,9.1803,9.1803,9.1803,9.1803,9.1803,12.5399,12.4171,12.3113,12.2587,12.2306,12.1142,12.0684,12.0712,12.0853,12.0988,12.1105,12.1169,12.0783,11.9896,11.9179,11.8392,11.7396,11.6792,11.6561,11.6484,11.6484,11.6484,11.6484,11.6484,11.6484,11.6484,11.6484,11.6484,11.6484,11.6484,11.6484,11.6484,11.6484,11.6484,11.6484,11.6484,11.6484,11.6484,11.6484,11.6446,11.6407,11.6407,11.611,11.5522,11.4753,11.3907,11.306,11.2252,11.1406,11.0752,11.056,11.0252,10.9867,10.9829,10.9829,10.9713,10.9252,10.879,10.8021,10.729,10.6482,10.5867,10.5097,10.4328,10.3212,10.2251,10.175,10.1673,10.1587,10.1471,10.1356,10.1192,10.1067,10.0827,10.0644,10.051,10.0289,9.9836,9.9663,9.9846,9.9884,9.9711,9.9085,9.841,9.7958,9.7554,9.7007,9.6286,9.6082,9.6009,9.5859,9.5795,9.6052,9.6068,9.6012,9.5822,9.5667,9.5461,9.5199,9.4826,9.4531,9.4313,9.4135,9.3615,9.3135,9.3183,9.336,9.2555,9.1803,9.1803,9.1803,9.1803,9.1803,9.184,9.1877,12.5521,12.4584,12.3553,12.2779,12.2179,12.1474,12.1143,12.1092,12.1169,12.1233,12.1333,12.1352,12.0554,11.9462,11.8912,11.8077,11.6638,11.6534,11.6495,11.6484,11.6484,11.6484,11.6484,11.6484,11.6484,11.6484,11.6484,11.6484,11.6484,11.6484,11.6484,11.6484,11.6484,11.6484,11.6484,11.6484,11.6484,11.6484,11.6484,11.6484,11.6484,11.6484,11.6418,11.6226,11.5572,11.4791,11.3945,11.2983,11.2214,11.1406,11.1252,11.1214,11.0895,11.0895,11.0857,11.078,11.0406,11.0021,10.9598,10.8482,10.7675,10.7059,10.6059,10.4761,10.3905,10.3751,10.3328,10.2635,10.252,10.2212,10.1741,10.1317,10.151,10.1394,10.125,10.1019,10.0904,10.0933,10.0808,10.1048,10.0943,10.0596,10.0442,9.9701,9.9076,9.8672,9.7874,9.7163,9.673,9.6554,9.6352,9.6368,9.6866,9.7047,9.718,9.7046,9.6992,9.6719,9.6405,9.5793,9.5197,9.5049,9.5096,9.4753,9.4433,9.4533,9.4389,9.3508,9.2701,9.206,9.1913,9.2354,9.2464,9.2501,9.2354,12.4926,12.4123,12.3214,12.2638,12.2241,12.1617,12.1334,12.1347,12.1421,12.1482,12.1491,12.1,12.0177,11.9215,11.8407,11.7677,11.6611,11.6484,11.6484,11.6484,11.6484,11.6484,11.6484,11.6484,11.6484,11.6484,11.6484,11.6484,11.6484,11.6484,11.6484,11.6484,11.6484,11.6484,11.6484,11.6484,11.6484,11.6484,11.6484,11.6484,11.6484,11.6484,11.6484,11.6418,11.5726,11.5215,11.4638,11.3407,11.2714,11.2252,11.1829,11.1703,11.1703,11.1665,11.1665,11.1626,11.1214,11.106,11.0714,10.9444,10.829,10.7405,10.6174,10.502,10.4713,10.4289,10.3866,10.3482,10.3405,10.3097,10.302,10.2443,10.2135,10.1981,10.1789,10.1548,10.1548,10.1664,10.151,10.152,10.1356,10.1125,10.1048,10.0971,10.0317,9.9702,9.8865,9.8106,9.7635,9.7336,9.7202,9.7278,9.7768,9.8017,9.8112,9.8214,9.8354,9.7965,9.7608,9.6958,9.6349,9.6344,9.6333,9.5991,9.5668,9.5537,9.5143,9.4348,9.3728,9.3216,9.3199,9.3455,9.3418,9.3161,9.3051,12.4533,12.3571,12.2956,12.2484,12.2115,12.1664,12.147,12.1482,12.1565,12.1612,12.1535,12.0677,11.9831,11.9023,11.8215,11.7369,11.6676,11.6484,11.6484,11.6484,11.6484,11.6484,11.6484,11.6484,11.6484,11.6484,11.6484,11.6484,11.6484,11.6484,11.6484,11.6484,11.6484,11.6484,11.6484,11.6484,11.6484,11.6484,11.6484,11.6484,11.6484,11.6484,11.6484,11.6446,11.5984,11.5533,11.5099,11.4214,11.356,11.3099,11.2676,11.2368,11.2291,11.2252,11.2214,11.2175,11.2022,11.1857,11.1434,11.0329,10.8944,10.8136,10.729,10.6367,10.579,10.529,10.5213,10.4289,10.4251,10.4212,10.4097,10.3289,10.2981,10.2904,10.2712,10.2558,10.2481,10.252,10.2174,10.1943,10.1789,10.1702,10.1317,10.125,10.0827,10.026,9.9625,9.8913,9.8404,9.8231,9.8317,9.8481,9.8827,9.8952,9.9076,9.9382,9.9601,9.8999,9.8599,9.8192,9.7773,9.768,9.7512,9.7195,9.6854,9.6527,9.6274,9.604,9.5323,9.454,9.443,9.4319,9.4006,9.3786,9.3932,12.4397,12.2973,12.2858,12.2396,12.1692,12.16,12.1562,12.1589,12.16,12.1535,12.1343,12.0562,11.9715,11.8908,11.7984,11.7176,11.6638,11.6484,11.6484,11.6484,11.6484,11.6484,11.6484,11.6484,11.6484,11.6484,11.6484,11.6484,11.6484,11.6484,11.6484,11.6484,11.6484,11.6484,11.6484,11.6484,11.6484,11.6484,11.6484,11.6484,11.6484,11.6484,11.6484,11.6446,11.6369,11.5957,11.5522,11.5072,11.4445,11.3984,11.3676,11.3483,11.3522,11.356,11.3599,11.3599,11.3022,11.2714,11.2522,11.1021,10.9944,10.9021,10.8252,10.7944,10.7675,10.7367,10.6867,10.5828,10.5366,10.4915,10.4415,10.3953,10.3905,10.3751,10.3597,10.3328,10.3251,10.3212,10.2866,10.2674,10.252,10.2327,10.1789,10.1366,10.1096,10.0712,10.026,9.9798,9.9327,9.925,9.9442,9.9558,9.9827,9.9894,10.0086,10.0683,10.0759,10.0179,9.9662,9.9288,9.8961,9.8767,9.8552,9.8317,9.8099,9.7845,9.7942,9.8022,9.6997,9.5945,9.522,9.4908,9.4577,9.4538,9.487,12.3408,12.287,12.2293,12.187,12.1612,12.1612,12.1612,12.1612,12.1574,12.1293,12.0639,11.9869,11.9023,11.8177,11.7446,11.6792,11.6561,11.6484,11.6484,11.6484,11.6484,11.6484,11.6484,11.6484,11.6484,11.6484,11.6484,11.6484,11.6484,11.6484,11.6484,11.6484,11.6484,11.6484,11.6484,11.6484,11.6484,11.6484,11.6484,11.6484,11.6484,11.6484,11.6484,11.6484,11.6484,11.6292,11.5984,11.5649,11.5176,11.4791,11.4522,11.4214,11.4176,11.4176,11.4137,11.406,11.3599,11.3291,11.2906,11.1945,11.1214,11.0214,10.9329,10.8983,10.8521,10.8521,10.8059,10.7598,10.6905,10.6559,10.6521,10.5251,10.4838,10.4559,10.4289,10.3866,10.3712,10.3712,10.3597,10.352,10.3405,10.3328,10.2943,10.252,10.2174,10.1904,10.1558,10.1135,10.0712,10.0635,10.0712,10.0712,10.0827,10.0866,10.1058,10.1202,10.1279,10.0797,10.0571,10.0523,10.0228,9.977,9.958,9.9336,9.9277,9.9198,9.8967,9.8636,9.8166,9.737,9.6602,9.6103,9.5921,9.5957,9.6195,12.2716,12.2408,12.1843,12.1612,12.1612,12.1612,12.1612,12.1535,12.1293,12.0804,12.0177,11.9177,11.8369,11.7677,11.6946,11.6484,11.6484,11.6484,11.6484,11.6484,11.6484,11.6484,11.6484,11.6484,11.6484,11.6484,11.6484,11.6484,11.6484,11.6484,11.6484,11.6484,11.6484,11.6484,11.6484,11.6484,11.6484,11.6484,11.6484,11.6484,11.6484,11.6484,11.6484,11.6484,11.6484,11.6446,11.633,11.6061,11.5676,11.5484,11.5215,11.483,11.483,11.483,11.4868,11.4868,11.4522,11.406,11.3407,11.3176,11.2483,11.1791,11.0483,10.9713,10.9444,10.9367,10.9098,10.8713,10.8444,10.8213,10.7829,10.6482,10.6213,10.5944,10.5636,10.5251,10.4789,10.4866,10.4597,10.452,10.4328,10.4251,10.4059,10.3828,10.3405,10.3174,10.2904,10.2558,10.2135,10.202,10.1856,10.1741,10.1673,10.1597,10.1404,10.1241,10.1279,10.1279,10.1305,10.1346,10.0923,10.0447,10.0407,10.029,10.0048,9.978,9.9476,9.914,9.8854,9.8504,9.796,9.7557,9.7284,9.7175,9.7174,12.2331,12.1651,12.1574,12.1485,12.1535,12.1381,12.142,12.1458,12.0639,12.0216,12.0023,11.8446,11.7792,11.7561,11.683,11.6534,11.6484,11.6484,11.6484,11.6484,11.6484,11.6484,11.6484,11.6484,11.6484,11.6484,11.6484,11.6484,11.6484,11.6484,11.6484,11.6484,11.6484,11.6484,11.6484,11.6484,11.6484,11.6484,11.6484,11.6484,11.6484,11.6484,11.6484,11.6484,11.6484,11.6484,11.6446,11.633,11.633,11.633,11.633,11.633,11.6407,11.6446,11.6484,11.6253,11.5649,11.4907,11.4214,11.406,11.383,11.3176,11.2291,11.1291,11.0752,11.0598,11.0291,10.979,10.9329,10.9136,10.8713,10.8444,10.8136,10.7829,10.7559,10.7059,10.6444,10.6136,10.5828,10.5559,10.5251,10.502,10.4636,10.4405,10.4559,10.4482,10.4289,10.4212,10.3789,10.3289,10.3058,10.2635,10.252,10.2289,10.2058,10.1971,10.201,10.2289,10.2009,10.1908,10.1468,10.1345,10.1476,10.1344,10.0744,10.0469,10.06,10.0292,9.9788,9.9457,9.943,9.8735,9.8392,9.7854,9.7654,12.1831,12.1535,12.0908,12.0677,12.06,12.0062,12.0139,12.0523,11.9792,11.9138,11.8484,11.8023,11.7446,11.6869,11.6599,11.6522,11.6484,11.6484,11.6484,11.6484,11.6484,11.6484,11.6484,11.6484,11.6484,11.6484,11.6484,11.6484,11.6484,11.6484,11.6484,11.6484,11.6484,11.6484,11.6484,11.6484,11.6484,11.6484,11.6484,11.6484,11.6484,11.6484,11.6484,11.6484,11.6484,11.6484,11.6484,11.6484,11.6484,11.6484,11.6484,11.6484,11.6484,11.6484,11.6484,11.6484,11.6149,11.5803,11.5099,11.4907,11.4753,11.4291,11.356,11.3407,11.2829,11.2291,11.1791,11.1098,11.0367,11.0098,10.9752,10.9483,10.9175,10.879,10.8521,10.8136,10.7598,10.7213,10.6867,10.6328,10.602,10.5828,10.5405,10.5405,10.552,10.5636,10.5597,10.5482,10.5251,10.4674,10.4097,10.3635,10.3405,10.3212,10.3212,10.3174,10.3212,10.3202,10.2893,10.2747,10.2753,10.2707,10.2709,10.2462,10.1973,10.1986,10.2131,10.171,10.112,10.1281,10.1237,10.025,9.942,9.8991,9.8717,12.1062,12.0946,12.0177,11.9831,11.9677,11.8946,11.8908,11.9177,11.8792,11.8254,11.7792,11.7407,11.6984,11.6599,11.6522,11.6484,11.6484,11.6484,11.6484,11.6484,11.6484,11.6484,11.6484,11.6484,11.6484,11.6484,11.6484,11.6484,11.6484,11.6484,11.6484,11.6484,11.6484,11.6484,11.6484,11.6484,11.6484,11.6484,11.6484,11.6484,11.6484,11.6484,11.6484,11.6484,11.6484,11.6484,11.6484,11.6484,11.6484,11.6484,11.6484,11.6484,11.6484,11.6484,11.6484,11.6484,11.6418,11.6226,11.583,11.5753,11.5445,11.5138,11.4907,11.4984,11.4484,11.3868,11.3137,11.2368,11.1675,11.1098,11.0675,11.0291,10.9867,10.9444,10.9252,10.9021,10.8636,10.8252,10.7713,10.7098,10.6818,10.6664,10.651,10.651,10.6356,10.6164,10.6087,10.6049,10.5933,10.5597,10.502,10.4482,10.4328,10.4212,10.4212,10.4097,10.3943,10.3789,10.3587,10.3508,10.3813,10.3783,10.3538,10.3415,10.3306,10.3366,10.3443,10.3015,10.2575,10.2829,10.2921,10.2129,10.1272,10.051,10.029,12.0216,12.0139,11.9331,11.8908,11.8754,11.8023,11.7715,11.7715,11.7715,11.7677,11.7484,11.6869,11.6572,11.6484,11.6484,11.6484,11.6484,11.6484,11.6484,11.6484,11.6484,11.6484,11.6484,11.6484,11.6484,11.6484,11.6484,11.6484,11.6484,11.6484,11.6484,11.6484,11.6484,11.6484,11.6484,11.6484,11.6484,11.6484,11.6484,11.6484,11.6484,11.6484,11.6484,11.6484,11.6484,11.6484,11.6484,11.6484,11.6484,11.6484,11.6484,11.6484,11.6484,11.6484,11.6484,11.6484,11.6484,11.6407,11.633,11.6292,11.633,11.6292,11.6446,11.6176,11.5561,11.483,11.3984,11.3522,11.2868,11.2137,11.1675,11.1406,11.1021,11.056,11.0214,10.979,10.929,10.8867,10.8329,10.7867,10.7752,10.7559,10.7357,10.7328,10.7405,10.6944,10.6856,10.6895,10.678,10.6636,10.602,10.5443,10.5251,10.5097,10.4866,10.4713,10.4482,10.4289,10.4328,10.4395,10.4749,10.4595,10.4249,10.4705,10.5196,10.4747,10.4598,10.4595,10.4682,10.4539,10.4468,10.3946,10.3263,10.2637,10.2316,11.9369,11.9331,11.8484,11.7753,11.7149,11.6918,11.683,11.6792,11.683,11.683,11.6753,11.6599,11.6484,11.6484,11.6484,11.6484,11.6484,11.6484,11.6484,11.6484,11.6484,11.6484,11.6484,11.6484,11.6484,11.6484,11.6484,11.6484,11.6484,11.6484,11.6484,11.6484,11.6484,11.6484,11.6484,11.6484,11.6484,11.6484,11.6484,11.6484,11.6484,11.6484,11.6484,11.6484,11.6484,11.6484,11.6484,11.6484,11.6484,11.6484,11.6484,11.6484,11.6484,11.6484,11.6484,11.6484,11.6484,11.6484,11.6484,11.6484,11.6484,11.6484,11.6484,11.6484,11.6138,11.5407,11.4868,11.4484,11.3984,11.3291,11.2676,11.2445,11.2137,11.1637,11.1175,11.056,10.9983,10.9483,10.8944,10.8752,10.8636,10.8444,10.8252,10.8175,10.829,10.8329,10.8367,10.8329,10.8213,10.7982,10.7213,10.6636,10.6251,10.602,10.579,10.579,10.579,10.579,10.5905,10.5867,10.579,10.5972,10.6192,10.6846,10.7227,10.6654,10.6638,10.7384,10.7361,10.6584,10.6363,10.5991,10.6172,10.58,10.5261,11.8523,11.8407,11.7561,11.6946,11.6534,11.6484,11.6484,11.6484,11.6484,11.6484,11.6484,11.6484,11.6484,11.6484,11.6484,11.6484,11.6484,11.6484,11.6484,11.6484,11.6484,11.6484,11.6484,11.6484,11.6484,11.6484,11.6484,11.6484,11.6484,11.6484,11.6484,11.6484,11.6484,11.6484,11.6484,11.6484,11.6484,11.6484,11.6484,11.6484,11.6484,11.6484,11.6484,11.6484,11.6484,11.6484,11.6484,11.6484,11.6484,11.6484,11.6484,11.6484,11.6484,11.6484,11.6484,11.6484,11.6484,11.6484,11.6484,11.6484,11.6484,11.6484,11.6484,11.6484,11.6484,11.583,11.5484,11.5138,11.4868,11.4214,11.3599,11.3253,11.2829,11.2329,11.2022,11.1598,11.1098,11.0598,11.0021,10.956,10.9406,10.9136,10.8906,10.8559,10.8636,10.8675,10.8867,10.9021,10.9021,10.9252,10.8482,10.7982,10.7664,10.7521,10.7521,10.7482,10.7482,10.7521,10.7328,10.7405,10.7405,10.7829,10.8252,10.8357,10.8434,10.8374,10.8601,10.9068,10.8794,10.7905,10.799,10.8151,10.8456,10.8602,10.7897,11.7638,11.7523,11.683,11.6495,11.6484,11.6484,11.6484,11.6484,11.6484,11.6484,11.6484,11.6484,11.6484,11.6484,11.6484,11.6484,11.6484,11.6484,11.6484,11.6484,11.6484,11.6484,11.6484,11.6484,11.6484,11.6484,11.6484,11.6484,11.6484,11.6484,11.6484,11.6484,11.6484,11.6484,11.6484,11.6484,11.6484,11.6484,11.6484,11.6484,11.6484,11.6484,11.6484,11.6484,11.6484,11.6484,11.6484,11.6484,11.6484,11.6484,11.6484,11.6484,11.6484,11.6484,11.6484,11.6484,11.6484,11.6484,11.6484,11.6484,11.6484,11.6484,11.6484,11.6484,11.6484,11.633,11.5984,11.5792,11.5522,11.5138,11.4522,11.406,11.3599,11.3099,11.2829,11.2522,11.206,11.1588,11.106,11.0483,11.0175,10.9944,10.9713,10.9329,10.9213,10.9175,10.9175,10.9213,10.9406,10.9829,10.9713,10.9483,10.9357,10.9252,10.8906,10.8713,10.8559,10.8406,10.8213,10.8598,10.8906,10.8983,10.9021,10.9136,10.9203,10.9588,10.9741,10.9989,10.959,10.942,11.0166,11.0648,11.0379,11.0429,11.0088,11.6753,11.6753,11.6572,11.6484,11.6484,11.6484,11.6484,11.6484,11.6484,11.6484,11.6484,11.6484,11.6484,11.6484,11.6484,11.6484,11.6484,11.6484,11.6484,11.6484,11.6484,11.6484,11.6484,11.6484,11.6484,11.6484,11.6484,11.6484,11.6484,11.6484,11.6484,11.6484,11.6484,11.6484,11.6484,11.6484,11.6484,11.6484,11.6484,11.6484,11.6484,11.6484,11.6484,11.6484,11.6484,11.6484,11.6484,11.6484,11.6484,11.6484,11.6484,11.6484,11.6484,11.6484,11.6484,11.6484,11.6484,11.6484,11.6484,11.6484,11.6484,11.6484,11.6484,11.6484,11.6484,11.6484,11.6292,11.6292,11.6022,11.5792,11.5291,11.5099,11.4714,11.406,11.3637,11.3176,11.2676,11.2445,11.2137,11.1637,11.1252,11.1137,11.1021,11.0791,11.0665,11.0626,11.0598,11.0626,11.0511,11.0703,11.078,11.0741,11.0703,10.9983,10.9213,10.9252,10.9136,10.9021,10.906,10.9406,10.9637,10.9713,10.9829,11.0175,11.0637,11.1088,11.1175,11.1252,11.15,11.1698,11.2681,11.3148,11.2663,11.2199,11.1798]}]]